[[{"header":{"parameterUnit":"m.s-1","parameterCategory":1,"la1":30.6,"la2":28.766,"lo1":-90.7593,"lo2":-88.6598,"dx":0.0162,"dy":0.0183,"nx":116,"ny":114,"refTime":"2022-12-06T06:00:00:Z","depth":0,"parameterNumber":2,"parameterNumberName":"U-component_of_WINDS"},"data":[0.0,0.0,0.0,0.0,0.0,0.0,0.0,0.0,0.0,0.0,0.0,0.0,0.0,0.0,0.0,0.0,0.0,0.0,0.0,0.0,0.0,0.0,0.0,0.0,0.0,0.0,0.0,0.0,0.0,0.0,0.0,0.0,0.0,0.0,0.0,0.0,0.0,0.0,0.0,0.0,0.0,0.0,0.0,0.0,0.0,0.0,0.0,0.0,0.0,0.0,0.0,0.0,0.0,0.0,0.0,0.0,0.0,0.0,0.0,0.0,0.0,0.0,0.0,0.0,0.0,0.0,0.0,0.0,0.0,0.0,0.0,0.0,0.0,0.0,0.0,0.0,0.0,0.0,0.0,0.0,0.0,0.0,0.0,0.0,0.0,0.0,0.0,0.0,0.0,0.0,0.0,0.0,0.0,0.0,0.0,0.0,0.0,0.0,0.0,0.0,0.0,0.0,0.0,0.0,0.0,0.0,0.0,0.0,0.0,0.0,0.0,0.0,0.0,0.0,0.0,0.0,0.0,0.0,0.0,0.0,0.0,0.0,0.0,0.0,0.0,0.0,0.0,0.0,0.0,0.0,0.0,0.0,0.0,0.0,0.0,0.0,0.0,0.0,0.0,0.0,0.0,0.0,0.0,0.0,0.0,0.0,0.0,0.0,0.0,0.0,0.0,0.0,0.0,0.0,0.0,0.0,0.0,0.0,0.0,0.0,0.0,0.0,0.0,0.0,0.0,0.0,0.0,0.0,0.0,0.0,0.0,0.0,0.0,0.0,0.0,0.0,0.0,0.0,0.0,0.0,0.0,0.0,0.0,0.0,0.0,0.0,0.0,0.0,0.0,0.0,0.0,0.0,0.0,0.0,0.0,0.0,0.0,0.0,0.0,0.0,0.0,0.0,0.0,0.0,0.0,0.0,0.0,0.0,0.0,0.0,0.0,0.0,0.0,0.0,0.0,0.0,0.0,0.0,0.0,0.0,0.0,0.0,0.0,0.0,0.0,0.0,0.0,0.0,0.0,0.0,0.0,0.0,0.0,0.0,0.0,0.0,0.0,0.0,0.0,0.0,0.0,0.0,0.0,0.0,0.0,0.0,0.0,0.0,0.0,0.0,0.0,0.0,0.0,0.0,0.0,0.0,0.0,0.0,0.0,0.0,0.0,0.0,0.0,0.0,0.0,0.0,0.0,0.0,0.0,0.0,0.0,0.0,0.0,0.0,0.0,0.0,0.0,0.0,0.0,0.0,0.0,0.0,0.0,0.0,0.0,0.0,0.0,0.0,0.0,0.0,0.0,0.0,0.0,0.0,0.0,0.0,0.0,0.0,0.0,0.0,0.0,0.0,0.0,0.0,0.0,0.0,0.0,0.0,0.0,0.0,0.0,0.0,0.0,0.0,0.0,0.0,0.0,0.0,0.0,0.0,0.0,0.0,0.0,0.0,0.0,0.0,0.0,0.0,0.0,0.0,0.0,0.0,0.0,0.0,0.0,0.0,0.0,0.0,0.0,0.0,0.0,0.0,0.0,0.0,0.0,0.0,0.0,0.0,0.0,0.0,0.0,0.0,0.0,0.0,0.0,0.0,0.0,0.0,0.0,0.0,0.0,0.0,0.0,0.0,0.0,0.0,0.0,0.0,0.0,0.0,0.0,0.0,0.0,0.0,0.0,0.0,0.0,0.0,0.0,0.0,0.0,0.0,0.0,0.0,0.0,0.0,0.0,0.0,0.0,0.0,0.0,0.0,0.0,0.0,0.0,0.0,0.0,0.0,0.0,0.0,0.0,0.0,0.0,0.0,0.0,0.0,0.0,0.0,0.0,0.0,0.0,0.0,0.0,0.0,0.0,0.0,0.0,0.0,0.0,0.0,0.0,0.0,0.0,0.0,0.0,0.0,0.0,0.0,0.0,0.0,0.0,0.0,0.0,0.0,0.0,0.0,0.0,0.0,0.0,0.0,0.0,0.0,0.0,0.0,0.0,0.0,0.0,0.0,0.0,0.0,0.0,0.0,0.0,0.0,0.0,0.0,0.0,0.0,0.0,0.0,0.0,0.0,0.0,0.0,0.0,0.0,0.0,0.0,0.0,0.0,0.0,0.0,0.0,0.0,0.0,0.0,0.0,0.0,0.0,0.0,0.0,0.0,0.0,0.0,0.0,0.0,0.0,0.0,0.0,0.0,0.0,0.0,0.0,0.0,0.0,0.0,0.0,0.0,0.0,0.0,0.0,0.0,0.0,0.0,0.0,0.0,0.0,0.0,0.0,0.0,0.0,0.0,0.0,0.0,0.0,0.0,0.0,0.0,0.0,0.0,0.0,0.0,0.0,0.0,0.0,0.0,0.0,0.0,0.0,0.0,0.0,0.0,0.0,0.0,0.0,0.0,0.0,0.0,0.0,0.0,0.0,0.0,0.0,0.0,0.0,0.0,0.0,0.0,0.0,0.0,0.0,0.0,0.0,0.0,0.0,0.0,0.0,0.0,0.0,0.0,0.0,0.0,0.0,0.0,0.0,0.0,0.0,0.0,0.0,0.0,0.0,0.0,0.0,0.0,0.0,0.0,0.0,0.0,0.0,0.0,0.0,0.0,0.0,0.0,0.0,0.0,0.0,0.0,0.0,0.0,0.0,0.0,0.0,0.0,0.0,0.0,0.0,0.0,0.0,0.0,0.0,0.0,0.0,0.0,0.0,0.0,0.0,0.0,0.0,0.0,0.0,0.0,0.0,0.0,0.0,0.0,0.0,0.0,0.0,0.0,0.0,0.0,0.0,0.0,0.0,0.0,0.0,0.0,0.0,0.0,0.0,0.0,0.0,0.0,0.0,0.0,0.0,0.0,0.0,0.0,0.0,0.0,0.0,0.0,0.0,0.0,0.0,0.0,0.0,0.0,0.0,0.0,0.0,0.0,0.0,0.0,0.0,0.0,0.0,0.0,0.0,0.0,0.0,0.0,0.0,0.0,0.0,0.0,0.0,0.0,0.0,0.0,0.0,0.0,0.0,0.0,0.0,0.0,0.0,0.0,0.0,0.0,0.0,0.0,0.0,0.0,0.0,0.0,0.0,0.0,0.0,0.0,0.0,0.0,0.0,0.0,0.0,0.0,0.0,0.0,0.0,0.0,0.0,0.0,0.0,0.0,0.0,0.0,0.0,0.0,0.0,0.0,0.0,0.0,0.0,0.0,0.0,0.0,0.0,0.0,0.0,0.0,0.0,0.0,0.0,0.0,0.0,0.0,0.0,0.0,0.0,0.0,0.0,0.0,0.0,0.0,0.0,0.0,0.0,0.0,0.0,0.0,0.0,0.0,0.0,0.0,0.0,0.0,0.0,0.0,0.0,0.0,0.0,0.0,0.0,0.0,0.0,0.0,0.0,0.0,0.0,0.0,0.0,0.0,0.0,0.0,0.0,0.0,0.0,0.0,0.0,0.0,0.0,0.0,0.0,0.0,0.0,0.0,0.0,0.0,0.0,0.0,0.0,0.0,0.0,0.0,0.0,0.0,0.0,0.0,0.0,0.0,0.0,0.0,0.0,0.0,0.0,0.0,0.0,0.0,0.0,0.0,0.0,0.0,0.0,0.0,0.0,0.0,0.0,0.0,0.0,0.0,0.0,0.0,0.0,0.0,0.0,0.0,0.0,0.0,0.0,0.0,0.0,0.0,0.0,0.0,0.0,0.0,0.0,0.0,0.0,0.0,0.0,0.0,0.0,0.0,0.0,0.0,0.0,0.0,0.0,0.0,0.0,0.0,0.0,0.0,0.0,0.0,0.0,0.0,0.0,0.0,0.0,0.0,0.0,0.0,0.0,0.0,0.0,0.0,0.0,0.0,0.0,0.0,0.0,0.0,0.0,0.0,0.0,0.0,0.0,0.0,0.0,0.0,0.0,0.0,0.0,0.0,0.0,0.0,0.0,0.0,0.0,0.0,0.0,0.0,0.0,0.0,0.0,0.0,0.0,0.0,0.0,0.0,0.0,0.0,0.0,0.0,0.0,0.0,0.0,0.0,0.0,0.0,0.0,0.0,0.0,0.0,0.0,0.0,0.0,0.0,0.0,0.0,0.0,0.0,0.0,0.0,0.0,0.0,0.0,0.0,0.0,0.0,0.0,0.0,0.0,0.0,0.0,0.0,0.0,0.0,0.0,0.0,0.0,0.0,0.0,0.0,0.0,0.0,0.0,0.0,0.0,0.0,0.0,0.0,0.0,0.0,0.0,0.0,0.0,0.0,0.0,0.0,0.0,0.0,0.0,0.0,0.0,0.0,0.0,0.0,0.0,0.0,0.0,0.0,0.0,0.0,0.0,0.0,0.0,0.0,0.0,0.0,0.0,0.0,0.0,0.0,0.0,0.0,0.0,0.0,0.0,0.0,0.0,0.0,0.0,0.0,0.0,0.0,0.0,0.0,0.0,0.0,0.0,0.0,0.0,0.0,0.0,0.0,0.0,0.0,0.0,0.0,0.0,0.0,0.0,0.0,0.0,0.0,0.0,0.0,0.0,0.0,0.0,0.0,0.0,0.0,0.0,0.0,0.0,0.0,0.0,0.0,0.0,0.0,0.0,0.0,0.0,0.0,0.0,0.0,0.0,0.0,0.0,0.0,0.0,0.0,0.0,0.0,0.0,0.0,0.0,0.0,0.0,0.0,0.0,0.0,0.0,0.0,0.0,0.0,0.0,0.0,0.0,0.0,0.0,0.0,0.0,0.0,0.0,0.0,0.0,0.0,0.0,0.0,0.0,0.0,0.0,0.0,0.0,0.0,0.0,0.0,0.0,0.0,0.0,0.0,0.0,0.0,0.0,0.0,0.0,0.0,0.0,0.0,0.0,0.0,0.0,0.0,0.0,0.0,0.0,0.0,0.0,0.0,0.0,0.0,0.0,0.0,0.0,0.0,0.0,0.0,0.0,0.0,0.0,0.0,0.0,0.0,0.0,0.0,0.0,0.0,0.0,0.0,0.0,0.0,0.0,0.0,0.0,0.0,0.0,0.0,0.0,0.0,0.0,0.0,0.0,0.0,0.0,0.0,0.0,0.0,0.0,0.0,0.0,0.0,0.0,0.0,0.0,0.0,0.0,0.0,0.0,0.0,0.0,0.0,0.0,0.0,0.0,0.0,0.0,0.0,0.0,0.0,0.0,0.0,0.0,0.0,0.0,0.0,0.0,0.0,0.0,0.0,0.0,0.0,0.0,0.0,0.0,0.0,0.0,0.0,0.0,0.0,0.0,0.0,0.0,0.0,0.0,0.0,0.0,0.0,0.0,0.0,0.0,0.0,0.0,0.0,0.0,0.0,0.0,0.0,0.0,0.0,0.0,0.0,0.0,0.0,0.0,0.0,0.0,0.0,0.0,0.0,0.0,0.0,0.0,0.0,0.0,0.0,0.0,0.0,0.0,0.0,0.0,0.0,0.0,0.0,0.0,0.0,0.0,0.0,0.0,0.0,0.0,0.0,0.0,0.0,0.0,0.0,0.0,0.0,0.0,0.0,0.0,0.0,0.0,0.0,0.0,0.0,0.0,0.0,0.0,0.0,0.0,0.0,0.0,0.0,0.0,0.0,0.0,0.0,0.0,0.0,0.0,0.0,0.0,0.0,0.0,0.0,0.0,0.0,0.0,0.0,0.0,0.0,0.0,0.0,0.0,0.0,0.0,0.0,0.0,0.0,0.0,0.0,0.0,0.0,0.0,0.0,0.0,0.0,0.0,0.0,0.0,0.0,0.0,0.0,0.0,0.0,0.0,0.0,0.0,0.0,0.0,0.0,0.0,0.0,0.0,0.0,0.0,0.0,0.0,0.0,0.0,0.0,0.0,0.0,0.0,0.0,0.0,0.0,0.0,0.0,0.0,0.0,0.0,0.0,0.0,0.0,0.0,0.0,0.0,0.0,0.0,0.0,0.0,0.0,0.0,0.0,0.0,0.0,0.0,0.0,0.0,0.0,0.0,0.0,0.0,0.0,0.0,0.0,0.0,0.0,0.0,0.0,0.0,0.0,0.0,0.0,0.0,0.0,0.0,0.0,0.0,0.0,0.0,0.0,0.0,0.0,0.0,0.0,0.0,0.0,0.0,0.0,0.0,0.0,0.0,0.0,0.0,0.0,0.0,0.0,0.0,0.0,0.0,0.0,-2.2385,0.0,0.0,0.0,0.0,0.0,0.0,0.0,0.0,0.0,0.0,0.0,0.0,0.0,0.0,0.0,0.0,0.0,0.0,0.0,0.0,0.0,0.0,0.0,0.0,-1.0559,-1.068,-1.0231,-1.0585,0.0,0.0,0.0,0.0,0.0,0.0,0.0,0.0,0.0,-1.1015,-1.2641,-1.4439,-1.7008,-2.0191,-1.8447,-1.6456,-1.4343,0.0,0.0,0.0,0.0,0.0,0.0,0.0,0.0,0.0,0.0,0.0,0.0,0.0,0.0,0.0,0.0,0.0,0.0,0.0,0.0,0.0,0.0,0.0,0.0,0.0,0.0,0.0,0.0,0.0,0.0,0.0,0.0,0.0,0.0,0.0,0.0,0.0,0.0,0.0,0.0,0.0,0.0,0.0,0.0,0.0,0.0,0.0,0.0,0.0,0.0,0.0,0.0,0.0,0.0,0.0,0.0,0.0,0.0,0.0,0.0,0.0,0.0,0.0,0.0,0.0,0.0,0.0,0.0,0.0,0.0,0.0,-2.4182,0.0,0.0,0.0,0.0,0.0,0.0,0.0,0.0,0.0,0.0,0.0,0.0,0.0,0.0,0.0,0.0,0.0,0.0,0.0,0.0,0.0,-1.0312,-1.0632,-1.1286,-1.1606,-1.1351,-1.1695,-1.1597,-1.0845,-1.0554,0.0,0.0,0.0,0.0,-1.0425,-1.0703,-1.2527,-1.5966,-1.8809,-2.2529,-2.7022,-2.7129,-2.528,-2.1831,-1.9223,0.0,0.0,0.0,0.0,0.0,0.0,0.0,0.0,0.0,0.0,0.0,0.0,0.0,0.0,0.0,0.0,0.0,0.0,0.0,0.0,0.0,0.0,0.0,0.0,0.0,0.0,0.0,0.0,0.0,0.0,0.0,0.0,0.0,0.0,0.0,0.0,0.0,0.0,0.0,0.0,0.0,0.0,0.0,0.0,0.0,0.0,0.0,0.0,0.0,0.0,0.0,0.0,0.0,0.0,0.0,0.0,0.0,0.0,0.0,0.0,0.0,0.0,0.0,-2.9902,-3.0899,-3.2339,-3.1773,-3.2642,-3.4419,-3.1666,-2.9982,-2.9025,-2.5956,0.0,0.0,0.0,0.0,0.0,0.0,0.0,0.0,0.0,0.0,0.0,0.0,0.0,0.0,0.0,0.0,0.0,0.0,0.0,-1.0791,-1.2305,-1.2561,-1.3507,-1.5656,-1.4504,-1.362,-1.3486,-1.213,0.0,0.0,0.0,0.0,-1.1327,-1.2756,-1.5201,-1.8677,-2.5623,-3.0106,-3.2244,-3.2974,-3.3429,-3.3295,-2.7092,-2.3453,-2.1791,0.0,0.0,0.0,0.0,0.0,0.0,0.0,0.0,0.0,0.0,0.0,0.0,0.0,0.0,0.0,0.0,0.0,0.0,0.0,0.0,0.0,0.0,0.0,0.0,0.0,0.0,0.0,0.0,0.0,0.0,0.0,0.0,0.0,0.0,0.0,0.0,0.0,0.0,0.0,0.0,0.0,-2.408,-2.3699,0.0,0.0,0.0,0.0,0.0,0.0,0.0,0.0,0.0,0.0,0.0,0.0,0.0,-2.8067,-2.9916,-3.1461,-3.3056,-3.4716,-3.6658,-3.8093,-3.9049,-3.9416,-3.9758,-4.0016,-3.9595,0.0,-3.143,-2.9767,0.0,0.0,0.0,0.0,0.0,0.0,0.0,0.0,0.0,0.0,0.0,0.0,0.0,0.0,0.0,0.0,0.0,0.0,0.0,0.0,0.0,-1.6636,-1.8232,-1.9353,-1.959,-1.868,-1.6284,-1.4977,0.0,0.0,0.0,-1.0898,-1.2145,-1.4833,-1.9831,-2.7178,-3.2402,-3.6155,-3.8386,-3.9218,-3.9845,-4.014,-3.7533,-3.3268,-2.777,-2.4662,0.0,0.0,0.0,0.0,0.0,0.0,0.0,0.0,0.0,0.0,0.0,0.0,0.0,0.0,0.0,0.0,0.0,0.0,0.0,0.0,0.0,0.0,0.0,0.0,0.0,0.0,0.0,0.0,0.0,0.0,0.0,0.0,0.0,0.0,0.0,0.0,0.0,0.0,0.0,-2.2713,-2.5001,-2.4434,-2.3932,-2.2858,0.0,0.0,0.0,0.0,0.0,0.0,0.0,0.0,0.0,-3.0607,-3.2048,-3.3637,-3.5367,-3.7057,-3.8186,-3.8734,-3.9741,-4.0619,-4.1409,-4.1213,-4.1352,-4.1772,-4.1279,-3.9568,-3.6896,-3.4109,-3.1264,-2.8465,0.0,0.0,0.0,0.0,-2.5937,-2.6342,0.0,0.0,0.0,0.0,0.0,0.0,0.0,0.0,0.0,0.0,0.0,0.0,-1.7995,-2.0886,-2.2889,-2.3536,-2.4314,-2.3363,-1.9972,-1.7944,-1.5539,-1.2616,-1.1288,-1.1479,-1.3338,-1.854,-2.5576,-3.437,-3.7715,-4.0387,-4.2422,-4.3223,-4.3734,-4.4062,-4.4678,-4.0881,-3.3922,-3.0496,-2.6808,-2.2808,0.0,0.0,0.0,0.0,0.0,0.0,0.0,0.0,0.0,0.0,0.0,0.0,0.0,0.0,0.0,0.0,0.0,0.0,0.0,0.0,0.0,0.0,0.0,0.0,0.0,0.0,0.0,0.0,0.0,0.0,0.0,0.0,0.0,0.0,0.0,0.0,0.0,-2.4826,-2.7004,-2.6061,-2.6558,-2.606,0.0,0.0,0.0,0.0,0.0,0.0,-2.9379,-3.0411,-3.2272,-3.5183,-3.6927,-3.8542,-4.0103,-4.138,-4.2015,-4.1998,-4.1889,-4.2157,-4.2709,-4.2042,-4.2079,-4.2709,-4.2005,-4.1748,-4.1583,-3.8039,-3.5305,-3.3145,-3.1139,-2.9563,-2.8659,-3.046,-3.1035,-3.1289,0.0,0.0,0.0,0.0,0.0,0.0,0.0,0.0,0.0,0.0,0.0,-1.8905,-2.233,-2.4197,-2.6191,-2.8699,-2.7535,-2.6235,-2.5191,-2.0549,-1.7058,-1.5269,-1.28,-1.2617,-1.5098,-2.4941,-3.2347,-3.7016,-4.0432,-4.2205,-4.2422,-4.322,-4.4082,-4.4922,-4.4961,-4.3301,-4.0213,-3.6669,-3.3586,-3.0467,-2.3038,0.0,0.0,0.0,0.0,0.0,0.0,0.0,0.0,0.0,0.0,0.0,0.0,0.0,0.0,0.0,0.0,0.0,0.0,0.0,0.0,0.0,0.0,0.0,0.0,0.0,0.0,0.0,0.0,0.0,0.0,0.0,0.0,0.0,0.0,0.0,0.0,0.0,0.0,-3.044,-3.1338,0.0,0.0,0.0,0.0,-2.8883,-3.0195,-3.2203,-3.4941,-3.6323,-3.8232,-4.0796,-4.1514,-4.222,-4.3089,-4.3165,-4.3605,-4.4408,-4.4034,-4.3893,-4.3915,-4.3553,-4.3586,-4.3899,-4.3537,-4.3566,-4.3654,-4.1095,-3.8942,-3.7161,-3.6504,-3.4773,-3.2827,-3.4824,-3.523,-3.5013,0.0,0.0,0.0,-1.0391,-1.0138,-1.0113,-1.0113,-1.1312,-1.2655,-1.3845,-1.8133,-2.1956,-2.429,-2.8067,-3.099,-3.2378,-3.2534,-3.1465,-2.9008,-2.4048,-2.1162,-2.1139,-1.651,-1.748,-2.5035,-3.1027,-3.5874,-3.9657,-4.1323,-4.2478,-4.3056,-4.4475,-4.5362,-4.5725,-4.6365,-4.5721,-4.3942,-4.1003,-3.7918,-3.45,-2.9615,-2.462,0.0,0.0,0.0,0.0,0.0,0.0,0.0,0.0,0.0,0.0,0.0,0.0,0.0,0.0,0.0,0.0,0.0,0.0,0.0,0.0,0.0,0.0,0.0,0.0,0.0,0.0,0.0,0.0,0.0,0.0,0.0,0.0,0.0,0.0,0.0,0.0,0.0,-3.1616,-3.2727,0.0,-3.0906,-3.1546,-3.2346,-3.2968,-3.4961,-3.6864,-3.8367,-3.9938,-4.1345,-4.2564,-4.317,-4.37,-4.4134,-4.4332,-4.4521,-4.4612,-4.4441,-4.4373,-4.4373,-4.4247,-4.4247,-4.4373,-4.427,-4.4299,-4.4336,-4.342,-4.2098,-4.0535,-4.0057,-3.9303,-3.8622,-3.9561,-3.9747,-3.9694,0.0,0.0,0.0,-1.0364,-1.0169,-1.0125,-1.0125,-1.1833,-1.3863,-1.5907,-2.0848,-2.5159,-2.7675,-3.1564,-3.4193,-3.4705,-3.5387,-3.4447,-3.1304,-2.6854,-2.4197,-2.3877,-2.0577,-2.2907,-3.1856,-3.4868,-3.787,-4.1016,-4.2029,-4.2836,-4.3428,-4.5148,-4.602,-4.613,-4.6832,-4.6695,-4.5802,-4.4102,-4.1784,-3.8931,-3.4968,-3.016,-2.5005,0.0,0.0,0.0,0.0,0.0,0.0,0.0,0.0,0.0,0.0,0.0,0.0,0.0,0.0,0.0,0.0,0.0,0.0,0.0,0.0,0.0,0.0,0.0,0.0,0.0,0.0,0.0,0.0,0.0,0.0,0.0,0.0,0.0,0.0,0.0,-3.244,-3.2564,-3.448,-3.5322,-3.409,-3.5361,-3.6651,-3.7724,-3.9257,-4.0555,-4.1475,-4.2556,-4.3433,-4.4053,-4.4768,-4.5237,-4.5361,-4.5857,-4.6009,-4.5779,-4.5683,-4.5596,-4.5622,-4.5507,-4.5331,-4.5155,-4.5041,-4.4903,-4.4763,-4.4663,-4.399,-4.3049,-4.259,-4.241,-4.2439,-4.264,-4.2583,-4.2309,0.0,0.0,-1.1203,-1.0344,-1.0212,-1.0194,-1.0194,-1.238,-1.5568,-1.9787,-2.4064,-2.8345,-3.2517,-3.4531,-3.5596,-3.5596,-3.5794,-3.4794,-3.2122,-2.8778,-2.578,-2.3218,-2.4941,-2.8737,-3.4679,-3.6471,-3.8531,-4.0975,-4.2603,-4.3411,-4.3415,-4.5097,-4.5974,-4.6089,-4.6246,-4.6147,-4.5879,-4.5879,-4.5297,-4.3893,-3.8931,-3.5391,-3.2429,0.0,0.0,0.0,0.0,0.0,0.0,0.0,0.0,0.0,0.0,0.0,0.0,0.0,0.0,0.0,0.0,0.0,0.0,0.0,0.0,0.0,0.0,0.0,0.0,0.0,0.0,0.0,0.0,0.0,0.0,0.0,0.0,0.0,-2.892,-3.2691,-3.4971,-3.3671,-3.6883,-3.8752,-3.7747,-3.9602,-4.1483,-4.2966,-4.2805,-4.313,-4.4231,-4.4316,-4.4739,-4.5594,-4.6471,-4.6923,-4.6923,-4.7702,-4.8086,-4.8115,-4.7799,-4.764,-4.759,-4.7327,-4.6847,-4.6347,-4.6001,-4.5583,-4.5143,-4.4814,-4.465,-4.4612,-4.419,-4.4028,-4.4028,-4.4035,-4.355,-4.272,-1.2014,-1.1154,-1.0485,-1.0225,-1.0212,-1.0194,-1.0194,-1.2883,-1.6016,-1.8974,-2.4176,-2.8705,-3.1719,-3.4226,-3.5683,-3.5683,-3.5861,-3.5109,-3.3053,-2.9141,-2.6578,-2.5798,-3.2196,-3.6332,-3.7443,-3.9114,-4.0257,-4.0857,-4.2485,-4.3214,-4.3224,-4.5059,-4.5935,-4.5971,-4.62,-4.6147,-4.5879,-4.5879,-4.5646,-4.5056,-4.3047,-3.9969,-3.6353,0.0,0.0,0.0,0.0,0.0,0.0,0.0,0.0,0.0,0.0,0.0,0.0,0.0,0.0,0.0,0.0,0.0,0.0,0.0,0.0,0.0,0.0,0.0,0.0,0.0,0.0,0.0,0.0,0.0,0.0,0.0,0.0,-3.5429,-3.3728,-3.5615,-3.7478,-3.8351,-3.9903,-4.091,-4.0855,-4.1619,-4.2301,-4.2718,-4.3406,-4.3986,-4.4278,-4.4893,-4.5624,-4.6509,-4.6778,-4.7192,-4.7778,-4.8009,-4.8086,-4.8125,-4.8635,-4.8567,-4.7981,-4.8534,-4.8342,-4.7597,-4.7527,-4.7067,-4.6398,-4.6291,-4.5888,-4.5283,-4.4954,-4.4787,-4.4811,-4.5066,-4.5038,-4.4715,-1.2075,-1.103,-1.0217,-1.023,-1.0227,-1.0378,-1.0729,-1.3695,-1.7178,-2.0711,-2.5444,-2.9703,-3.2942,-3.4744,-3.5687,-3.5687,-3.5566,-3.4528,-3.2349,-2.9498,-2.8892,-3.1059,-3.5978,-3.8918,-3.9541,-4.0512,-4.0931,-4.0743,-4.2398,-4.3163,-4.3188,-4.501,-4.5879,-4.5927,-4.6138,-4.6075,-4.588,-4.588,-4.577,-4.5556,-4.5056,-4.2931,-4.0008,-3.8777,-3.6007,-3.2705,-3.1628,-3.039,-2.9198,-2.8852,0.0,0.0,0.0,0.0,0.0,0.0,0.0,0.0,0.0,0.0,0.0,0.0,0.0,0.0,0.0,0.0,0.0,0.0,0.0,0.0,0.0,0.0,0.0,0.0,-3.5861,-3.9074,-3.8277,-3.9002,-3.9963,-4.099,-4.1815,-4.2434,-4.2815,-4.3335,-4.3701,-4.3848,-4.4486,-4.5009,-4.5355,-4.5855,-4.6701,-4.7894,-4.7971,-4.8355,-4.9163,-4.9202,-4.9356,-4.9692,-4.9856,-5.0048,-5.024,-5.001,-4.9856,-4.9654,-4.8971,-4.8394,-4.7932,-4.7548,-4.7086,0.0,0.0,0.0,0.0,0.0,-4.5788,-4.5726,-1.2578,-1.1373,-1.0344,-1.0312,-1.0273,-1.0586,-1.1484,-1.4492,-1.8501,-2.354,-2.7168,-3.0884,-3.5065,-3.5631,-3.5687,-3.5687,-3.5175,-3.3784,-3.1304,-3.0541,-3.2283,-3.6974,-3.7486,-3.8691,-4.0937,-4.1009,-4.0896,-4.0697,-4.2376,-4.3195,-4.3233,-4.5036,-4.5905,-4.5923,-4.6011,-4.5952,-4.5783,-4.5783,-4.5711,-4.5594,-4.5594,-4.471,-4.3201,-4.167,-4.0169,-3.8546,-3.6322,-3.4937,-3.4083,-3.3353,0.0,0.0,0.0,0.0,0.0,0.0,0.0,0.0,0.0,0.0,0.0,0.0,0.0,0.0,0.0,0.0,0.0,0.0,0.0,0.0,0.0,0.0,0.0,0.0,-3.8851,-4.1081,-4.2174,-4.2415,-4.2442,-4.233,-4.3025,-4.3649,-4.4034,-4.4722,-4.5311,-4.5731,-4.5748,-4.6124,-4.7009,0.0,0.0,0.0,0.0,-4.9817,-5.0712,-5.0712,-5.1048,-5.1769,-5.1241,-5.1702,-5.301,-5.1702,-5.1471,-5.1962,-5.0356,-4.9625,-4.9471,-4.8625,-4.8125,-4.7789,-4.599,-4.5693,-4.6172,-4.5887,-4.5973,-4.6015,-1.1918,-1.1419,-1.1023,-1.0344,-1.0272,-1.0586,-1.1484,-1.4492,-1.8501,-2.354,-2.7168,-3.0884,-3.5065,-3.5631,-3.5687,-3.5687,-3.5722,-3.5193,-3.3922,-3.5009,-3.6144,-3.7171,-3.9254,-4.0619,-4.0976,-4.0883,-4.0784,-4.0697,-4.2331,-4.3156,-4.3233,-4.5001,-4.5859,-4.5884,-4.5944,-4.5872,-4.5783,-4.5783,-4.5711,-4.5594,-4.5594,-4.5402,-4.5094,-4.4748,-4.4402,-4.4055,-4.3555,-4.2863,-4.2085,-4.1931,-3.9508,-3.643,-3.5968,-3.2391,0.0,0.0,0.0,0.0,0.0,0.0,0.0,0.0,0.0,0.0,0.0,0.0,0.0,0.0,0.0,0.0,0.0,0.0,0.0,-3.7532,-4.1528,-4.44,-4.3932,-4.446,-4.4585,-4.3656,-4.426,-4.4891,-4.5236,-4.5408,-4.581,-4.6577,-4.6663,-4.7009,-4.7817,-4.7855,-4.8355,-4.9356,-4.9394,-4.9817,-5.0712,-5.0712,-5.0789,-5.0933,0.0,0.0,-5.2192,-5.328,-5.3472,-5.2895,-5.1846,-5.1048,-5.0366,-4.951,-4.8355,-4.7077,-4.6685,-4.6205,-4.5744,-4.5649,-4.5668,-4.5706,-1.2367,-1.1755,-1.137,-1.0972,-1.0937,-1.1367,-1.2656,-1.5391,-1.8859,-2.3065,-2.6223,-2.9188,-3.2063,-3.2135,-3.1787,-3.1317,-3.1772,-3.2808,-3.4527,-3.5848,-3.7332,-3.9137,-4.0507,-4.1124,-4.0889,-4.0843,-4.0733,-4.0615,-4.1825,-4.2753,-4.3311,-4.4626,-4.5473,-4.5879,-4.5879,-4.5847,-4.5719,-4.5719,-4.5657,-4.5594,-4.5594,-4.5594,-4.5594,-4.5594,-4.5594,-4.5594,-4.5594,-4.5325,-4.494,-4.494,-4.3547,-4.1585,-4.0315,-3.7546,-3.3898,0.0,0.0,0.0,0.0,0.0,0.0,0.0,0.0,0.0,0.0,0.0,0.0,0.0,0.0,-3.2365,0.0,0.0,-4.0046,-4.0469,-4.3778,-4.5932,-4.5047,-4.5325,-4.5396,-4.4825,-4.5103,-4.5611,-4.6192,-4.624,-4.6778,-4.8048,-4.774,-4.8048,-4.9317,-4.8971,-4.9317,-5.0625,-5.024,-5.0433,-5.1279,-5.1318,-5.151,-5.1972,-5.2818,-5.3395,-5.3818,-5.3818,-5.3857,-5.378,-5.2462,-5.1654,-5.1241,-5.0394,-4.9317,-4.8125,-4.7663,-4.6701,-4.5594,-4.5594,-4.5594,-4.5594,-1.3288,-1.2434,-1.1925,-1.1639,-1.1601,-1.2187,-1.3828,-1.6172,-1.8941,-2.2296,-2.487,-2.6998,-2.8635,-2.8274,-2.7732,-2.7234,-2.8262,-3.0696,-3.4687,-3.605,-3.8042,-4.1055,-4.1171,-4.1031,-4.0821,-4.0796,-4.0671,-4.0516,-4.1354,-4.2337,-4.3405,-4.4271,-4.5136,-4.5952,-4.5905,-4.5795,-4.5654,-4.5612,-4.5594,-4.5594,-4.5594,-4.5594,-4.5594,-4.5594,-4.5594,-4.5594,-4.5402,-4.5248,-4.5133,-4.5287,-4.5248,-4.4825,-4.3085,-4.1816,-3.9746,-3.3205,-3.2205,0.0,0.0,0.0,0.0,0.0,0.0,0.0,0.0,-3.1506,-3.3231,-3.6346,-3.7115,-3.7777,-3.97,-4.1393,-4.2701,-4.3239,-4.5201,-4.6471,-4.5932,-4.5868,-4.5932,-4.6125,-4.5967,-4.6124,-4.6808,-4.7038,-4.7778,-4.9279,-4.874,-4.9048,-5.0635,-5.001,-5.0279,-5.1615,-5.1048,-5.101,-5.1654,-5.1808,-5.2231,-5.2972,-5.328,-5.4164,-5.5434,-5.4241,-5.3972,-5.4395,-5.2654,-5.1808,-5.1625,-5.0971,-5.0212,-4.9317,-4.8625,-4.7317,-4.5825,-4.5671,-4.5594,-4.5594,-1.4106,-1.3884,-1.3304,-1.179,-1.1561,-1.2187,-1.3828,-1.5664,-1.8043,-2.1396,-2.3462,-2.5195,-2.6825,-2.7019,-2.7355,-2.8085,-3.0351,-3.293,-3.5664,-3.8125,-3.9961,-4.1133,-4.1081,-4.0955,-4.0782,-4.0752,-4.0642,-4.0516,-4.1354,-4.2337,-4.3405,-4.4178,-4.506,-4.6075,-4.589,-4.579,-4.5782,-4.564,-4.5594,-4.5594,-4.5594,-4.5594,-4.5594,-4.5594,-4.5594,-4.5518,-4.4701,-4.397,-4.347,-4.4201,-4.397,-4.3585,-4.4786,-4.4085,-4.2354,-3.9938,-3.6783,-3.3436,-3.05,-2.9544,-2.9704,-3.0968,-3.3038,-3.5731,0.0,0.0,-3.9938,-4.1854,-4.2816,-4.3162,-4.2739,-4.4047,-4.494,-4.4278,-4.5047,-4.597,-4.6663,-4.6847,-4.7203,-4.7925,-4.7254,-4.6778,-4.6885,-4.7548,-4.8355,-4.9317,-4.9317,-4.9663,-5.0635,-5.0596,-5.0635,-5.0827,-5.075,-5.075,-5.0827,-5.1548,-5.1962,-5.2038,-5.3626,-5.4434,-5.4664,-5.5164,-5.5088,-5.4395,-5.2654,-5.151,-5.0827,-5.075,-5.0212,-4.9394,-4.9279,-4.824,-4.6663,-4.5893,-4.5594,-4.5594,-1.427,-1.4085,-1.3855,-1.3123,-1.3047,-1.3477,-1.4687,-1.5898,-1.7382,-1.9287,-2.0614,-2.1664,-2.2309,-2.1543,-2.1713,-2.3633,-2.6641,-3.0156,-3.4219,-3.7422,-3.9766,-4.1133,-4.1169,-4.1034,-4.0936,-4.0805,-4.0721,-4.0636,-4.0915,-4.1603,-4.2661,-4.2956,-4.3639,-4.4677,-4.5019,-4.512,-4.506,-4.5448,-4.5594,-4.5594,-4.5594,-4.5594,-4.5556,-4.5056,-4.4855,-4.4739,-4.3893,-4.2739,0.0,-4.2547,-4.2624,-4.2624,-4.4316,-4.3355,-4.1362,-4.0169,-3.8207,-3.6622,-3.7546,-3.643,-3.5437,-3.7161,-3.9123,-4.0969,-4.2277,-4.3008,-4.4094,-4.6317,-4.7048,-4.7009,-4.6163,-4.6586,-4.6624,0.0,-4.6163,-4.7009,-4.6923,-4.7403,-4.792,-4.8262,-4.8923,-4.9096,-4.8539,-4.8707,-4.9394,-5.0741,-5.0433,-5.051,-5.1356,-5.0933,-5.0712,-5.0712,-5.1164,-5.1395,-5.1395,-5.2741,-5.3395,-5.3433,-5.4626,-5.5203,-5.5203,-5.5549,-5.5241,-5.4434,-5.3203,-5.2472,-5.2164,-5.2164,-5.1933,-5.1548,-5.1048,-5.0423,-4.9538,-4.7201,-4.6355,-4.6355,-1.4554,-1.4444,-1.4448,-1.4453,-1.4453,-1.4687,-1.5312,-1.5937,-1.6641,-1.7539,-1.8203,-1.8594,-1.8594,-1.7227,-1.7383,-2.0,-2.3164,-2.7187,-3.2383,-3.5976,-3.8789,-4.0742,-4.1053,-4.1084,-4.1016,-4.0843,-4.0767,-4.0697,-4.0566,-4.1061,-4.2113,-4.2113,-4.264,-4.3645,-4.4143,-4.4307,-4.4232,-4.4932,-4.5094,-4.494,-4.5171,-4.5094,-4.4825,-4.4201,-4.3393,-4.247,-4.1893,-4.0739,-3.9431,-3.9354,-3.9508,-3.9931,-4.1123,-4.0585,-3.9392,-3.9046,-3.8007,-3.7507,-3.9969,-3.9815,-3.9469,-4.1623,-4.3932,-4.5547,-4.497,-4.597,-4.7518,-4.9394,-4.974,-4.9433,-4.8317,-4.8086,-4.7625,-4.6201,-4.6971,-4.774,-4.7625,-4.8229,-4.8884,-4.9349,-5.0656,-5.1204,-5.0476,-5.0256,-5.0545,-5.1529,-5.1049,-5.0933,-5.1548,-5.101,-5.0712,-5.0712,-5.1471,-5.1885,-5.1885,-5.3626,-5.4511,-5.4511,-5.5318,-5.5703,-5.5703,-5.5472,-5.5049,-5.4434,-5.3587,-5.3203,-5.3203,-5.3203,-5.3203,-5.3126,-5.25,-5.2115,-5.1615,-4.9154,-4.8,-4.7548,-1.535,-1.5352,-1.5352,-1.5352,-1.5352,-1.5352,-1.5391,-1.543,-1.5742,-1.6641,-1.6758,-1.6797,-1.6797,-1.5977,-1.6484,-1.9102,-2.1758,-2.5469,-3.0625,-3.418,-3.7226,-3.9844,-4.061,-4.1017,-4.1016,-4.0809,-4.0703,-4.0697,-4.0566,-4.1061,-4.2113,-4.2113,-4.2671,-4.3671,-4.3509,-4.3424,-4.3484,-4.4066,-4.3893,-4.3239,-4.4047,-4.3855,-4.3162,-4.3162,-4.1085,-3.82,-3.8161,-3.7584,-3.6423,-3.4007,-3.3737,-3.4436,-3.4475,-3.5584,-3.6962,-3.7815,-3.6276,-3.4359,-3.4436,-3.6199,-3.8854,-4.2239,-4.6163,-4.924,-4.9202,-4.9894,-5.0558,-5.0635,-5.0673,-5.0125,-4.8432,-4.8086,-4.7817,-4.7,-4.6885,-4.7509,-4.9086,-4.9582,-5.0359,-5.1989,-5.2324,-5.245,0.0,-5.218,-5.171,-5.0998,-5.0803,-5.0712,-5.075,-5.0712,-5.0712,-5.0712,-5.1471,-5.1885,-5.1885,-5.3626,-5.4511,-5.4511,-5.5318,-5.5703,-5.5665,-5.4895,-5.4511,-5.4434,-5.3587,-5.3203,-5.3203,-5.3203,-5.3203,-5.3203,-5.3164,-5.2654,-5.1885,-5.1769,-5.0741,-4.9202,-1.5506,-1.5391,-1.5391,-1.5391,-1.5389,-1.5383,-1.5383,-1.5383,-1.5501,-1.5813,-1.5852,0.0,0.0,0.0,0.0,0.0,-2.082,-2.4023,-2.8047,-3.2031,-3.543,-3.8047,-3.9529,-4.0542,-4.1128,-4.0909,-4.0761,-4.0761,-4.0697,-4.0848,-4.1253,-4.1311,-4.1612,-4.207,-4.2376,-4.2525,-4.259,-4.3217,-4.3355,-4.3124,-4.3393,-4.3355,-4.3085,-4.3085,-4.0623,-3.693,0.0,-3.3353,-3.1621,-3.1352,-3.1423,-3.1891,-3.3006,-3.2968,-3.2462,-3.216,-3.3506,-3.5545,-3.7784,-4.0246,-4.3008,-4.6432,-4.8779,-5.025,-5.025,-5.0481,-5.0721,-5.0795,-4.986,-4.868,-4.7643,-4.6891,-4.6355,-4.6086,-4.6971,-4.8141,-4.9373,-5.0195,-5.0893,-5.1509,-5.22,0.0,0.0,0.0,0.0,-5.1005,-5.1266,-5.1279,-5.075,-5.0712,-5.0712,-5.0712,-5.2049,-5.2769,-5.2769,-5.4434,-5.528,-5.528,-5.5549,-5.5703,-5.5703,-5.5434,-5.528,-5.528,-5.4972,-5.4857,-5.4857,-5.4857,-5.4857,-5.4857,-5.4857,-5.4664,-5.4357,-5.3818,-5.2895,-5.1702,-1.6444,-1.6328,-1.6328,-1.6328,-1.6326,0.0,0.0,0.0,0.0,0.0,0.0,0.0,0.0,0.0,0.0,0.0,0.0,-2.1953,-2.5391,-2.8749,-3.1912,-3.4842,-3.5739,-3.6714,-3.7884,-3.71,-3.7133,-3.8058,-3.8626,-3.9078,-3.9462,-4.0521,-4.0921,-4.0742,-4.1362,-4.163,-4.1695,-4.2367,-4.247,-4.2124,-4.1508,-4.0931,-4.0277,-3.9354,-3.6546,0.0,-3.0891,-2.8544,-2.6467,-2.7038,-2.7808,-2.8654,-2.9159,-2.9583,-2.9967,-3.0006,-3.2622,-3.6423,-4.07,-4.3047,-4.5201,-4.8933,-5.0289,-5.0712,-5.0712,-5.074,-5.0808,-5.0867,-4.8972,-4.7148,-4.6706,-4.5333,-4.4432,-4.5056,-4.6317,-4.779,-4.9357,-5.041,-5.119,-5.1541,-5.2452,-5.2669,0.0,0.0,0.0,-5.1095,-5.1541,-5.1548,-5.075,-5.0712,-5.0712,-5.0712,-5.2318,-5.3203,-5.3203,-5.4857,-5.5703,-5.5703,-5.5703,-5.5703,-5.5703,-5.5703,-5.5703,-5.5703,-5.5703,-5.5703,-5.5703,-5.5703,-5.5703,-5.5703,-5.5703,-5.5703,-5.5626,-5.5126,-5.4203,-5.301,-1.8006,-1.8008,-1.8008,0.0,0.0,0.0,0.0,0.0,0.0,0.0,0.0,0.0,0.0,0.0,0.0,0.0,0.0,0.0,-2.2617,-2.4447,-2.6937,-3.0371,-2.977,-3.0186,-3.1969,-3.0257,-3.0579,-3.3046,-3.4623,-3.5879,-3.6791,-3.9397,-4.0258,-3.9609,-4.0157,-4.0428,-4.045,-4.1086,-4.0854,-3.99,-3.8315,-3.6699,-3.4962,-3.2615,-2.9544,-2.6428,-2.5654,-2.3692,-2.1504,-2.162,-2.3385,-2.5308,-2.3889,-2.6202,-2.9781,-3.1506,-3.3885,-3.7192,-4.2816,-4.447,-4.5586,-4.9673,-5.0712,-5.0712,-5.0712,-5.0816,-5.085,-5.0618,-4.7927,-4.5538,0.0,0.0,-4.2332,-4.3918,-4.512,-4.6753,-4.9308,-5.0414,-5.1296,0.0,0.0,0.0,0.0,0.0,0.0,-5.119,0.0,-5.1587,-5.0789,-5.0712,-5.0712,-5.0712,-5.2318,-5.3203,-5.3203,-5.4857,-5.5703,-5.5703,-5.5703,-5.5703,-5.5703,-5.5703,-5.5703,-5.5703,-5.5703,-5.5703,-5.5703,-5.5703,-5.5703,-5.5703,-5.5703,-5.5703,-5.5703,-5.5703,-5.4664,-5.3164,0.0,0.0,0.0,0.0,0.0,0.0,0.0,0.0,0.0,0.0,0.0,0.0,0.0,0.0,0.0,0.0,0.0,0.0,-1.9219,-2.1479,-2.401,-2.682,-2.7935,-2.9599,-3.1969,-3.087,-3.0905,-3.2227,-3.2619,-3.3005,-3.3293,-3.4673,-3.523,-3.4989,-3.5073,-3.5111,-3.5085,-3.5148,-3.4699,-3.3891,-3.3468,-3.2654,-3.1692,-3.1692,-2.9154,-2.5692,-2.6115,-2.4192,-2.1696,-2.3009,-2.5967,-2.9462,-3.1577,-3.3,-3.4192,-3.5892,-3.9084,-4.2547,-4.4671,-4.7134,-4.9327,-5.0442,-5.0712,-5.0712,-5.0712,-5.0816,-5.0005,-4.6804,-4.4459,-4.1995,-3.8874,0.0,0.0,-4.2505,-4.6595,0.0,-5.07,-5.1534,0.0,-5.1525,-5.2269,-5.2437,-5.1493,-5.2046,0.0,0.0,-5.1524,-5.1808,-5.1587,-5.101,-5.0712,-5.0712,-5.2318,-5.3203,-5.3203,-5.4857,-5.5703,-5.5703,-5.5703,-5.5703,-5.5703,-5.5703,-5.5703,-5.5703,-5.5703,-5.5703,-5.5703,-5.5703,-5.5703,-5.5703,-5.5703,-5.5703,-5.5703,-5.5703,-5.5049,-5.4126,0.0,0.0,0.0,0.0,0.0,0.0,0.0,0.0,0.0,0.0,0.0,0.0,0.0,0.0,0.0,0.0,0.0,0.0,0.0,-1.8733,-2.047,-2.264,-2.2963,-2.4068,-2.6237,-2.5072,-2.5376,-2.7385,-2.7802,-2.842,-2.9216,-3.0889,-3.1478,-3.1075,-3.1774,-3.2043,-3.1991,-3.1857,-3.1538,0.0,0.0,-2.8923,-2.8077,-2.7462,-2.55,-2.3231,-2.4077,-2.4808,-2.5731,-2.7818,-3.0127,-3.2468,-3.4769,-3.6,-3.7084,-3.9508,-4.2431,-4.5287,-4.7287,-4.925,-5.0712,-5.0712,-5.0712,-5.0212,-4.8326,-4.8005,-4.6881,-4.2604,-3.9795,-3.7487,-3.5482,-3.7962,-4.0553,0.0,0.0,0.0,-5.1706,-5.2506,-5.2675,-5.1775,-5.2399,-5.2396,-5.1062,-5.1594,-5.1829,0.0,-5.1703,-5.1731,-5.1395,-5.0933,-5.0856,-5.1202,-5.251,-5.3549,-5.428,-5.5241,-5.5703,-5.5703,-5.5703,-5.5703,-5.5703,-5.5703,-5.5703,-5.5703,0.0,-5.5703,-5.5703,-5.5703,-5.5703,-5.5714,-5.576,-5.5798,-5.5817,-5.5887,-5.5388,-5.4675,0.0,0.0,0.0,0.0,0.0,0.0,0.0,0.0,0.0,-1.6707,-1.6747,-1.6869,0.0,0.0,0.0,0.0,0.0,0.0,0.0,0.0,-1.7122,-1.8708,-1.7323,-1.7273,-1.8958,-1.7459,-1.8161,-2.1268,-2.2137,-2.3339,-2.4819,-2.7326,-2.807,-2.7399,-2.889,-2.9552,-2.957,-2.9422,-2.9308,-2.9038,-2.6808,-2.5423,-2.4423,0.0,-2.1077,-2.0577,-2.1504,-2.5466,-3.0654,-3.343,-3.4744,-3.5391,-3.6507,-3.8007,-3.9931,-4.2893,-4.497,-4.6941,-4.9904,-5.0712,-5.0712,-5.0712,-5.0712,-4.9596,-4.5432,-4.4506,-4.3174,-3.8451,-3.5077,-3.3045,-3.3292,-3.5827,-3.8481,-4.0427,0.0,-5.053,-5.2505,-5.3394,-5.3485,-5.2606,-5.3139,-5.288,-5.1057,-5.1607,-5.1962,-5.1769,-5.1846,-5.1587,-5.0894,-5.075,-5.1125,-5.2038,-5.2933,-5.4126,-5.5665,-5.5703,-5.5703,-5.5703,-5.5703,-5.5703,-5.5703,-5.5703,-5.5703,-5.5703,-5.5703,0.0,-5.5703,-5.5703,-5.5724,-5.5748,-5.584,-5.5939,-5.5947,-5.6146,-5.573,-5.5052,0.0,0.0,0.0,0.0,0.0,0.0,0.0,0.0,0.0,0.0,-1.9882,-1.7773,0.0,0.0,0.0,0.0,0.0,0.0,0.0,0.0,0.0,-1.6922,-1.6661,-1.7276,-1.8972,-1.8074,-1.8215,-1.9547,-1.9765,-2.0067,-2.0428,-2.2255,-2.3014,-2.2855,-2.3797,-2.4184,-2.4135,-2.4138,-2.3697,-2.3004,-2.2543,-2.1885,-2.1192,-2.1423,0.0,0.0,-2.3086,-2.6087,-2.9929,-3.393,-3.7577,-4.0893,-4.3124,-4.5009,-4.6471,-4.7048,-4.8471,-4.9942,-5.0558,-5.0712,-5.0712,-5.0712,-5.0712,-4.975,-4.621,-4.4931,-4.2485,-3.5302,-3.2909,-3.1278,-2.8454,-3.2429,-3.7164,-4.0357,-4.5994,-5.0834,-5.3396,-5.4489,-5.4634,-5.3654,-5.4182,-5.3928,-5.2036,-5.252,0.0,0.0,0.0,-5.1846,-5.1692,-5.1048,-5.1395,-5.2933,-5.3818,-5.4741,-5.5703,-5.5703,-5.5703,-5.5703,-5.5703,-5.5703,-5.5703,-5.5703,-5.5703,-5.5703,-5.5703,0.0,-5.5703,-5.5703,-5.576,-5.5866,-5.5907,-5.5984,-5.6158,-5.6186,-5.6114,-5.5958,0.0,0.0,0.0,0.0,0.0,0.0,0.0,-2.3508,-2.4334,-2.7383,-2.6406,-2.4336,-2.1641,-2.0547,-1.9648,0.0,0.0,0.0,0.0,0.0,0.0,-1.71,-1.6718,-1.6872,-1.7682,-1.7365,-1.7617,-1.8475,0.0,-1.8826,-1.9336,-2.0056,-2.037,-2.0377,-2.1175,-2.1521,-2.1504,-2.1504,-2.1273,-2.0923,-2.135,-2.1273,-2.1,0.0,0.0,0.0,-2.3783,-2.6856,-3.0698,-3.2308,-3.6846,-4.2239,-4.4786,-4.674,-4.8086,-4.8086,-4.9317,-5.0712,-5.0712,-5.0712,-5.0712,-5.0712,-5.0712,-4.9096,-4.3008,-4.1369,-3.8801,-3.0645,-2.8676,-2.795,-2.6256,-3.0901,-3.5718,-3.7831,-4.4829,-5.0608,-5.2336,-5.4569,-5.5579,-5.4515,-5.4684,-5.4128,-5.2194,-5.2743,-5.251,-5.0827,0.0,-5.1731,-5.1318,-5.1741,-5.2587,-5.3857,-5.4703,-5.5318,-5.5703,-5.5703,-5.5703,-5.5703,-5.5703,-5.5703,-5.5703,-5.5703,-5.5703,-5.5703,-5.5703,0.0,-5.5703,-5.5703,-5.5789,-5.5893,-5.6037,-5.6175,-5.6293,-5.6383,-5.6397,-5.6391,0.0,0.0,0.0,0.0,0.0,0.0,0.0,-2.7379,-2.875,-3.2109,-3.2656,-3.1016,-2.6562,-2.4219,-2.2148,0.0,0.0,0.0,0.0,0.0,0.0,0.0,0.0,0.0,0.0,0.0,0.0,0.0,-1.7967,0.0,0.0,0.0,0.0,0.0,-1.9922,-2.0308,-2.0308,-2.0308,-2.0385,0.0,0.0,-2.162,0.0,0.0,0.0,0.0,0.0,-2.6928,-3.0346,-3.0615,-3.4654,-4.0162,-4.3047,-4.5509,-4.7317,-4.7509,-4.8663,-5.001,-5.0558,-5.0712,-5.0712,-5.0712,-5.0712,-4.8519,-4.0162,-3.8123,-3.5622,-2.7308,-2.5423,-2.5346,-2.5538,-2.9669,-3.3645,-3.565,-4.2604,-4.8595,-5.099,-5.386,-5.5612,-5.5283,-5.5224,-5.4394,-5.2447,-5.3003,0.0,0.0,0.0,0.0,-5.101,-5.2549,-5.378,-5.4472,-5.5304,-5.5758,-5.5758,-5.5769,-5.5769,-5.5758,-5.5758,-5.5728,-5.5703,-5.5703,-5.5703,-5.5703,-5.5703,0.0,0.0,-5.5703,-5.5817,-5.5962,-5.6146,-5.6285,-5.6456,-5.656,-5.6601,-5.6562,0.0,0.0,0.0,0.0,0.0,0.0,0.0,-2.8779,-3.1406,-3.7148,-3.5898,-3.3711,-3.1719,-2.8516,-2.5234,0.0,0.0,0.0,0.0,0.0,0.0,0.0,0.0,0.0,0.0,0.0,0.0,0.0,0.0,0.0,0.0,0.0,0.0,0.0,0.0,0.0,-2.0308,-2.0308,0.0,0.0,0.0,0.0,0.0,0.0,0.0,0.0,0.0,-2.55,-2.6462,-3.0269,-3.2045,-3.3353,-3.743,-4.1431,-4.4816,-4.5594,-4.6509,-4.774,-5.0048,-5.0712,-5.0712,-5.0712,-5.0712,-4.8673,-4.0939,-3.8584,-3.5815,-2.8082,-2.5846,-2.5538,-2.6346,-2.7603,-3.0317,-3.5905,-3.8844,-4.3016,-5.0278,-5.2241,-5.3811,-5.6169,-5.6244,-5.5408,-5.3602,-5.4014,0.0,0.0,0.0,0.0,-5.1846,-5.3433,-5.4434,-5.4511,-5.5391,-5.5891,-5.5891,-5.6071,-5.6071,-5.5891,-5.5891,-5.5816,-5.5703,-5.5703,-5.5703,-5.5703,-5.5703,0.0,0.0,-5.5703,-5.5879,-5.6175,-5.6186,-5.6365,-5.6562,-5.6601,-5.6601,-5.6601,0.0,0.0,0.0,0.0,0.0,0.0,-2.893,-2.9586,-3.191,-3.8516,-3.8008,-3.6601,-3.5391,-3.2187,-2.7891,-2.2383,0.0,0.0,0.0,0.0,0.0,0.0,0.0,0.0,0.0,0.0,-1.8714,-1.8748,-1.9804,0.0,0.0,0.0,0.0,0.0,0.0,0.0,0.0,-2.0808,0.0,0.0,0.0,0.0,0.0,0.0,0.0,0.0,0.0,0.0,-2.6269,-2.7462,-2.9577,-3.1737,-3.1852,-3.4814,-3.9092,-4.3508,-4.5817,-4.7471,-5.001,-5.0712,-5.0712,-5.0712,-4.9548,-4.6663,-4.0046,-3.7046,-3.3814,-2.7192,-2.5538,-2.5577,-2.6428,-2.689,-2.8574,-3.3106,-3.6227,-3.9682,-4.4379,-4.7611,-5.0432,-5.2994,-5.3194,-5.3213,0.0,0.0,0.0,0.0,0.0,0.0,-5.2923,-5.3946,-5.4815,-5.552,-5.5754,-5.5939,-5.6097,-5.6164,-5.6164,-5.6097,-5.6097,-5.6001,-5.5825,-5.5825,-5.5779,-5.5703,-5.5703,0.0,0.0,-5.5798,-5.5971,-5.6202,-5.6277,-5.6448,-5.6601,-5.6601,-5.6601,-5.6601,0.0,0.0,0.0,0.0,0.0,-2.4547,-2.918,-3.0117,-3.2292,-3.7967,-3.8203,-3.7617,-3.6992,-3.3164,-2.8906,-2.4529,-2.184,0.0,0.0,0.0,0.0,0.0,0.0,0.0,0.0,0.0,-1.9973,-2.0036,-2.1521,-2.2215,0.0,0.0,0.0,0.0,0.0,0.0,0.0,0.0,0.0,0.0,0.0,0.0,0.0,0.0,0.0,0.0,0.0,0.0,0.0,0.0,0.0,-2.9929,-2.839,-3.0275,-3.4314,-4.0585,-4.3855,-4.6047,-4.9086,-5.0327,-5.0731,-5.0758,-4.8795,-4.5334,-3.941,-3.6061,-3.2506,-2.6538,-2.5308,-2.55,-2.6115,-2.6424,-2.7691,-3.088,-3.3952,-3.7202,-4.0779,-4.4136,-4.7265,-5.0014,0.0,-5.1169,0.0,0.0,0.0,0.0,0.0,0.0,0.0,-5.4272,-5.5118,-5.6186,-5.609,-5.6108,-5.6251,-5.6285,-5.6285,-5.6251,-5.6251,-5.6181,-5.6008,-5.5947,-5.5831,-5.575,-5.575,0.0,0.0,-5.5899,-5.6052,-5.6207,-5.6358,-5.6465,-5.6601,-5.6601,-5.6601,-5.6601,0.0,0.0,0.0,0.0,0.0,0.0,-2.7505,-3.0334,-3.299,-3.5608,-3.5973,-3.6016,-3.6016,-3.0664,-2.7694,-2.9279,-2.3897,0.0,0.0,0.0,0.0,0.0,0.0,0.0,0.0,0.0,-2.1775,-2.1769,-2.2669,-2.304,-2.2982,-2.2994,-2.2962,0.0,0.0,0.0,0.0,0.0,0.0,0.0,0.0,0.0,0.0,0.0,0.0,0.0,0.0,0.0,0.0,0.0,0.0,0.0,0.0,-2.9083,-3.1423,-3.6584,-3.9854,-4.2769,-4.6971,-4.9394,-5.073,-5.0875,-4.8877,-4.5376,-3.9514,-3.614,-3.2506,-2.6538,-2.5308,-2.5308,-2.5308,-2.6086,-2.7524,-3.0117,-3.2057,-3.5344,-4.1356,-4.2907,-4.474,-4.8226,-4.9221,-4.9949,-5.084,0.0,0.0,0.0,0.0,0.0,0.0,-5.4498,-5.5286,-5.6153,-5.6344,-5.6389,-5.6389,-5.6517,-5.6517,-5.6389,-5.6389,-5.6344,-5.6186,-5.5976,-5.5915,0.0,0.0,0.0,0.0,-5.6057,-5.6191,-5.6207,-5.6358,-5.6465,-5.6601,-5.6601,-5.6601,-5.6601,0.0,0.0,0.0,0.0,0.0,0.0,0.0,-2.7011,-2.8975,-3.2791,-3.2301,-3.2305,-3.4023,-3.043,-2.8084,-2.8575,-2.4126,0.0,0.0,0.0,0.0,0.0,0.0,0.0,0.0,0.0,-2.3182,-2.4411,-2.578,-2.6423,-2.6343,-2.6456,-2.5792,-2.4592,-2.4018,0.0,0.0,0.0,0.0,0.0,0.0,0.0,0.0,0.0,0.0,0.0,0.0,0.0,0.0,0.0,0.0,0.0,0.0,0.0,0.0,-3.1808,-3.6276,-4.0623,-4.3124,-4.4624,-4.5227,-4.4076,-4.184,-3.8984,-3.5412,-3.2567,-2.966,-2.6038,-2.5308,-2.55,-2.6077,-2.5928,-2.7343,-3.2299,-3.3163,-3.4898,-3.9738,-4.2718,-4.5228,-4.7392,-5.0407,-5.2203,0.0,0.0,0.0,0.0,0.0,0.0,0.0,-5.3813,-5.4665,-5.5563,-5.6131,-5.645,-5.6557,-5.6562,-5.6562,-5.6557,-5.6557,-5.646,-5.6312,-5.6277,-5.6173,0.0,0.0,0.0,0.0,-5.6256,-5.6351,-5.6361,-5.6466,-5.656,-5.6601,-5.6601,-5.6601,-5.6601,0.0,0.0,0.0,0.0,0.0,0.0,0.0,-2.4839,-2.6464,-2.9257,-2.9011,-2.9686,-3.2617,-2.9297,-2.7459,-2.9044,-2.5177,0.0,0.0,0.0,0.0,0.0,0.0,0.0,-2.1683,-2.2898,-2.4652,-2.6984,-2.832,-2.9395,-3.0297,-3.0432,-2.9211,-2.68,-2.6353,-2.5305,0.0,0.0,0.0,0.0,0.0,0.0,-2.5317,0.0,0.0,0.0,0.0,0.0,0.0,0.0,0.0,0.0,0.0,0.0,0.0,0.0,-3.2545,-3.6584,-3.9546,-4.1239,-4.1878,-4.0819,-3.8387,-3.5681,-3.3467,-3.0728,-2.8021,-2.5793,-2.5339,-2.5498,-2.6038,-2.5994,-2.7341,-3.1752,-3.2622,-3.4462,-3.9429,-4.2028,-4.4367,-4.6917,0.0,0.0,0.0,0.0,0.0,0.0,0.0,0.0,0.0,-5.3516,-5.4414,-5.5273,-5.6045,-5.6357,-5.6094,-5.6445,-5.6445,-5.6094,-5.6445,-5.656,-5.6462,-5.6402,-5.6361,0.0,0.0,0.0,0.0,-5.6391,-5.6452,-5.6397,-5.6558,-5.6601,-5.6601,-5.6601,-5.6601,-5.6601,0.0,0.0,0.0,0.0,0.0,0.0,0.0,-2.3624,-2.5272,-2.5384,-2.617,-2.7996,-3.1289,-2.7344,-2.6053,-2.9979,0.0,0.0,0.0,0.0,0.0,0.0,0.0,0.0,-2.1806,-2.3553,-2.6108,-2.9486,-3.041,-3.2083,-3.4481,-3.4684,-3.287,-2.939,-2.9443,-2.7959,0.0,0.0,0.0,0.0,0.0,-2.5308,0.0,0.0,0.0,0.0,0.0,0.0,0.0,0.0,0.0,0.0,0.0,0.0,0.0,0.0,0.0,0.0,0.0,-3.8507,-3.976,-3.9774,-3.7365,-3.4565,-3.2994,-3.0124,0.0,-2.5716,-2.5395,-2.5437,-2.5631,-2.6311,-2.7535,-2.9593,-3.13,-3.4447,-4.0424,-4.1509,-4.3253,-4.7423,-4.9081,0.0,0.0,0.0,0.0,0.0,0.0,0.0,0.0,-5.3476,-5.4297,-5.5195,-5.5976,-5.6055,-5.5312,-5.6094,-5.6094,-5.5312,-5.6172,-5.6601,-5.6601,-5.6462,-5.6397,0.0,0.0,0.0,0.0,-5.651,-5.6516,-5.6443,-5.6559,-5.6601,-5.6601,-5.6601,-5.6601,-5.6601,0.0,0.0,0.0,0.0,0.0,0.0,0.0,0.0,0.0,0.0,-2.4805,-2.5302,-2.6133,-2.5742,-2.5502,0.0,0.0,0.0,0.0,0.0,0.0,0.0,0.0,0.0,-2.2746,-2.5044,-2.7885,-3.1277,-3.3341,-3.5264,-3.7091,-3.7313,-3.522,-3.1258,-3.0673,-2.8518,0.0,0.0,0.0,0.0,-2.5308,-2.5308,0.0,0.0,0.0,0.0,-2.5308,-2.5846,0.0,0.0,0.0,0.0,0.0,0.0,0.0,0.0,-2.7198,-2.789,-2.9775,0.0,-3.248,-3.1235,-3.0282,-2.9407,0.0,-2.7508,-2.6587,-2.5539,-2.5312,-2.5933,-2.786,-2.7416,-2.8551,-3.4096,-3.5443,-3.7705,-4.3088,-4.7177,-5.0729,-5.3696,-5.3236,-5.2964,0.0,0.0,0.0,0.0,0.0,0.0,0.0,-5.2891,-5.3398,-5.4297,-5.4492,-5.4844,-5.5312,-5.5508,-5.5508,-5.5312,-5.6172,-5.6601,-5.6601,-5.6561,-5.6559,0.0,0.0,0.0,-5.6512,-5.6562,-5.6562,-5.656,-5.6601,-5.6601,-5.6601,-5.6601,-5.6601,-5.6601,0.0,0.0,0.0,0.0,0.0,0.0,0.0,0.0,0.0,0.0,0.0,-2.4503,-2.4915,-2.539,0.0,0.0,0.0,0.0,0.0,0.0,0.0,0.0,0.0,-2.3161,-2.3631,-2.5727,-2.8822,-3.2994,-3.4673,-3.7154,-4.0323,-4.0149,-3.7561,-3.2901,-2.973,-2.7171,0.0,0.0,0.0,0.0,-2.5308,0.0,0.0,0.0,0.0,0.0,-2.5308,-2.5846,0.0,-2.6928,-2.7351,-2.7659,0.0,0.0,0.0,0.0,-2.6,-2.6115,-2.6582,-2.85,-3.0192,-2.9275,-2.8736,-2.8319,-2.7852,-2.6851,-2.5866,-2.5425,-2.5352,-2.5893,-2.7668,-2.8268,-2.9923,-3.4278,-3.7094,-4.056,-4.5714,-4.9508,-5.2412,-5.4152,-5.3224,0.0,0.0,0.0,0.0,0.0,0.0,0.0,0.0,-5.2695,-5.3086,-5.3984,-5.3594,-5.3828,-5.4687,-5.5117,-5.5312,-5.5312,-5.6172,-5.6601,-5.6601,-5.6601,-5.6601,0.0,0.0,0.0,-5.6601,-5.6601,-5.6601,-5.6601,-5.6601,-5.6601,-5.6601,-5.6601,-5.6601,-5.6601,0.0,0.0,0.0,0.0,0.0,0.0,0.0,0.0,0.0,0.0,0.0,0.0,0.0,0.0,0.0,0.0,0.0,0.0,0.0,0.0,0.0,0.0,0.0,-2.4534,-2.4884,-2.6254,-2.9373,-3.4301,-3.549,-3.8354,-4.2709,-4.2809,-3.9915,-3.4338,-2.8764,-2.5899,0.0,0.0,0.0,0.0,-2.5308,0.0,0.0,0.0,0.0,0.0,0.0,0.0,0.0,-2.8082,-2.8703,-2.8857,-2.8588,0.0,0.0,0.0,0.0,0.0,-2.5923,-2.8462,-3.0769,-2.9846,-2.9369,-2.9038,-2.8786,-2.7175,-2.5711,-2.5758,-2.5766,-2.6261,-2.7765,-2.9641,-3.1767,-3.4162,-3.8718,-4.3635,-4.8401,-5.0473,-5.1866,-5.2762,-5.196,0.0,0.0,0.0,0.0,0.0,0.0,0.0,0.0,-5.2656,-5.2891,-5.3789,-5.2969,-5.2969,-5.3984,-5.4726,-5.5156,-5.5312,-5.6172,-5.6601,-5.6601,-5.6601,-5.6601,-5.6601,0.0,0.0,-5.6601,-5.6601,-5.6601,-5.6601,-5.6601,-5.6601,-5.6601,-5.6601,-5.6601,-5.6601,0.0,0.0,0.0,0.0,0.0,0.0,0.0,0.0,0.0,0.0,0.0,0.0,0.0,0.0,0.0,0.0,0.0,0.0,0.0,0.0,0.0,-2.5284,-2.4683,-2.5325,-2.7478,-2.7728,-2.9963,-3.4301,-3.7262,-3.9477,-4.0977,-4.4555,-4.241,-3.532,-3.1464,-2.8113,-2.5379,-2.5317,0.0,-2.5308,-2.5308,0.0,0.0,0.0,0.0,0.0,0.0,0.0,0.0,-2.6038,-2.6851,-2.7818,-2.6346,0.0,0.0,0.0,0.0,0.0,-2.8846,-3.1583,-3.2391,-2.7346,-2.7634,-2.8805,-2.7305,-2.7291,-2.7576,-2.7523,-2.7536,-2.8879,-3.3339,-3.3425,-3.4738,-4.0598,-4.4771,-4.8358,0.0,0.0,-5.3919,-5.5335,0.0,0.0,0.0,0.0,0.0,0.0,0.0,0.0,0.0,-5.2383,-5.1992,-5.2851,-5.2031,-5.2383,-5.3984,-5.4141,-5.457,-5.5312,-5.6172,-5.6601,-5.6601,-5.6601,-5.6601,-5.6601,0.0,-5.6601,-5.6601,-5.6601,-5.6601,-5.6601,-5.6601,-5.6601,-5.6601,-5.6601,-5.6601,-5.6601,0.0,0.0,0.0,0.0,0.0,0.0,0.0,0.0,0.0,0.0,0.0,0.0,0.0,0.0,0.0,0.0,0.0,0.0,0.0,0.0,0.0,-2.8193,-2.746,-2.7529,-2.8673,-3.0027,-3.2766,-3.698,-3.9461,-4.1546,-4.3209,-4.1601,-3.8518,-3.4109,-2.9691,-2.6837,-2.5352,-2.5293,-2.5308,-2.5308,0.0,0.0,0.0,0.0,0.0,0.0,0.0,0.0,0.0,0.0,-2.7544,-2.8319,-2.7082,0.0,0.0,0.0,0.0,0.0,-2.7231,-2.9506,-3.1127,-2.9737,-3.2748,-3.5932,-3.566,-3.5214,-3.449,-3.313,-3.2866,-3.3441,-3.5305,-3.6985,-4.0301,-4.714,-4.8374,-4.9426,-5.2044,-5.1962,-5.2247,0.0,0.0,0.0,0.0,0.0,0.0,0.0,0.0,0.0,0.0,0.0,-5.1562,-5.1992,-5.207,-5.2695,-5.3984,-5.4453,-5.5156,-5.6015,-5.6406,-5.6601,-5.6601,-5.6601,-5.6601,-5.6601,0.0,-5.6601,-5.6601,-5.6601,-5.6601,-5.6601,-5.6601,-5.6601,-5.6601,-5.6601,-5.6601,-5.6601,0.0,0.0,0.0,0.0,0.0,0.0,0.0,0.0,0.0,0.0,0.0,0.0,0.0,0.0,0.0,0.0,0.0,0.0,0.0,0.0,-2.678,-2.9583,-2.9658,-3.0238,-3.157,-3.2888,-3.5637,-3.9892,-4.1546,-4.3585,-4.5787,-3.9609,-3.5538,-3.3175,-2.8595,-2.6103,-2.5312,-2.5322,-2.5308,-2.5308,0.0,0.0,0.0,0.0,0.0,0.0,0.0,0.0,0.0,0.0,0.0,0.0,0.0,0.0,0.0,-2.6231,-2.5615,-2.5769,-2.6577,-2.8378,-3.0667,-3.3397,-3.6804,-4.0065,-4.2421,-4.1313,-3.9558,-3.8702,-3.8539,-3.8373,-3.7945,-4.119,-4.5655,-5.0867,-5.0417,-5.0147,-5.2269,-5.1185,0.0,0.0,0.0,0.0,0.0,0.0,0.0,0.0,0.0,0.0,0.0,0.0,-5.1484,-5.1719,-5.2344,-5.3203,-5.4297,-5.4961,-5.5742,-5.6601,-5.6601,-5.6601,-5.6601,-5.6601,-5.6601,-5.6601,-5.6601,-5.6601,-5.6601,-5.6601,-5.6601,-5.6601,-5.6601,-5.6601,-5.6601,-5.6601,-5.6601,-5.6601,0.0,0.0,0.0,0.0,0.0,0.0,0.0,0.0,0.0,0.0,0.0,0.0,0.0,0.0,0.0,0.0,0.0,0.0,0.0,0.0,-2.6045,-2.7032,-2.9272,-3.305,-3.8536,-3.6459,-3.7392,-4.1615,-4.3316,-4.5047,-4.6701,-4.2255,-3.8015,-3.4069,-3.1301,-2.8309,-2.5395,-2.5321,-2.5308,-2.5308,-2.5308,0.0,0.0,0.0,0.0,0.0,0.0,0.0,0.0,0.0,0.0,0.0,0.0,0.0,-2.778,-2.6813,-2.6505,-2.7198,-3.039,-3.1951,-3.3511,-3.6811,-3.5077,-3.4179,-4.0484,-3.9412,-3.8186,-4.2056,-4.2763,-4.296,-4.3903,-4.6807,-4.9077,-4.9173,-5.079,-5.2181,0.0,0.0,0.0,0.0,0.0,0.0,0.0,0.0,0.0,0.0,0.0,0.0,0.0,0.0,0.0,-5.2578,-5.2656,-5.3516,-5.5195,-5.5273,-5.5742,-5.6601,-5.6601,-5.6601,-5.6601,-5.6601,-5.6601,-5.6601,-5.6601,-5.6601,-5.6601,-5.6601,-5.6601,-5.6601,-5.6601,-5.6601,-5.6601,-5.6601,-5.6601,-5.6601,0.0,0.0,0.0,0.0,0.0,0.0,0.0,0.0,0.0,0.0,0.0,0.0,0.0,0.0,0.0,0.0,0.0,0.0,0.0,-2.5542,-2.6669,-2.9042,-3.062,-3.3175,-3.6883,-3.8029,-4.07,-4.4962,-4.5624,-4.5445,-4.4476,-3.9105,-3.5213,-3.2561,-2.8877,-2.7146,-2.6882,-2.5755,-2.5923,-2.6813,-2.5731,-2.5308,0.0,0.0,0.0,0.0,0.0,0.0,0.0,0.0,-2.6505,-2.7236,-2.6115,-2.7121,-2.8396,-2.7005,-2.6621,-2.689,-2.8198,-3.112,-3.4294,-3.6022,-3.6514,-3.8218,-4.4414,-4.5711,-4.6203,-4.8444,-4.8875,-4.8631,-4.7971,-4.9035,-5.0067,-5.0333,-5.1148,0.0,0.0,0.0,0.0,0.0,0.0,0.0,0.0,0.0,0.0,0.0,0.0,0.0,0.0,0.0,0.0,-5.2656,-5.3242,-5.4101,-5.5273,-5.5859,-5.6289,-5.6601,-5.6601,-5.6601,-5.6601,-5.6601,-5.6601,-5.6601,-5.6601,-5.6601,-5.6601,-5.6601,-5.6601,-5.6601,-5.6601,-5.6601,-5.6601,-5.6601,-5.6601,-5.6601,0.0,0.0,0.0,0.0,0.0,0.0,0.0,0.0,0.0,0.0,0.0,0.0,0.0,0.0,0.0,0.0,0.0,0.0,-2.5518,-2.5598,-2.676,-2.9275,-3.0464,-3.2192,-3.4622,-3.8238,-4.1816,-4.5269,-4.6086,-4.5068,-4.2219,-3.7301,-3.4263,-3.2787,-2.8708,-2.7731,-2.8967,-2.6967,-2.6659,-2.7351,-2.5885,-2.5308,0.0,0.0,0.0,0.0,0.0,0.0,0.0,0.0,-2.6308,-2.6967,-2.6308,-2.7313,-2.8511,-2.7351,-2.759,-2.8237,-2.8214,-3.0857,-3.4062,-3.5908,-3.7727,-4.0671,-4.6907,-4.88,-5.0112,-5.2958,-5.3132,-5.226,-5.0551,-5.0618,-5.093,0.0,-5.1395,0.0,0.0,0.0,0.0,0.0,0.0,0.0,0.0,0.0,0.0,0.0,0.0,0.0,0.0,0.0,0.0,0.0,-5.3672,-5.4531,-5.5703,-5.6289,-5.6601,-5.6601,-5.6601,-5.6601,-5.6601,-5.6601,-5.6601,-5.6601,-5.6601,-5.6601,-5.6601,-5.6601,-5.6601,-5.6601,-5.6601,-5.6601,-5.6601,-5.6601,-5.6601,-5.6601,0.0,0.0,0.0,0.0,0.0,0.0,0.0,0.0,0.0,0.0,0.0,0.0,0.0,0.0,0.0,0.0,0.0,0.0,-2.5599,-2.5661,-2.6004,-2.6765,-2.8381,-3.0388,-3.2782,-3.7046,-4.0085,-4.1808,-4.4316,-4.3825,-4.04,-3.7853,-3.6269,-3.5346,-3.1923,-3.0885,-3.1506,-2.8967,-2.739,-2.6544,-2.5654,-2.5308,-2.5308,0.0,0.0,0.0,0.0,0.0,0.0,0.0,-2.6,-2.5615,-2.7351,-2.7895,-2.7934,-2.7895,-2.9757,-3.1771,-3.1675,-3.1809,-3.2969,-3.7139,-3.8218,-4.0016,-4.6778,-4.703,-4.781,-5.4769,-5.4917,-5.3262,-5.15,-5.1893,0.0,-5.0468,0.0,0.0,0.0,0.0,0.0,0.0,0.0,0.0,0.0,0.0,0.0,0.0,0.0,0.0,0.0,0.0,0.0,0.0,-5.4023,-5.4844,-5.6562,-5.6601,-5.6601,-5.6601,-5.6601,-5.6601,-5.6601,-5.6601,-5.6601,-5.6601,-5.6601,-5.6601,-5.6601,-5.6601,-5.6601,-5.6601,-5.6601,-5.6601,-5.6601,-5.6601,-5.6601,-5.6601,0.0,0.0,0.0,0.0,0.0,0.0,0.0,0.0,0.0,0.0,0.0,0.0,0.0,0.0,0.0,0.0,0.0,0.0,-2.5601,-2.5609,-2.5712,-2.588,-2.7482,-2.8393,-2.8472,-3.2083,-3.6546,-4.1808,-4.2547,-4.1224,-3.7956,-3.6523,-3.5111,-3.3754,-3.2638,-3.1654,-3.0654,-2.8736,-2.8088,-2.8242,-2.6774,-2.6192,-2.6192,0.0,0.0,0.0,0.0,0.0,0.0,0.0,0.0,0.0,-2.6813,-2.8236,-2.9429,-2.8236,-2.8856,-2.962,-2.8445,-3.3118,-3.8002,-3.6732,-4.2368,-4.8536,-4.9946,-4.9755,-5.0353,-5.4335,-5.4427,-5.3247,-5.1468,-5.1477,0.0,0.0,0.0,0.0,0.0,0.0,0.0,0.0,0.0,0.0,0.0,0.0,0.0,0.0,0.0,0.0,0.0,0.0,0.0,0.0,-5.4609,-5.5469,-5.6601,-5.6601,-5.6601,-5.6601,-5.6601,-5.6601,-5.6601,-5.6601,-5.6601,-5.6601,-5.6601,-5.6601,-5.6601,-5.6601,-5.6601,-5.6601,-5.6601,-5.6601,-5.6601,-5.6601,-5.6601,-5.6601,0.0,0.0,0.0,0.0,0.0,0.0,0.0,0.0,0.0,0.0,-2.537,-2.5374,0.0,0.0,0.0,0.0,0.0,0.0,-2.5655,-2.5607,-2.5701,-2.5994,-2.6957,-2.7859,-2.8621,-3.1314,-3.4353,-3.7769,-3.8469,-3.7584,-3.5372,-3.5766,-3.583,-3.5581,-3.583,-3.4814,-3.2808,-3.1121,-3.0083,-2.9544,-2.8506,-2.8115,-2.8077,0.0,0.0,0.0,0.0,0.0,0.0,0.0,0.0,0.0,-2.6505,-2.7654,-2.8885,-2.889,-3.0216,-3.1835,-3.2448,-3.7161,-4.201,-4.2581,-4.7035,-5.1525,-5.2427,-5.2486,-5.2748,-5.4077,-5.4039,-5.3376,-5.2002,-5.2133,0.0,0.0,0.0,0.0,0.0,0.0,0.0,0.0,0.0,0.0,0.0,0.0,0.0,0.0,0.0,0.0,0.0,0.0,0.0,0.0,-5.4492,-5.5351,-5.6601,-5.6601,-5.6601,-5.6601,-5.6601,-5.6601,-5.6601,-5.6601,-5.6601,-5.6601,-5.6601,-5.6601,-5.6601,-5.6601,-5.6601,-5.6601,-5.6601,-5.6601,-5.6601,-5.6601,-5.6601,-5.6601,0.0,0.0,0.0,0.0,0.0,0.0,0.0,0.0,0.0,-2.5398,-2.5378,-2.5357,0.0,0.0,0.0,-2.5496,-2.5543,-2.5612,-2.5703,-2.561,-2.5921,-2.6751,-2.6942,-2.8459,-3.1506,-3.3006,-3.2974,-3.137,-3.3128,-3.3607,-3.2932,-3.5515,-3.7584,-3.9207,-4.0015,-3.8892,-3.6231,-3.4468,-3.2352,-3.0154,-3.0154,-3.0154,-3.0077,-2.9275,0.0,0.0,0.0,0.0,0.0,0.0,0.0,0.0,-2.6323,-2.6669,-2.7159,-2.9385,-3.2678,-3.6399,-4.0022,-4.2321,-4.5176,-5.1375,-5.1545,-5.1056,-5.4274,-5.4941,-5.4718,-5.3949,-5.3813,-5.3602,-5.2929,0.0,0.0,0.0,0.0,0.0,0.0,0.0,0.0,0.0,0.0,0.0,0.0,0.0,0.0,0.0,0.0,0.0,0.0,0.0,0.0,-5.3945,-5.4062,-5.4922,-5.6562,-5.6601,-5.6601,-5.6601,-5.6601,-5.6601,-5.6601,-5.6601,-5.6601,-5.6601,-5.6601,-5.6601,-5.6601,-5.6601,-5.6601,-5.6601,-5.6601,-5.6601,-5.6601,-5.6601,-5.6601,-5.6601,0.0,0.0,0.0,0.0,0.0,0.0,0.0,0.0,-2.5425,-2.5409,-2.5465,-2.5509,-2.5471,-2.5513,0.0,-2.559,-2.5597,-2.5604,-2.561,-2.55,-2.5842,-2.6667,-2.8565,-2.9952,-3.0654,-3.0352,-2.9748,-2.88,-3.1091,-3.2134,-3.2042,-3.5206,-3.7276,-3.8315,-3.9169,-3.7392,-3.3545,-3.1204,-2.9511,-2.8429,-2.8429,-2.8429,-2.8429,-2.8242,-2.7082,0.0,0.0,0.0,0.0,0.0,0.0,0.0,-2.6382,-2.7123,-2.7582,-2.7467,-3.1328,-3.5563,-3.4963,-4.1009,-4.7763,-4.9065,-5.211,-5.4923,-5.5542,-5.5374,-5.4804,-5.3961,-5.3886,-5.3905,0.0,0.0,0.0,0.0,0.0,0.0,0.0,0.0,0.0,0.0,0.0,0.0,0.0,0.0,0.0,0.0,0.0,0.0,0.0,0.0,0.0,-5.3984,-5.4648,-5.5547,-5.6601,-5.6601,-5.6601,0.0,-5.6601,-5.6601,-5.6601,-5.6601,-5.6601,-5.6601,-5.6601,-5.6601,-5.6601,-5.6601,-5.6601,-5.6601,-5.6601,-5.6601,-5.6601,-5.6601,-5.6601,-5.6601,0.0,0.0,0.0,0.0,0.0,0.0,0.0,0.0,-2.5427,-2.5425,-2.5468,-2.5503,-2.5529,-2.5533,0.0,0.0,-2.5535,-2.5535,-2.5535,-2.5443,-2.596,-2.7218,-2.9693,-3.0462,-2.9236,-2.9127,-2.8312,-2.6712,-2.7993,-2.9495,-3.1174,-3.4116,-3.6392,-3.8007,-3.8469,-3.6546,-3.2814,-3.1468,-3.0198,-2.9159,-2.9967,-3.0044,-2.966,-2.9275,-2.7775,-2.5885,-2.5462,0.0,0.0,0.0,0.0,0.0,0.0,0.0,-2.6813,-2.7582,-3.0644,-3.4471,-3.7614,-4.3053,-4.8554,-5.1363,-5.3793,-5.5482,-5.5436,-5.4913,-5.4474,-5.4435,-5.4206,0.0,0.0,0.0,0.0,0.0,0.0,0.0,0.0,0.0,0.0,0.0,0.0,0.0,0.0,0.0,0.0,0.0,0.0,0.0,0.0,-5.2461,-5.3281,-5.457,-5.5078,-5.5703,-5.6601,-5.6601,-5.6601,-5.6601,-5.6601,-5.6601,-5.6601,-5.6601,-5.6601,-5.6601,-5.6601,-5.6601,-5.6601,-5.6601,-5.6601,-5.6601,-5.6601,-5.6601,-5.6601,-5.6601,-5.6601,-5.6601,0.0,0.0,0.0,0.0,0.0,0.0,0.0,0.0,0.0,-2.5473,-2.5446,-2.5465,-2.5603,-2.5584,-2.5518,0.0,0.0,0.0,-2.5476,-2.5547,-2.6305,-2.785,-3.0078,-3.0348,-2.8389,-2.8736,-2.7873,-2.5731,-2.5615,-2.7287,-3.0772,-3.2946,-3.5315,-3.7777,-3.7469,-3.5622,-3.266,-3.2045,-3.1006,-2.9885,-3.1237,-3.1429,-3.0737,-3.0,-2.8346,-2.6269,-2.5577,-2.5308,-2.5308,-2.5293,0.0,0.0,0.0,0.0,-2.5692,-2.7813,-3.0117,-3.3456,-4.0421,-4.4646,-4.8567,-5.4618,-5.5579,-5.5028,-5.5073,-5.4644,-5.4489,-5.5179,0.0,0.0,0.0,0.0,0.0,0.0,0.0,0.0,0.0,0.0,0.0,0.0,0.0,0.0,0.0,0.0,0.0,0.0,0.0,0.0,-5.2656,-5.2851,-5.3633,-5.5234,-5.5312,-5.5703,-5.6601,-5.6601,-5.6601,-5.6601,-5.6601,-5.6601,-5.6601,-5.6601,-5.6601,-5.6601,-5.6601,-5.6601,-5.6601,-5.6601,-5.6601,-5.6601,-5.6601,-5.6601,-5.6601,-5.6601,-5.6601,-5.6601,0.0,0.0,0.0,0.0,0.0,0.0,0.0,0.0,0.0,0.0,-2.5527,-2.5602,-2.5663,-2.5663,-2.5658,-2.5597,-2.552,-2.5465,-2.5434,0.0,0.0,-2.7924,-2.8969,-2.9737,-3.0124,-2.8853,-2.7957,-2.7544,-2.6813,-2.8165,-3.1569,-3.2589,-3.443,-3.6808,-3.5353,-3.366,-3.166,-2.8698,-2.7313,-2.7121,-2.7351,-2.739,-2.7274,-2.7159,-2.6423,-2.5462,-2.5346,-2.5308,-2.5322,-2.5386,-2.5357,0.0,0.0,0.0,-2.5385,-2.5692,-2.9196,-3.3003,-3.3302,-4.0107,-4.8535,-5.4451,-5.6058,-5.6117,-5.5835,-5.602,-5.6245,0.0,0.0,0.0,0.0,0.0,0.0,0.0,0.0,0.0,0.0,0.0,0.0,0.0,0.0,0.0,0.0,0.0,0.0,0.0,0.0,0.0,-5.2695,-5.3437,-5.4297,-5.5273,-5.5312,-5.5703,-5.6601,-5.6601,-5.6601,-5.6601,-5.6601,-5.6601,-5.6601,-5.6601,-5.6601,-5.6601,-5.6601,-5.6601,-5.6601,-5.6601,-5.6601,-5.6601,-5.6601,-5.6601,-5.6601,-5.6601,-5.6601,-5.6601,0.0,0.0,0.0,0.0,0.0,0.0,0.0,0.0,0.0,0.0,0.0,-2.5593,-2.5703,-2.5661,-2.5614,-2.5603,-2.5496,-2.5431,-2.5361,-2.6111,-2.6791,-2.7249,-2.8062,-2.8512,-2.8445,-2.7664,-2.7,-2.6498,-2.6078,-2.7885,-3.1698,-3.2045,-3.3814,-3.6577,-3.3468,-3.166,-3.0769,-2.7852,-2.6621,-2.6659,-2.7121,-2.8787,-3.0659,-2.7716,-2.7865,-2.9274,-2.6395,-2.5374,-2.5356,-2.5412,-2.5424,-2.5348,-2.5398,0.0,0.0,0.0,-2.7277,-3.0664,-3.6116,-4.2645,-4.9279,-5.4806,-5.6246,-5.6246,-5.6083,-5.6289,-5.6462,0.0,0.0,0.0,0.0,0.0,0.0,0.0,0.0,0.0,0.0,0.0,0.0,0.0,0.0,0.0,0.0,0.0,0.0,0.0,0.0,-5.3633,-5.4141,-5.4531,-5.5117,-5.6015,-5.6015,-5.6211,-5.6601,-5.6601,-5.6601,-5.6601,-5.6601,-5.6601,-5.6601,-5.6601,-5.6601,-5.6601,-5.6601,-5.6601,-5.6601,-5.6601,-5.6601,-5.6601,-5.6601,-5.6601,-5.6601,-5.6601,-5.6601,-5.6601,0.0,0.0,0.0,0.0,0.0,0.0,0.0,0.0,0.0,0.0,0.0,-2.5533,-2.5703,0.0,0.0,0.0,-2.5484,-2.5395,-2.5317,-2.5914,-2.6335,-2.64,-2.7041,-2.711,-2.649,-2.6437,-2.6072,-2.5372,-2.5548,-2.7808,-3.2006,-3.2006,-3.393,-3.7199,-3.3154,-3.1115,-3.0577,-2.8005,-2.7044,-2.7357,-2.87,-3.1176,-3.3751,-3.0714,-3.1564,-3.3713,-2.8534,-2.6691,-2.6575,-2.5729,-2.5421,-2.5437,-2.5387,-2.5215,0.0,0.0,0.0,-2.7382,-3.7007,-4.1941,-4.5995,-5.2749,-5.456,-5.494,-5.5974,0.0,-5.645,0.0,0.0,0.0,0.0,0.0,0.0,0.0,0.0,0.0,0.0,0.0,0.0,0.0,0.0,0.0,0.0,0.0,0.0,0.0,0.0,-5.4609,-5.5273,-5.5508,-5.5937,-5.6562,-5.6601,-5.6601,-5.6601,-5.6601,-5.6601,-5.6601,-5.6601,-5.6601,-5.6601,-5.6601,-5.6601,-5.6601,-5.6601,-5.6601,-5.6601,-5.6601,-5.6601,-5.6601,-5.656,-5.6559,-5.6558,-5.6512,-5.6515,-5.6559,0.0,0.0,0.0,0.0,0.0,0.0,0.0,0.0,0.0,0.0,0.0,-2.5533,-2.5703,-2.5703,-2.5662,-2.5604,-2.5522,-2.5421,-2.5322,-2.5412,-2.5476,-2.5559,-2.5653,0.0,-2.5569,-2.5564,-2.5489,-2.5317,-2.612,-2.8698,-3.2852,-3.2852,-3.5084,-3.9015,-3.5552,-3.3122,-3.1468,-2.889,-2.828,-2.9187,-3.1801,-3.2951,-3.3491,-3.6457,-3.7734,-3.7259,-3.2028,-3.0165,-2.9747,-2.6405,-2.5395,-2.5463,-2.5352,-2.4821,-2.423,0.0,0.0,0.0,-3.0572,-3.2675,-3.5492,-4.6384,-4.9825,-5.1512,-5.5351,0.0,0.0,0.0,0.0,0.0,0.0,0.0,0.0,0.0,0.0,0.0,0.0,0.0,0.0,0.0,0.0,0.0,0.0,0.0,0.0,0.0,0.0,-5.5234,-5.5312,-5.6094,-5.6562,-5.6601,-5.6601,-5.6601,-5.6601,-5.6601,-5.6601,-5.6601,-5.6601,-5.6601,-5.6601,-5.6601,-5.6601,-5.6601,-5.6601,-5.6601,-5.6601,-5.6601,-5.6601,-5.6601,-5.6458,-5.6397,-5.6386,-5.626,-5.6285,-5.6397,0.0,0.0,0.0,0.0,0.0,0.0,0.0,0.0,0.0,0.0,0.0,0.0,0.0,-2.5703,-2.5703,-2.5661,-2.5542,-2.5428,-2.5322,-2.5307,-2.5379,-2.5486,-2.5511,-2.5529,-2.5542,-2.5511,-2.5443,-2.5352,-2.562,-2.739,-3.0473,-3.1621,-3.3237,-3.5122,-3.3353,-3.2545,-3.2199,-2.8005,-2.6736,-2.7839,-3.158,-3.5142,-3.8182,-3.817,-4.0974,-4.4055,-3.773,-3.4038,-3.1981,-3.0823,-2.8253,-2.5531,-2.5443,-2.4842,-2.408,-2.354,-2.3305,-2.4397,-2.9759,-3.2001,-3.4468,-4.1355,-4.6248,-4.9725,-5.1189,-5.4134,0.0,0.0,0.0,0.0,0.0,0.0,0.0,0.0,0.0,0.0,0.0,0.0,0.0,0.0,0.0,0.0,0.0,0.0,0.0,0.0,0.0,0.0,-5.6133,-5.6445,-5.6601,-5.6601,-5.6601,-5.6601,-5.6601,-5.6601,-5.6601,-5.6601,-5.6601,-5.6601,-5.6601,-5.6601,-5.6601,-5.6601,-5.6601,-5.6601,-5.6601,-5.6601,-5.6559,-5.646,-5.6438,-5.6358,-5.6256,-5.6212,-5.6222,-5.626,0.0,0.0,0.0,0.0,0.0,0.0,0.0,0.0,-2.5376,-2.5505,0.0,0.0,0.0,0.0,-2.5663,-2.5654,-2.5518,-2.5434,-2.5322,-2.5307,-2.5376,-2.5486,-2.5511,-2.5536,-2.5601,-2.529,-2.5188,-2.5413,-2.5335,-2.6615,-2.9127,-3.0583,-3.1852,-3.2852,-3.1468,-3.1775,-3.3083,-2.9115,-2.7769,-2.8769,-3.4031,-3.7753,-4.0279,-4.1603,-4.4245,-4.6653,-4.1684,-3.8287,-3.6122,-3.6192,-3.3984,-3.0806,-2.8396,-2.5649,-2.3126,-2.2327,-2.2671,-2.3925,-2.6891,-2.8984,-3.1538,-3.6794,-4.0937,-4.4766,-4.8828,0.0,0.0,0.0,0.0,0.0,0.0,0.0,0.0,0.0,0.0,0.0,0.0,0.0,0.0,0.0,0.0,0.0,0.0,0.0,0.0,0.0,0.0,0.0,-5.6601,-5.6601,-5.6601,-5.6601,-5.6601,-5.6601,-5.6601,-5.6601,-5.6601,-5.6601,-5.6601,-5.6601,-5.6601,-5.6601,-5.6601,-5.6601,-5.6601,-5.6601,-5.6601,-5.6601,-5.6515,-5.6389,-5.6361,-5.6242,-5.6104,-5.605,-5.6064,-5.6116,0.0,0.0,0.0,0.0,0.0,0.0,0.0,0.0,-2.547,-2.5591,0.0,0.0,0.0,0.0,0.0,-2.5583,-2.5508,-2.5414,-2.5322,-2.5343,-2.5444,-2.5489,-2.5542,-2.5599,-2.5599,-2.4785,-2.4685,-2.5406,-2.5292,-2.6544,-2.9011,-2.9885,-3.1154,-3.266,-3.0204,-3.0973,-3.3936,-3.2237,-3.1583,-3.2285,-3.9232,-4.0661,-3.9441,-4.6937,-4.7856,-4.4976,-4.3803,-4.2963,-4.2334,-4.2257,-4.222,-4.0974,-3.3896,-2.7016,-2.1378,-2.054,-2.089,-2.154,0.0,0.0,0.0,-3.2559,-3.3786,-3.6406,-4.8125,0.0,0.0,0.0,0.0,0.0,0.0,0.0,0.0,0.0,0.0,0.0,0.0,0.0,0.0,0.0,0.0,0.0,0.0,0.0,0.0,0.0,0.0,-5.6601,-5.6601,-5.6601,-5.6601,-5.6601,-5.6601,-5.6601,-5.6601,-5.6601,-5.6601,-5.6601,-5.6601,-5.6601,-5.6601,-5.6601,-5.6601,-5.6601,-5.6601,-5.6601,-5.6601,-5.6601,-5.6514,-5.638,-5.6237,-5.6084,-5.5883,-5.5768,-5.5789,-5.5907,0.0,0.0,0.0,0.0,0.0,-2.5468,-2.5489,-2.5473,-2.5493,0.0,0.0,0.0,-2.5742,-2.6836,-2.7536,-2.7468,-2.7454,-2.6856,-2.5449,-2.5391,-2.5412,-2.5489,-2.5507,-2.5516,-2.5516,-2.5308,-2.5234,-2.5321,-2.4716,-2.5082,-2.6385,-2.7231,-2.8236,-2.9313,-2.9813,-3.0237,-3.0358,-2.8044,-2.85,-3.1184,-3.6293,-4.0542,-4.4194,-4.8138,0.0,0.0,0.0,-4.9782,-4.8472,0.0,-4.3329,-3.6389,-2.8749,-2.4602,-2.2289,-2.0827,-2.1405,-2.2444,-2.1838,0.0,0.0,0.0,0.0,0.0,0.0,0.0,0.0,0.0,0.0,0.0,0.0,0.0,0.0,0.0,0.0,0.0,0.0,0.0,0.0,0.0,0.0,0.0,0.0,0.0,0.0,0.0,-5.6601,-5.6601,-5.6601,-5.6601,-5.6601,-5.6601,-5.6601,-5.6601,-5.6601,-5.6601,-5.6601,-5.6601,-5.6601,-5.6601,-5.6601,-5.6601,-5.6601,-5.6601,-5.6601,-5.6601,-5.6601,-5.6508,-5.6377,-5.6232,-5.6039,-5.5874,-5.573,-5.5696,-5.5717,-5.574,0.0,0.0,-2.5511,-2.5935,-2.6337,-2.6583,-2.6613,-2.657,-2.6565,0.0,0.0,0.0,-2.7304,-2.8866,-2.9563,-2.8808,-2.8364,-2.755,-2.6097,-2.5628,-2.5428,-2.5524,-2.5505,-2.5503,-2.5525,-2.5195,-2.5126,-2.5352,-2.4498,-2.4509,-2.5308,-2.5808,-2.6159,-2.6356,-2.7351,-2.7274,-2.6356,-2.4889,-2.6428,-3.0452,-3.7311,-4.1502,0.0,-4.929,-5.2496,0.0,0.0,0.0,-5.1877,-5.3313,-4.6999,0.0,0.0,-2.768,-2.3185,-2.1853,-2.2386,-2.3256,-2.2398,-2.3165,-2.4175,-2.3898,0.0,0.0,-3.5347,-3.7965,0.0,0.0,0.0,0.0,0.0,0.0,0.0,0.0,0.0,0.0,0.0,0.0,0.0,0.0,0.0,0.0,0.0,0.0,0.0,0.0,-5.6601,-5.6601,-5.6601,-5.6601,-5.6601,-5.6601,-5.6601,-5.6601,-5.6601,-5.6601,-5.6601,-5.6601,-5.6601,-5.6601,-5.6601,-5.6601,-5.6601,-5.6601,-5.6601,-5.6366,-5.6006,-5.6221,-5.626,-5.6181,-5.5962,-5.5816,-5.5703,-5.5703,-5.5703,-5.5703,0.0,0.0,-2.5744,-2.6835,-2.7701,-2.8342,-2.8594,-2.8435,-2.8392,0.0,-2.8033,-2.8283,-3.0234,-3.1596,-3.1743,-3.0218,-2.9058,-2.8015,-2.703,-2.5993,-2.5465,-2.5599,-2.5644,-2.5642,-2.5601,-2.4941,-2.4841,-2.5413,-2.4534,-2.4509,-2.5308,-2.5192,-2.4774,-2.4091,-2.4091,-2.3624,-2.2816,-2.3086,-2.5702,-3.0496,-3.9867,-4.2717,0.0,0.0,-5.1884,-5.0125,-5.2906,-5.3765,-5.4071,-5.7255,-5.1667,0.0,0.0,-3.381,-2.5687,-2.3512,-2.3949,-2.4786,-2.3326,-2.3573,-2.4574,-2.5938,-2.4898,0.0,-3.9475,-4.0229,0.0,0.0,0.0,0.0,0.0,0.0,0.0,0.0,0.0,0.0,0.0,0.0,0.0,0.0,0.0,0.0,0.0,0.0,-5.6601,-5.6601,-5.6601,-5.6601,-5.6601,-5.6601,-5.6601,-5.6601,-5.6601,-5.6601,-5.6601,-5.6484,-5.6445,-5.6445,-5.6445,-5.6445,-5.6445,-5.6562,-5.6601,-5.6601,-5.6484,-5.5929,-5.5145,-5.5653,-5.5897,-5.588,-5.5893,-5.5759,-5.5588,-5.5665,-5.5703,-5.5703,-2.4306,-2.4969,-2.5989,-2.758,-2.8565,-2.9626,-3.1046,-3.0639,-3.0672,-3.2101,-3.2173,-3.3045,-3.5547,-3.4843,-3.4062,-3.371,-3.1639,-2.9641,-2.8017,-2.6445,-2.5587,-2.5601,-2.626,-2.6299,-2.5602,-2.6071,-2.601,-2.5413,-2.4534,-2.4509,-2.5308,-2.462,-2.424,-2.4091,-2.4091,-2.3624,-2.2932,-2.5005,-2.8698,-3.3513,-3.687,-4.1231,-4.624,-5.1424,-5.5149,-5.7535,-5.703,-5.8127,-5.9248,-5.5987,-5.2949,-4.8844,0.0,0.0,-3.6665,-2.5968,-2.6912,-3.0312,-2.5232,-2.4446,-2.4859,-2.3895,-2.4825,0.0,-2.625,-2.7337,0.0,0.0,0.0,0.0,0.0,0.0,0.0,0.0,0.0,0.0,0.0,0.0,0.0,0.0,0.0,0.0,0.0,0.0,-5.6601,-5.6601,-5.6601,-5.6601,-5.6601,-5.6601,-5.6601,-5.6601,-5.6601,-5.6601,-5.6601,-5.5898,-5.5547,-5.5547,-5.5547,-5.5547,-5.5586,-5.6289,-5.6601,-5.6562,-5.5727,-5.5279,-5.5026,-5.4269,-5.3945,-5.4079,-5.5277,-5.5332,-5.4818,-5.5472,-5.5703,-5.5703,-2.4698,-2.5526,-2.6725,-2.8527,-2.9887,-3.1118,-3.2382,-3.2616,-3.293,-3.3787,-3.5046,-3.6239,-3.714,-3.6435,-3.5379,-3.4092,-3.2108,-3.0156,-2.8354,-2.6978,-2.6077,-2.5658,-2.6039,-2.6266,-2.6266,-2.6209,-2.6173,-2.6106,-2.4775,-2.4351,-2.4733,-2.3875,-2.4443,-2.5987,-2.3817,-2.3806,-2.5348,-2.4435,-2.6774,-3.1666,-3.843,0.0,-5.0539,-5.4929,-5.7971,-5.9756,-5.8687,-5.9458,-6.0573,-5.8002,-5.3931,0.0,-4.4831,-4.1992,-3.8705,-3.0894,-3.106,-3.2481,-2.6356,-2.5,-2.5317,-2.5364,-2.5412,0.0,0.0,0.0,0.0,0.0,0.0,0.0,0.0,0.0,0.0,0.0,0.0,0.0,0.0,0.0,0.0,0.0,0.0,0.0,0.0,0.0,-5.6601,-5.6601,-5.6601,-5.6601,-5.6601,-5.6601,-5.6601,-5.6601,-5.6172,-5.5937,-5.5937,-5.5078,-5.4648,-5.4648,-5.4648,-5.4883,-5.5312,-5.5229,-5.5691,-5.6429,-5.5438,-5.4706,-5.4251,-5.4541,-5.3854,-5.2815,-5.4447,-5.5088,-5.5164,-5.5549,-5.5703,-5.5703,-2.5332,-2.607,-2.7129,-2.8981,-3.0687,-3.2093,-3.3065,-3.3807,-3.4397,-3.4742,-3.7162,-3.8709,-3.8245,-3.8553,-3.8009,-3.5991,-3.445,-3.2656,-3.043,-2.894,-2.7805,-2.6992,-2.6244,-2.643,-2.7642,-2.6464,-2.6017,-2.6331,-2.4902,-2.4111,-2.3961,-2.3242,-2.4424,-2.698,-2.4475,-2.4794,-2.708,-2.4745,-2.6471,-3.1708,0.0,-4.7589,-5.1375,-5.6645,-5.8836,-5.908,-5.9352,-6.0066,-6.0742,-5.9726,-5.4787,-4.9193,-4.9846,-4.61,-4.0431,-3.5162,-3.5065,-3.515,-2.8174,-2.6538,-2.6962,-2.7698,-2.6834,-2.7348,0.0,0.0,0.0,0.0,0.0,0.0,0.0,0.0,0.0,0.0,0.0,0.0,0.0,0.0,0.0,0.0,0.0,0.0,0.0,0.0,-5.5156,-5.6484,-5.5351,-5.5195,-5.6523,-5.6601,-5.6601,-5.6601,-5.5742,-5.5312,-5.5312,-5.4258,-5.375,-5.375,-5.375,-5.4101,-5.4724,-5.4076,-5.4555,-5.5818,-5.4977,-5.4142,-5.3499,-5.4838,-5.4196,-5.2538,-5.4126,-5.5011,-5.5472,-5.5626,-5.5703,-5.5703,-2.5374,-2.5523,-2.6217,-2.8024,-2.9731,-3.1393,-3.3031,-3.3384,-3.401,-3.5533,-3.8623,-4.097,-4.1642,-4.3747,-4.5015,-4.4843,-4.3945,-4.1719,-3.7695,-3.4453,-3.2305,-3.1484,-2.8476,-2.7968,-3.039,-2.8036,-2.603,-2.4578,-2.4337,-2.3838,-2.3138,-2.3014,-2.3182,-2.3683,-2.7829,-2.7747,-2.4872,-2.9711,-3.556,0.0,-4.3862,-4.3665,0.0,-5.1334,-5.495,-5.6149,-5.9993,-6.1953,-6.1992,0.0,-5.5642,-5.3752,0.0,-4.6625,-5.0338,-3.5258,-3.7441,-4.2581,-3.2535,-3.0923,-3.1352,-2.8582,-2.994,-3.0783,-2.6532,0.0,-2.793,-2.6542,0.0,0.0,0.0,0.0,0.0,0.0,0.0,0.0,0.0,0.0,0.0,0.0,0.0,0.0,0.0,0.0,0.0,-5.6133,-5.0937,-5.0156,-5.6289,-5.6601,-5.6601,-5.6601,-5.5742,-5.5312,-5.5312,-5.3672,-5.2851,-5.2851,-5.2851,-5.2847,-5.2854,-5.3513,-5.3826,-5.3925,-5.3657,-5.3521,-5.3406,-5.3465,-5.3772,-5.428,-5.5203,-5.5164,-5.4703,-5.5434,-5.5703,-5.5703,-2.5356,-2.5931,-2.6724,-2.8041,-2.9251,-3.061,-3.2305,-3.4647,-3.6824,-3.8625,-4.0464,-4.1746,-4.2133,-4.2286,-4.2785,-4.3894,0.0,-4.1406,0.0,0.0,-3.3867,-3.1562,-2.9062,-2.8516,-3.0117,-2.7576,-2.5855,-2.5113,-2.3567,-2.266,-2.2364,-2.1798,-2.3147,-2.6098,-2.8718,-3.1119,-3.3174,-3.3587,-3.6033,0.0,0.0,0.0,0.0,-5.3823,-5.8872,-5.9992,-6.2343,-6.3437,-6.3437,0.0,-5.7012,0.0,0.0,0.0,0.0,-4.1669,-4.1202,-4.052,-3.2574,-3.2783,-3.4211,-2.9709,-3.0868,-3.1636,-2.6051,0.0,-2.4845,0.0,0.0,0.0,0.0,0.0,0.0,0.0,0.0,0.0,0.0,0.0,0.0,0.0,0.0,0.0,0.0,0.0,0.0,0.0,0.0,-4.9531,-5.6953,-5.6875,-5.6601,-5.6601,-5.5273,-5.4531,-5.4531,-5.2812,-5.1953,-5.1953,-5.2461,-5.2884,-5.3267,-5.3533,-5.3872,-5.4226,-5.41,-5.3762,-5.3367,-5.4254,-5.4587,-5.4626,-5.5934,-5.5934,-5.5241,-5.5588,-5.5703,-5.5703,-2.5035,-2.5896,-2.6743,-2.7461,-2.832,-2.9529,-3.1373,-3.4447,-3.7352,-3.9621,-4.0753,-4.1631,-4.2425,-4.2701,-4.3437,-4.5021,-4.5545,-4.4258,0.0,0.0,-3.6835,-3.4844,-3.0819,-2.9725,-3.2031,-2.8359,-2.6055,-2.5352,-2.3199,-2.2183,-2.2227,-2.1323,-2.3106,-2.7227,-2.9669,-3.3679,-3.8539,-3.7516,-3.886,-4.1724,-4.2741,-4.4285,-4.6991,-5.6801,-6.1708,-6.3437,-6.4062,-6.4453,-6.4414,-6.2968,-5.7989,0.0,-5.8933,0.0,-4.6532,0.0,-4.6183,-4.2611,-3.5521,0.0,0.0,0.0,0.0,0.0,0.0,0.0,0.0,0.0,0.0,0.0,0.0,0.0,0.0,0.0,0.0,0.0,0.0,0.0,0.0,0.0,0.0,0.0,0.0,0.0,0.0,0.0,0.0,0.0,-5.7383,-5.707,-5.6601,-5.6601,-5.4922,-5.4101,-5.4336,-5.2383,-5.1641,-5.2109,-5.2459,-5.3024,-5.3735,-5.3623,-5.3818,-5.4323,-5.4679,-5.4472,-5.401,-5.5703,-5.6088,-5.5665,-5.6896,-5.6973,-5.6395,-5.6126,-5.5895,-5.5703,-2.4343,-2.5053,-2.5688,-2.5781,-2.6484,-2.7927,-3.0357,-3.156,-3.3373,0.0,0.0,0.0,0.0,0.0,0.0,0.0,0.0,-5.4844,-4.8906,0.0,-4.2842,-4.4492,-3.4874,-3.2254,-3.8164,-3.168,-2.6992,-2.4453,-2.3516,-2.3047,-2.3047,-2.2226,-2.272,-2.4632,-3.1393,-3.4959,-3.6196,-4.2,-4.7916,-5.3302,-5.2486,-5.4761,-5.8555,0.0,-6.0625,-6.4258,-6.4297,0.0,0.0,-5.9637,-5.8259,0.0,0.0,0.0,0.0,0.0,0.0,0.0,0.0,0.0,0.0,-3.1433,0.0,0.0,0.0,0.0,-2.7511,0.0,0.0,0.0,0.0,0.0,0.0,0.0,0.0,0.0,0.0,0.0,0.0,0.0,0.0,0.0,0.0,0.0,0.0,0.0,0.0,0.0,-5.7187,-5.707,-5.6601,-5.6601,-5.4922,-5.4414,-5.5234,-5.2695,-5.2266,-5.3906,-5.2944,-5.2873,-5.3584,-5.3462,-5.337,-5.3328,-5.4983,-5.5665,-5.5742,-5.7511,-5.8204,-5.8165,-5.8242,-5.8242,-5.8127,-5.728,-5.6406,-5.5703,-2.4354,-2.5069,-2.5662,-2.5703,-2.5937,-2.7185,-3.0239,-3.2345,0.0,0.0,0.0,0.0,0.0,-5.0592,-5.213,0.0,0.0,-5.3709,-4.9863,-4.6614,0.0,0.0,0.0,-3.5256,0.0,-3.2379,-2.7847,-2.5273,-2.3769,-2.3054,-2.3074,-2.2801,-2.3191,-2.4426,-3.0788,-3.6641,-4.1902,-4.4392,0.0,0.0,0.0,-5.4254,-5.9297,0.0,0.0,-6.289,-6.5195,-6.6211,0.0,-6.4373,-6.1671,-5.9315,-6.1044,-5.7824,-5.373,-5.5426,-5.4521,0.0,0.0,0.0,-5.0108,-3.881,0.0,0.0,0.0,0.0,0.0,0.0,0.0,0.0,0.0,0.0,0.0,0.0,0.0,0.0,0.0,0.0,0.0,0.0,0.0,0.0,0.0,0.0,0.0,0.0,0.0,0.0,0.0,-5.793,-5.7187,-5.6601,-5.4922,-5.4414,-5.5273,-5.3281,-5.2851,-5.3984,-5.4152,-5.4312,-5.4469,-5.4883,-5.4675,-5.4164,-5.5818,-5.6252,-5.5818,-5.7588,-5.7973,-5.755,-5.8665,-5.8434,-5.7473,-5.7742,-5.7319,-5.6483,-2.4445,-2.5116,-2.5703,-2.5703,-2.6211,-2.7537,0.0,0.0,0.0,0.0,-4.444,0.0,-5.2091,0.0,-5.3079,0.0,-5.5078,-5.3512,-5.0235,-4.8382,0.0,-4.7923,-4.2512,0.0,0.0,0.0,-3.1793,-2.8906,-2.587,-2.4247,-2.3998,-2.3632,-2.3886,-2.4764,-2.957,-3.6575,-4.4863,-4.5892,-5.069,0.0,0.0,-5.5233,0.0,0.0,-6.0976,-6.1719,0.0,-6.6914,-6.6914,-6.6914,-6.4646,-6.2415,-6.582,-6.2258,-5.7391,-6.0456,-5.8966,-5.5899,-5.4006,-5.5545,0.0,-4.489,-4.3425,0.0,-3.137,0.0,-3.0979,0.0,0.0,0.0,0.0,0.0,0.0,0.0,0.0,0.0,0.0,0.0,0.0,0.0,0.0,0.0,0.0,0.0,0.0,0.0,0.0,0.0,0.0,0.0,-5.75,-5.664,-5.5195,-5.4883,-5.5742,-5.4336,-5.4023,-5.4875,-5.5293,-5.5424,-5.5275,-5.5667,-5.548,-5.5011,-5.6703,-5.7126,-5.6742,-5.8473,-5.8665,-5.8011,-5.9088,-5.8858,-5.7973,-5.8511,-5.8204,-5.7357,-2.4609,-2.5156,-2.5742,-2.5742,-2.7148,0.0,0.0,0.0,-3.7698,0.0,-4.5324,-4.8111,-5.2656,-5.3867,-5.4648,-5.5469,-5.6211,-5.488,-5.0674,-5.0141,0.0,0.0,-4.8174,-4.7891,-5.1445,0.0,0.0,0.0,-2.9518,-2.6494,-2.5715,-2.473,-2.466,-2.5507,-2.8019,-3.4917,-4.4782,-4.6401,-5.3639,-6.3633,-5.9531,-5.7851,-5.7969,-5.8984,-5.9805,-6.0976,-6.5351,-6.6914,-6.6914,-6.6914,-6.6914,-6.6914,-6.6914,-6.6914,-6.6758,-6.5898,-6.5664,-6.457,-5.9518,-5.8105,-5.646,-4.9596,0.0,0.0,0.0,0.0,-3.788,0.0,0.0,0.0,0.0,0.0,0.0,0.0,0.0,0.0,0.0,0.0,0.0,0.0,0.0,0.0,0.0,0.0,0.0,0.0,0.0,0.0,0.0,0.0,0.0,-5.6601,-5.5742,-5.5703,-5.6601,-5.5781,-5.5696,-5.6389,-5.6285,-5.6142,-5.5907,-5.575,-5.5703,-5.578,-5.755,-5.8319,-5.8434,-6.0127,-6.0242,-5.9435,-5.9511,-5.955,-5.955,-5.9511,-5.9011,-5.8357,-2.5547,-2.605,-2.6584,0.0,-2.6978,-2.8449,0.0,0.0,0.0,0.0,-4.8337,-5.167,-5.8633,-5.9023,-5.8867,-5.9062,-5.8164,0.0,0.0,0.0,0.0,-5.6872,-5.2246,-5.0758,-5.3281,-4.4265,0.0,-3.7617,0.0,-2.6967,-2.7431,-2.5834,-2.519,-2.5398,-2.7409,-3.3684,-4.2788,-4.3855,-5.0162,-5.9315,-5.8318,-5.75,0.0,0.0,-6.1367,-6.0976,-6.5351,-6.6914,-6.6914,-6.6914,-6.6914,-6.6914,-6.6914,-6.6914,-6.6875,-6.664,-6.6562,-6.6289,-6.4921,-6.4061,-6.2184,-5.6462,-5.3451,-5.0401,0.0,0.0,0.0,0.0,0.0,0.0,0.0,0.0,0.0,0.0,0.0,0.0,0.0,0.0,0.0,0.0,0.0,0.0,0.0,0.0,0.0,0.0,0.0,0.0,0.0,0.0,0.0,-5.6484,-5.5742,-5.5703,-5.6601,-5.6273,-5.6209,-5.6389,-5.6769,-5.6591,-5.5907,-5.575,-5.5703,-5.578,-5.755,-5.8319,-5.8434,-6.0127,-5.9935,-5.8742,-5.9973,-6.0473,-6.0396,-5.9742,-5.9358,-5.9127,-2.6367,-2.7527,-2.8657,-2.8988,0.0,0.0,-3.5122,0.0,0.0,-4.7569,-4.9837,0.0,-5.8281,-5.9805,-6.0273,-5.9922,-5.9023,0.0,-5.6138,0.0,0.0,-5.7814,-5.5953,-5.5673,-5.7344,-5.0122,0.0,-4.0778,0.0,-2.974,-2.6892,-2.5855,-2.5142,-2.4856,-2.7002,-3.2154,-3.9686,-4.6664,-5.1882,-5.5755,-5.8865,0.0,0.0,-6.207,-6.3086,-6.3555,-6.6015,-6.6914,-6.6914,-6.6914,-6.6914,-6.6914,-6.6914,-6.6914,-6.6914,-6.6914,-6.6914,-6.6914,-6.6914,-6.625,-6.4883,-6.1909,-5.9487,-5.6517,-5.1256,-5.015,-4.9789,0.0,0.0,0.0,0.0,0.0,0.0,0.0,0.0,0.0,0.0,0.0,0.0,0.0,0.0,0.0,0.0,0.0,0.0,0.0,0.0,0.0,0.0,0.0,0.0,-5.5351,-5.4258,-5.453,-5.6473,-5.566,-5.5564,-5.6173,-5.7271,-5.7074,-5.5807,-5.5738,-5.5895,-5.6319,-5.7703,-5.8511,-5.8934,-6.0242,-6.0012,-5.8934,-5.9858,-6.0242,-6.0204,-6.0127,-6.0089,-6.0012,-2.7343,-2.9313,-3.1154,-3.1586,0.0,0.0,0.0,-3.9174,0.0,-4.8789,0.0,-5.3281,-5.6015,-5.8867,-6.0312,-5.9765,0.0,-5.8084,-5.5136,-5.7536,-5.8473,-5.7164,-5.917,-6.0788,-6.168,-5.7342,-5.144,0.0,0.0,-3.2897,-2.5561,-2.5176,-2.4659,-2.4206,-2.651,-3.0946,-3.758,-5.0933,-5.537,-5.4006,-6.0428,-6.3008,-6.3047,-6.3398,-6.4922,-6.6914,-6.6914,-6.6914,-6.6914,-6.6914,-6.6914,-6.6914,-6.6914,-6.6914,-6.6914,-6.6914,-6.6914,-6.6875,-6.6758,-6.6094,-6.539,-6.5273,-6.4023,-6.164,-5.7102,-5.5457,-5.4706,-5.3949,-5.0787,-4.9752,0.0,0.0,0.0,0.0,0.0,0.0,0.0,0.0,0.0,0.0,0.0,0.0,0.0,0.0,0.0,0.0,0.0,0.0,0.0,0.0,0.0,-5.4179,-5.285,0.0,-5.5842,0.0,-5.4767,-5.5451,-5.7495,-5.7486,-5.5703,-5.5818,-5.6291,-5.706,-5.8011,-5.8858,-5.9588,-6.0435,-6.0358,-5.9665,-5.955,-5.9588,-5.9742,-6.0512,-6.0781,-6.0781,-2.9204,-3.1066,-3.2331,-3.1028,0.0,-4.0987,-4.5254,-4.6394,-4.8589,-5.3515,-5.5703,-5.8008,-6.1289,-6.1523,-6.1719,-6.2265,-6.1015,0.0,0.0,0.0,0.0,-6.0741,-6.1006,-6.1276,-6.168,-5.6638,-5.1263,0.0,0.0,-3.1997,-2.6414,-2.4237,-2.3548,-2.4168,-2.5274,-3.1787,-4.2311,-4.7887,0.0,-5.8172,-6.1638,-6.3008,-6.3242,-6.539,-6.6484,-6.6914,-6.6914,-6.6914,-6.6914,-6.6914,-6.6914,-6.6914,-6.6914,-6.6914,-6.6914,-6.6914,-6.6914,-6.6758,-6.6015,-6.5195,-6.4375,-6.3633,-6.2695,-6.168,-6.0781,-6.0429,-6.0507,-6.1013,-5.9998,-5.8004,-5.4909,0.0,0.0,0.0,0.0,0.0,0.0,0.0,0.0,0.0,0.0,0.0,0.0,0.0,0.0,0.0,0.0,0.0,0.0,0.0,0.0,0.0,0.0,0.0,0.0,0.0,-5.6082,-5.2968,-5.6607,-5.7412,-5.5703,-5.6445,-5.6868,-5.7099,-5.8627,-5.9358,-5.9588,-6.0435,-6.0704,-6.0512,-5.9781,-5.9935,-6.0589,-6.0742,-6.0781,-6.0781,-3.2747,-3.3743,-3.5012,-3.6309,0.0,0.0,0.0,-5.3469,0.0,-5.5937,-5.6719,-5.8008,-6.0117,-6.1562,-6.2344,-6.2344,-6.1562,-6.1055,-6.1015,-6.101,-6.1204,-6.168,-6.1579,0.0,-6.2344,-5.94,-5.3797,-4.5476,0.0,-3.4396,-2.5321,-2.4049,-2.3471,-2.3633,-2.8517,-3.4438,0.0,0.0,0.0,-5.8767,-6.324,-6.5039,-6.5156,-6.6406,-6.6914,-6.6914,-6.6914,-6.6914,-6.6914,-6.6914,-6.6914,-6.6914,-6.6914,-6.6914,-6.6797,-6.6367,-6.6211,-6.6055,-6.5156,-6.4297,-6.3515,-6.3086,-6.2695,-6.2383,-6.2383,-6.2734,-6.3281,-6.418,-6.3672,-6.1171,-5.5031,-4.7135,0.0,0.0,0.0,0.0,0.0,0.0,0.0,0.0,0.0,0.0,0.0,0.0,0.0,0.0,0.0,0.0,0.0,0.0,0.0,0.0,0.0,0.0,0.0,0.0,0.0,-5.484,-5.6734,-5.6934,-5.5703,-5.6126,-5.6819,-5.7703,-5.855,-5.9358,-6.0204,-6.0627,-6.0781,-6.0742,-6.0319,-6.0435,-6.0781,-6.0781,-6.0781,-6.0781,-3.6899,-3.7035,-3.8293,-4.2455,-4.6532,0.0,-5.37,-5.8631,-6.1015,-5.832,-5.7969,-5.8359,-5.9414,-6.1601,-6.2812,-6.2305,-6.1914,-6.1406,-6.0703,-6.1328,-6.1719,-6.1719,-6.1875,-6.2305,-6.3008,-6.25,-5.7145,0.0,0.0,0.0,-2.5717,-2.4426,-2.4358,-2.5579,0.0,0.0,0.0,0.0,-5.8387,-6.0187,-6.5155,-6.7187,-6.7187,-6.7187,-6.7187,-6.7148,-6.6953,-6.6914,-6.6914,-6.6914,-6.6914,-6.6914,-6.6914,-6.6758,-6.6484,-6.5781,-6.5469,-6.5117,-6.4258,-6.3515,-6.3008,-6.3008,-6.3008,-6.3047,-6.3242,-6.3828,-6.4531,-6.543,-6.5039,-6.2382,-5.5226,-5.0167,0.0,0.0,0.0,0.0,0.0,0.0,0.0,0.0,0.0,0.0,0.0,0.0,0.0,0.0,0.0,0.0,0.0,0.0,0.0,0.0,0.0,-5.2913,-5.5152,0.0,-5.5041,0.0,-5.6801,-5.656,-5.5703,-5.5895,-5.6819,-5.8319,-5.8473,-5.9511,-6.1089,-6.1089,-6.1166,-6.132,-6.1127,-6.1089,-6.1089,-6.1089,-6.0973,-6.0819,-4.1182,-4.106,0.0,0.0,0.0,0.0,-5.4765,-5.957,-6.2773,-6.2422,-6.2383,-6.3047,-6.4687,-6.375,-6.3281,-6.3984,-6.2617,-6.168,-6.1562,-6.164,-6.1719,-6.1719,-6.2461,-6.293,-6.3008,-6.3672,-6.0428,0.0,0.0,-3.9265,-3.1064,-2.5514,-2.6656,0.0,0.0,0.0,0.0,-5.6082,-6.0269,-6.6172,-6.7539,-6.8086,-6.8086,-6.8086,-6.8086,-6.7969,-6.7187,-6.6914,-6.6914,-6.6914,-6.6914,-6.6914,-6.6914,-6.6367,-6.5703,-6.5625,-6.5039,-6.4219,-6.3359,-6.3047,-6.3008,-6.3008,-6.3008,-6.3203,-6.3984,-6.4258,-6.4531,-6.543,-6.5547,-6.3125,-5.5343,-5.6536,-5.5348,0.0,0.0,0.0,0.0,0.0,-4.6717,0.0,0.0,0.0,0.0,0.0,0.0,0.0,0.0,0.0,0.0,0.0,0.0,-4.8974,0.0,-4.8415,-4.7017,-5.355,0.0,-5.376,-5.5961,-5.656,-5.5742,-5.6522,-5.7396,-5.8357,-5.9088,-6.0358,-6.1985,-6.1985,-6.2397,-6.3012,-6.2243,-6.1985,-6.1985,-6.1985,-6.1485,-6.0896,0.0,0.0,0.0,0.0,0.0,0.0,0.0,-6.1328,-6.3203,-6.3711,-6.4258,-6.4844,-6.5508,-6.4492,-6.3711,-6.3515,-6.2383,-6.1719,-6.1719,-6.1719,-6.1719,-6.1719,-6.2539,-6.3242,-6.3789,-6.4101,-6.1405,0.0,0.0,0.0,-3.4114,-3.1685,-3.4205,0.0,0.0,-5.1309,-5.6834,-6.0975,-6.4335,-6.6992,-6.7851,-6.8203,-6.8203,-6.8203,-6.8203,-6.8086,-6.7226,-6.6914,-6.6914,-6.6914,-6.6914,-6.6797,-6.6289,-6.5898,-6.539,-6.4336,-6.3789,-6.332,-6.2461,-6.2617,-6.3008,-6.3008,-6.3789,-6.4648,-6.5,-6.5469,-6.5976,-6.6328,-6.5976,-6.4648,-6.1483,-5.8468,-5.6193,0.0,0.0,0.0,0.0,0.0,0.0,0.0,0.0,0.0,0.0,0.0,0.0,0.0,0.0,0.0,0.0,0.0,0.0,-4.327,0.0,-5.2227,-4.8347,-5.4219,-5.6698,-5.5706,-5.6058,-5.6049,-5.5703,-5.6049,-5.6973,-5.8357,-5.9165,-6.0473,-6.2101,-6.2101,-6.2551,-6.3281,-6.2935,-6.282,-6.282,-6.282,-6.2589,-6.2358,-5.2606,0.0,-5.1718,0.0,-5.6599,-5.6992,-6.1406,-6.3047,-6.3984,-6.4609,-6.543,-6.5976,-6.5976,-6.4961,-6.4062,-6.3437,-6.2344,-6.1719,-6.1719,-6.1719,-6.1797,-6.207,-6.293,0.0,-6.4297,-6.4805,-6.3007,-5.8784,-5.2317,0.0,-4.1011,-3.9231,-4.1932,0.0,-5.4052,-5.7652,-5.9961,-6.4844,-6.7031,-6.7344,-6.8203,-6.8711,-6.8906,-6.8672,-6.8555,-6.8398,-6.7305,-6.6914,-6.6914,-6.6914,-6.6914,-6.6758,-6.5859,-6.543,-6.4922,-6.3437,-6.2812,-6.2539,-6.2187,-6.2539,-6.3125,-6.3633,-6.4492,-6.5351,-6.5859,-6.625,-6.6601,-6.6836,-6.6406,-6.5898,-6.5664,-6.0858,-5.7691,-5.996,0.0,0.0,0.0,0.0,0.0,0.0,-5.0234,-4.7461,-4.6601,0.0,0.0,0.0,0.0,0.0,0.0,0.0,0.0,0.0,0.0,0.0,0.0,-5.4472,-5.6944,-5.7116,-5.6154,-5.5818,-5.6088,-5.6588,-5.7473,-5.8704,-5.9781,-6.1089,-6.2474,-6.2743,-6.332,-6.4051,-6.3782,-6.3666,-6.3666,-6.3666,-6.3512,-6.3346,-5.5703,-5.4453,-5.4531,-6.0586,-6.0234,-6.0,-6.2578,-6.4453,-6.5586,-6.5586,-6.6328,-6.6875,-6.6875,-6.5351,-6.4297,-6.4297,-6.2695,-6.1719,-6.1719,-6.1719,-6.207,0.0,0.0,-6.4297,-6.4297,-6.5976,-6.5976,-6.4219,0.0,0.0,-5.3546,-4.751,-4.8876,-5.6356,-5.6473,-6.0348,-6.6797,-6.6875,-6.7383,-6.8242,-6.9062,-6.9883,-7.0586,-6.9805,-6.9453,-6.918,-6.75,-6.6914,-6.6914,-6.6914,-6.6914,-6.6758,-6.5859,-6.5,-6.414,-6.3242,-6.2383,-6.1914,-6.2734,-6.3008,-6.3398,-6.5156,-6.4922,-6.4765,-6.6484,-6.6211,-6.5859,-6.6719,-6.6875,-6.6601,-6.5742,-6.4805,-6.1952,-5.5109,0.0,0.0,0.0,0.0,0.0,-5.0781,-4.1953,-3.9883,-4.9219,0.0,0.0,0.0,0.0,0.0,0.0,0.0,0.0,-4.8633,-4.9583,0.0,-4.9704,-5.3814,-5.6268,-5.6983,-5.6137,-5.6137,-5.706,-5.8704,-5.9473,-5.9588,-6.132,-6.2512,-6.3346,-6.4205,-6.5089,-6.5782,-6.4936,-6.4589,-6.4589,-6.4589,-6.4051,-6.3423,-5.9687,-5.9883,-6.0312,-6.2265,-6.2656,-6.2969,-6.375,-6.4844,-6.5586,-6.5586,-6.6367,-6.6914,-6.6914,-6.5351,-6.4062,0.0,-6.2344,-6.1719,0.0,-6.1719,-6.2109,-6.2969,-6.3828,-6.457,-6.5156,-6.6328,-6.664,-6.6055,0.0,0.0,0.0,-5.4551,-5.7215,-6.3593,-6.3593,-6.4804,-6.6953,-6.7539,-6.7969,-6.832,-6.9726,-7.0469,-7.0625,-6.9805,-6.9492,-6.9258,-6.7539,-6.6914,-6.6914,-6.6914,-6.6914,-6.6758,-6.5859,-6.539,-6.5039,-6.414,-6.3672,-6.3515,-6.3828,-6.3906,-6.4023,-6.457,-6.4492,-6.4609,-6.5742,-6.625,-6.6562,-6.6836,-6.6914,-6.6836,-6.6523,-6.5781,-6.4258,-6.1444,-6.1875,0.0,0.0,0.0,0.0,-5.4062,-4.9961,-4.8594,0.0,-4.3945,0.0,0.0,0.0,0.0,0.0,0.0,0.0,0.0,-5.0514,0.0,-4.8849,-5.3434,-5.6182,-5.6983,-5.6714,-5.7049,-5.7896,-5.8434,-5.8973,-5.955,-6.0704,-6.2012,-6.3346,-6.4243,-6.5128,-6.5859,-6.559,-6.5474,-6.5474,-6.5474,-6.532,-6.5128,-6.1484,-6.2383,-6.3086,-6.3437,-6.4219,-6.4805,-6.4805,-6.5547,-6.6094,-6.6094,-6.6562,-6.6914,-6.6914,-6.5625,0.0,-6.3555,-6.2695,-6.2031,-6.1719,-6.1719,-6.2226,-6.3437,-6.4023,-6.4726,-6.5586,0.0,0.0,-6.6406,-6.2927,-6.1206,-6.1206,-6.1206,-6.324,-6.6914,-6.6914,-6.6914,-6.6953,-6.7812,-6.8359,-6.8789,-7.0156,-7.0703,-7.0625,-6.9765,-6.9258,-6.8828,-6.7422,-6.6914,-6.6914,-6.6914,-6.6914,-6.6797,-6.625,-6.6094,-6.5859,-6.4648,-6.4297,-6.4297,-6.4297,-6.4297,-6.4297,-6.4297,-6.4062,-6.4023,-6.4922,-6.5781,-6.6484,-6.6836,-6.6914,-6.6914,-6.6914,-6.6172,-6.5312,-6.4453,-6.3555,-6.2461,-6.0976,0.0,0.0,0.0,0.0,0.0,0.0,-4.8047,0.0,0.0,0.0,0.0,0.0,0.0,0.0,-4.7422,-5.3419,0.0,-5.1369,-5.4541,-5.6483,-5.7022,-5.7638,-5.8204,-5.8781,-5.9088,-5.9511,-6.005,-6.1243,-6.232,-6.3397,-6.4589,-6.5397,-6.5897,-6.5897,-6.5897,-6.5897,-6.5897,-6.5897,-6.5859,-6.1367,-6.2461,0.0,0.0,-6.5078,0.0,-6.5703,-6.6367,-6.6914,-6.6914,-6.6914,-6.6914,-6.6914,-6.6172,-6.5312,-6.4375,0.0,0.0,0.0,-6.1758,-6.2539,-6.4219,-6.4375,-6.4805,-6.5664,-6.6484,-6.6484,-6.5703,-6.6484,-6.6914,-6.6914,-6.6914,-6.6914,-6.6914,-6.6914,-6.6914,-6.6953,-6.789,-6.8711,-6.9492,-7.0351,-7.0703,-7.0586,-6.9687,-6.8867,-6.8086,-6.7226,-6.6914,-6.6914,-6.6914,-6.6914,-6.6914,-6.6914,-6.6914,-6.6562,-6.4961,-6.4492,-6.4453,-6.4414,-6.4336,-6.4297,-6.4219,-6.3594,-6.3242,-6.4101,-6.4961,-6.5859,-6.6719,-6.6914,-6.6875,-6.6836,-6.6211,-6.5351,-6.4375,-6.3476,-6.2031,-5.9531,0.0,0.0,0.0,0.0,0.0,0.0,-4.9883,-5.1914,0.0,0.0,0.0,0.0,0.0,-4.6797,-5.7656,-5.7684,-5.7131,-5.6386,-5.6857,-5.7137,-5.7176,-5.8819,-5.9588,-5.9627,-6.0435,-6.0781,-6.0896,-6.2589,-6.3308,-6.3435,-6.5166,-6.5897,-6.5897,-6.5897,-6.5897,-6.5897,-6.5897,-6.5897,-6.5782,0.0,0.0,-6.4062,-6.4258,-6.5586,-6.6601,-6.6601,-6.6758,-6.6914,-6.6914,-6.6914,-6.6914,-6.6914,-6.6719,-6.5976,-6.4414,-6.3515,-6.2617,-6.1758,-6.2305,-6.3164,-6.4258,-6.4922,-6.5703,-6.6562,-6.6797,-6.6797,-6.6601,-6.6797,-6.6914,-6.6914,-6.6914,-6.6914,-6.6914,-6.6914,-6.6914,-6.6992,-6.8555,-6.9258,-6.9492,-7.0351,-7.0703,-7.0547,-6.9062,-6.8359,-6.8086,-6.7226,-6.6914,-6.6914,-6.6914,-6.6914,-6.6914,-6.6914,-6.6914,-6.6836,-6.6406,-6.6289,-6.6133,-6.5469,-6.4805,-6.414,-6.3476,-6.3164,-6.3242,-6.4101,-6.4961,-6.5859,-6.6719,-6.6914,-6.6719,-6.6015,-6.6289,-6.5859,-6.3672,-6.2578,-6.1367,-5.9453,-5.7461,0.0,0.0,-5.3203,-5.3125,-5.4023,-5.4492,-5.3555,0.0,0.0,0.0,0.0,-4.9258,-5.1406,-5.8672,-5.8581,-5.8298,-5.8098,-5.8017,-5.8319,-5.8934,-5.9973,-6.0473,-6.0512,-6.0704,-6.0781,-6.0896,-6.2589,-6.3308,-6.3435,-6.5166,-6.5897,-6.5897,-6.5897,-6.5897,-6.5897,-6.5897,-6.5897,-6.5782,-6.1367,-6.2773,-6.3945,-6.4765,-6.5664,-6.6445,-6.6836,-6.6832,-6.6789,-6.6875,-6.6831,-6.6789,-6.6875,-6.6914,-6.6211,-6.4453,-6.3867,-6.3203,-6.2344,-6.2734,-6.3555,-6.4844,-6.5351,-6.6015,-6.6875,-6.6914,-6.6914,-6.6914,-6.6914,-6.6914,-6.6914,-6.6914,-6.6914,-6.6914,-6.6914,-6.7109,-6.7578,-6.8906,-6.9648,-7.0039,-7.0508,-7.0469,-6.9961,-6.8672,-6.7969,-6.7539,-6.707,-6.6914,-6.6953,-6.7344,-6.75,-6.7578,-6.7969,-6.8086,-6.8047,-6.8047,-6.7226,-6.6133,-6.5234,-6.4375,-6.3515,-6.2617,-6.2695,-6.3125,-6.3594,-6.4375,-6.5156,-6.5625,-6.5703,-6.5586,-6.5078,-6.539,-6.5117,-6.3281,-6.1914,-6.0664,-5.9375,-5.7305,0.0,-5.6445,-5.6055,-5.6133,-5.6992,-5.7148,-5.6015,-5.3125,0.0,0.0,-5.3594,-5.4414,-5.6211,-5.9101,-5.8928,-5.8776,-5.8776,-5.8908,-5.9567,-6.0704,-6.0742,-6.1012,-6.1358,-6.0973,-6.1012,-6.1473,-6.2743,-6.3551,-6.4012,-6.5359,-6.5897,-6.5897,-6.5897,-6.5897,-6.5897,-6.5897,-6.5628,-6.5166,-6.1406,-6.2383,-6.3476,-6.4961,-6.543,-6.5859,-6.6561,-6.6616,-6.6678,-6.6833,-6.6692,-6.6683,-6.6874,-6.6914,-6.6211,-6.4453,-6.4414,-6.4062,-6.3086,-6.3125,-6.3906,-6.5547,-6.5742,-6.6133,-6.6875,-6.6914,-6.6914,-6.6914,-6.6914,-6.6914,-6.6914,-6.6914,-6.6914,-6.6914,-6.6914,-6.7383,-6.8242,-6.9062,-6.9883,-7.0703,-7.0703,-7.0273,-6.9492,-6.8555,-6.7734,-6.707,-6.6953,-6.6992,-6.7226,-6.7969,-6.8281,-6.8515,-6.9258,-6.9453,-6.9375,-6.9258,-6.7578,-6.5625,-6.4883,-6.3867,-6.2773,-6.1914,-6.2265,-6.2851,-6.2969,-6.3555,-6.414,-6.4258,-6.4297,-6.4258,-6.414,-6.4219,-6.3711,-6.1914,-6.0742,-5.9531,-5.8203,0.0,-5.6797,-5.7773,-5.8008,-5.8398,-5.914,-5.8515,-5.8398,-5.914,-5.8515,-5.8437,0.0,-5.9961,-6.0078,-5.9414,-5.9314,-5.9271,-5.9205,-5.9742,-6.0645,-6.1908,-6.1127,-6.1166,-6.187,-6.1127,-6.1204,-6.1947,-6.2897,-6.3743,-6.4474,-6.5474,-6.5897,-6.5897,-6.5897,-6.582,-6.5705,-6.5859,-6.5359,-6.4474,-6.1484,-6.2383,-6.3086,-6.3359,-6.4609,-6.5583,-6.5548,-6.6157,-6.6622,-6.6634,-6.6625,-6.6683,-6.6874,-6.6914,-6.6211,-6.4453,-6.4961,-6.4726,-6.3125,-6.3672,-6.4531,-6.5547,-6.6328,-6.6758,-6.6914,-6.6914,-6.6914,-6.6914,-6.6914,-6.6914,-6.6914,-6.6914,-6.6914,-6.6914,-6.6914,-6.7383,-6.8242,-6.9062,-6.9883,-7.0703,-7.0703,-7.0625,-7.0312,-6.8789,-6.8125,-6.789,-6.7148,-6.7383,-6.8008,-6.8164,-6.8633,-6.9258,-6.9453,-6.9492,-6.9336,-6.8594,-6.7578,-6.668,-6.6523,-6.4805,-6.2773,-6.1914,-6.1797,-6.2109,-6.2812,-6.3086,-6.3398,-6.414,-6.4297,-6.4062,-6.3359,-6.3789,-6.2344,-5.6367,-5.7031,-5.6953,-5.3164,0.0,-5.6094,-5.7695,-5.8555,-5.9062,-5.918,-5.9062,-5.9062,-5.918,-5.9062,-5.9062,-5.918,-5.9961,-6.0351,-6.0234,-6.0796,-6.0954,-6.0678,-6.0769,-6.0877,-6.1012,-6.0858,-6.0858,-6.1012,-6.0858,-6.0858,-6.1089,-6.2627,-6.3397,-6.3628,-6.5243,-6.5897,-6.5897,-6.5897,-6.5436,-6.4897,-6.5628,-6.5359,-6.4589,-6.1523,-6.2031,-6.2461,-6.293,-6.3627,-6.4234,-6.4593,-6.5192,-6.5695,-6.5943,-6.626,-6.6596,-6.6874,-6.6914,-6.6211,-6.4453,-6.5117,-6.5078,-6.3789,-6.4531,-6.539,-6.625,-6.668,-6.6914,-6.6914,-6.6914,-6.6914,-6.6914,-6.6914,-6.6914,-6.6914,-6.6914,-6.6914,-6.6914,-6.7383,-6.8086,-6.8945,-6.9765,-7.0586,-7.1367,-7.0898,-7.0703,-7.0586,-6.9375,-6.8867,-6.8789,-6.8398,-6.8515,-6.8906,-6.9375,-6.9805,-7.0195,-7.0703,-7.0508,-7.0078,-6.9648,-6.7969,-6.5976,-6.5039,-6.3906,-6.2773,-6.1914,-6.2031,-6.2383,-6.2305,-6.2656,-6.2969,-6.289,-6.289,-6.2773,-6.2383,-6.2617,-6.1719,-5.8047,-5.8086,-5.8047,-5.6484,-5.6914,-5.8047,-5.9726,-6.0312,-6.0547,-6.0547,-6.0117,-5.9844,-5.9844,-5.9453,-5.9375,-5.9805,-6.0195,-6.0625,-6.1094,-6.144,-6.1452,-6.1172,-6.1165,-6.1277,-6.1473,-6.1012,-6.105,-6.1473,-6.1012,-6.105,-6.155,-6.232,-6.2897,-6.3385,-6.4666,-6.5205,-6.5243,-6.5705,-6.5628,-6.5359,-6.5743,-6.5359,-6.4589,-6.1562,-6.1719,-6.1914,-6.2578,-6.2755,-6.3023,-6.3623,-6.4377,-6.4962,-6.5281,-6.5986,-6.6568,-6.6874,-6.6719,-6.6055,-6.4726,-6.5195,-6.5312,-6.4648,-6.543,-6.6211,-6.6875,-6.6914,-6.6914,-6.6914,-6.6914,-6.6914,-6.6914,-6.6914,-6.6914,-6.6914,-6.7109,-6.7187,-6.7226,-6.8125,-6.8984,-6.9805,-7.043,-7.1211,-7.1953,-7.1289,-7.1015,-7.0898,-7.0078,-6.9765,-6.9687,-6.9453,-6.9531,-6.9805,-7.0469,-7.082,-7.1133,-7.1797,-7.1406,-7.0664,-7.0469,-6.8281,-6.5508,-6.3789,-6.3281,-6.3047,-6.1953,-6.2187,-6.2539,-6.1836,-6.2226,-6.25,-6.1836,-6.1719,-6.1719,-6.1719,-6.1719,-6.1094,-5.9219,0.0,-5.914,-5.8945,-5.9062,-5.9805,-6.1484,-6.1719,-6.1719,-6.1719,-6.1094,-6.0703,-6.0703,-6.0117,-6.0039,-6.0664,-6.0703,-6.1015,-6.168,-6.1719,-6.1577,-6.1289,-6.1283,-6.1454,-6.1793,-6.1127,-6.1127,-6.1793,-6.1089,-6.1166,-6.1831,-6.2024,-6.2551,-6.3346,-6.4243,-6.482,-6.5243,-6.5705,-6.5897,-6.5897,-6.5897,-6.5359,-6.4628,-6.168,-6.1719,-6.1719,-6.1797,-6.2365,-6.2765,-6.2641,-6.4013,-6.5103,-6.5127,-6.597,-6.6678,-6.6874,-6.6172,-6.5625,-6.5508,-6.5547,-6.5586,-6.5508,-6.6328,-6.6836,-6.6914,-6.6914,-6.6914,-6.6914,-6.6914,-6.6914,-6.6914,-6.6914,-6.6914,-6.6914,-6.7734,-6.8086,-6.8125,-6.9023,-6.9844,-7.0625,-7.0664,-7.1211,-7.1992,-7.1914,-7.1914,-7.1797,-7.0937,-7.0625,-7.0508,-6.9687,-6.9922,-7.0625,-7.0664,-7.125,-7.1914,-7.1992,-7.1406,-7.0547,-6.9805,-6.8281,-6.6406,-6.4687,-6.4219,-6.3789,-6.2109,-6.1758,-6.1797,-6.1719,-6.1758,-6.1797,-6.1719,-6.1719,-6.1719,-6.1719,-6.1719,-6.0117,-5.5273,0.0,0.0,-5.4922,-5.7187,-5.9805,-6.1484,-6.1719,-6.1719,-6.1719,-6.164,-6.1601,-6.1601,-6.1562,-6.1523,-6.1601,-6.1601,-6.164,-6.1719,-6.1719,-6.1577,-6.1289,-6.1283,-6.1143,-6.0896,-6.0819,-6.0819,-6.0896,-6.0819,-6.0819,-6.0935,-6.1755,-6.2551,-6.3346,-6.4243,-6.5513,-6.6859,-6.6167,-6.5897,-6.5897,-6.5897,-6.5359,-6.4705,-6.1719,-6.1719,-6.1719,-6.1719,-6.1857,-6.2099,-6.2429,-6.3501,-6.4486,-6.5031,-6.597,-6.6488,-6.6132,-6.5781,-6.539,-6.4844,-6.5273,-6.5586,-6.5586,-6.6406,-6.6914,-6.6914,-6.6914,-6.6914,-6.6914,-6.6914,-6.6914,-6.6914,-6.6914,-6.7187,-6.7695,-6.8047,-6.8476,-6.8984,-6.9844,-7.039,-7.0742,-7.1289,-7.1719,-7.1992,-7.1992,-7.1992,-7.1953,-7.164,-7.1523,-7.1445,-7.1133,-7.1211,-7.1523,-7.1523,-7.1719,-7.1914,-7.1367,-7.0586,-6.9648,-6.8281,-6.7422,-6.664,-6.543,-6.4726,-6.4023,-6.2812,-6.2109,-6.1719,-6.1719,-6.1719,-6.1719,-6.1719,-6.1719,-6.1719,-6.1719,-6.1719,-6.0898,-5.8398,0.0,-6.0117,-5.8242,-5.957,-6.0976,-6.1601,-6.1719,-6.1719,-6.1719,-6.1719,-6.1719,-6.1719,-6.1719,-6.1719,-6.1719,-6.1719,-6.1719,-6.1719,-6.1631,-6.1495,-6.1289,-6.1283,-6.1143,-6.0781,-6.0781,-6.0781,-6.0781,-6.0781,-6.0781,-6.0858,-6.1716,-6.2293,-6.2666,-6.4012,-6.4974,-6.5551,-6.582,-6.5897,-6.5897,-6.5897,-6.5705,-6.5436,-6.1719,-6.1719,-6.1719,-6.1719,-6.1818,-6.207,-6.2533,-6.358,-6.4515,-6.5104,-6.5826,-6.6115,-6.5664,-6.5351,-6.5078,-6.4726,-6.5234,-6.5703,-6.5976,-6.6562,-6.6914,-6.6914,-6.6914,-6.6914,-6.6914,-6.6914,-6.6914,-6.6914,-6.7187,-6.7617,-6.8203,-6.875,-6.9297,-6.9844,-7.0703,-7.1094,-7.1133,-7.1758,-7.1992,-7.1992,-7.1992,-7.1992,-7.1992,-7.1992,-7.1992,-7.1992,-7.1992,-7.1992,-7.1992,-7.1992,-7.1992,-7.1836,-7.0976,-6.9922,-6.875,-6.7305,-6.6914,-6.6758,-6.6172,-6.5351,-6.4414,-6.3281,-6.2539,-6.2031,-6.1758,-6.1719,-6.1719,-6.1719,-6.1719,-6.1719,-6.1719,-6.1719,-6.1484,-6.0898,-6.1328,-6.1484,-6.0898,-6.1328,-6.1719,-6.1719,-6.1719,-6.1719,-6.1719,-6.1719,-6.1719,-6.1719,-6.1719,-6.1719,-6.1719,-6.1719,-6.1719,-6.1719,-6.1577,-6.1474,-6.1354,-6.1265,-6.1079,-6.0781,-6.0781,-6.0935,-6.1204,-6.1204,-6.1358,-6.1627,-6.2204,-6.2627,-6.2974,-6.4128,-6.4897,-6.5436,-6.5782,-6.6051,-6.6244,-6.5974,-6.5897,-6.5897,-6.1719,-6.1719,-6.1719,-6.1719,-6.2326,-6.2795,-6.2795,-6.4281,-6.5373,-6.5412,-6.5498,-6.5586,-6.5586,-6.4805,-6.4648,-6.5508,-6.5586,-6.5976,-6.6836,-6.6914,-6.6914,-6.6914,-6.6914,-6.6914,-6.6914,-6.6914,-6.6914,-6.6914,-6.7773,-6.8203,-6.8242,-6.9922,-7.0703,-7.0742,-7.1601,-7.1992,-7.1992,-7.1992,-7.1992,-7.1992,-7.1992,-7.1992,-7.1992,-7.1992,-7.1992,-7.1992,-7.1992,-7.1992,-7.1992,-7.1992,-7.1992,-7.1836,-7.0976,-6.9531,-6.8008,-6.7148,-6.6914,-6.6914,-6.6914,-6.6289,-6.5195,-6.3437,-6.3008,-6.2773,-6.1914,-6.1719,-6.1719,-6.1719,-6.1719,-6.1719,-6.1719,-6.1719,-6.1719,-6.1719,-6.1719,-6.1719,-6.1719,-6.1719,-6.1719,-6.1719,-6.1719,-6.1719,-6.1719,-6.1719,-6.1719,-6.1719,-6.1719,-6.1719,-6.1719,-6.1719,-6.1719,-6.1719,-6.1577,-6.1504,-6.1504,-6.1168,-6.0916,-6.0793,-6.0819,-6.1243,-6.2101,-6.2101,-6.2551,-6.3308,-6.3308,-6.382,-6.4589,-6.4628,-6.559,-6.7013,-6.6205,-6.6397,-6.6974,-6.6205,-6.5897,-6.5897,-6.1719,-6.1719,-6.1719,-6.1719,-6.2381,-6.3113,-6.3617,-6.4236,-6.4792,-6.5259,-6.495,-6.4687,-6.4687,-6.4453,-6.4648,-6.5508,-6.5586,-6.5976,-6.6836,-6.6914,-6.6914,-6.6914,-6.6914,-6.6914,-6.6914,-6.6914,-6.6914,-6.6914,-6.7773,-6.8476,-6.9062,-7.0195,-7.1015,-7.1601,-7.1875,-7.1992,-7.1992,-7.1992,-7.1992,-7.1992,-7.1992,-7.1992,-7.1992,-7.1992,-7.1992,-7.1992,-7.1992,-7.1992,-7.1992,-7.1992,-7.1601,-7.0859,-6.9414,-6.8164,-6.7226,-6.6992,-6.6914,-6.6914,-6.6914,-6.6719,-6.625,-6.5117,-6.4375,-6.3672,-6.2812,-6.2617,-6.2422,-6.1836,-6.1719,-6.1719,-6.1719,-6.1719,-6.1719,-6.1719,-6.1719,-6.1719,-6.1719,-6.1719,-6.1719,-6.1719,-6.1719,-6.1719,-6.1719,-6.1719,-6.1719,-6.1719,-6.1719,-6.1719,-6.1719,-6.1719,-6.1719,-6.1719,-6.1577,-6.1504,-6.1504,-6.1168,-6.0961,-6.0964,-6.1461,-6.187,-6.2139,-6.2666,-6.3089,-6.3308,-6.3935,-6.4359,-6.4666,-6.5243,-6.582,-6.6244,-6.5974,-6.6051,-6.6244,-6.5974,-6.5897,-6.5897,-6.1629,-6.1631,-6.1634,-6.1679,-6.2422,-6.3163,-6.3613,-6.4019,-6.4452,-6.4862,-6.4566,-6.4297,-6.4297,-6.4609,-6.5039,-6.5547,-6.5937,-6.6328,-6.6875,-6.6914,-6.6914,-6.6914,-6.6914,-6.6914,-6.6914,-6.6914,-6.707,-6.7422,-6.8281,-6.914,-6.9922,-7.082,-7.1484,-7.1992,-7.1992,-7.1797,-7.1484,-7.1484,-7.1289,-7.1015,-7.1367,-7.1484,-7.1523,-7.1875,-7.1992,-7.1992,-7.1992,-7.1992,-7.1953,-7.1601,-7.0703,-6.9531,-6.8515,-6.7617,-6.6914,-6.6914,-6.6914,-6.6914,-6.6914,-6.6914,-6.6758,-6.625,-6.5469,-6.4492,-6.3281,-6.3008,-6.2734,-6.1875,-6.1719,-6.1719,-6.1719,-6.1719,-6.1719,-6.1719,-6.1719,-6.1719,-6.1719,-6.1719,-6.1719,-6.1719,-6.1719,-6.1719,-6.1719,-6.1719,-6.1719,-6.1719,-6.1719,-6.1719,-6.1719,-6.1719,-6.1719,-6.1719,-6.1889,-6.1869,-6.158,-6.1862,-6.1849,-6.153,-6.1891,-6.2447,-6.3089,-6.3589,-6.4012,-6.4359,-6.4897,-6.5128,-6.5166,-6.5667,-6.5897,-6.5897,-6.5897,-6.5897,-6.5897,-6.5897,-6.5897,-6.5897,-6.1474,-6.1498,-6.1525,-6.1677,-6.2422,-6.3008,-6.3008,-6.3672,-6.418,-6.418,-6.418,-6.4219,-6.4297,-6.5078,-6.5625,-6.5703,-6.6445,-6.6914,-6.6914,-6.6914,-6.6914,-6.6914,-6.6914,-6.6914,-6.6914,-6.6992,-6.7422,-6.8203,-6.914,-6.9961,-7.0703,-7.1601,-7.1992,-7.1992,-7.1914,-7.1445,-7.0703,-7.0625,-7.0195,-6.9609,-7.039,-7.0742,-7.0898,-7.1719,-7.1992,-7.1992,-7.1992,-7.1992,-7.1875,-7.0898,-6.9531,-6.8203,-6.8125,-6.7539,-6.6914,-6.6914,-6.6914,-6.6914,-6.6914,-6.6914,-6.6914,-6.6914,-6.6289,-6.5273,-6.3515,-6.3125,-6.2851,-6.1914,-6.1719,-6.1719,-6.1719,-6.1719,-6.1719,-6.1719,-6.1719,-6.1719,-6.1719,-6.1719,-6.1719,-6.1719,-6.1719,-6.1719,-6.1719,-6.1719,-6.1719,-6.1719,-6.1719,-6.1719,-6.1719,-6.1719,-6.1719,-6.1719,-6.2441,-6.2517,-6.1836,-6.3013,-6.3201,-6.2331,-6.2326,-6.3128,-6.4589,-6.4666,-6.5166,-6.5897,-6.5897,-6.5897,-6.5897,-6.5897,-6.5897,-6.5897,-6.5897,-6.5897,-6.5897,-6.5897,-6.5897,-6.5897,-6.1328,-6.1413,-6.1509,-6.1522,-6.2336,-6.3008,-6.3008,-6.3164,-6.3281,-6.3281,-6.3281,-6.3555,-6.4219,-6.5078,-6.5859,-6.6562,-6.6797,-6.6914,-6.6914,-6.6914,-6.6914,-6.6914,-6.6914,-6.6914,-6.6914,-6.7578,-6.8008,-6.8203,-6.9687,-7.0547,-7.0703,-7.1601,-7.1992,-7.1953,-7.1289,-7.0898,-7.0664,-7.0039,-7.0,-7.043,-7.0625,-7.1094,-7.1758,-7.1914,-7.1992,-7.1992,-7.1992,-7.1992,-7.1758,-7.0273,-6.9062,-6.8086,-6.7383,-6.7031,-6.6914,-6.6914,-6.6914,-6.6914,-6.6914,-6.6914,-6.6914,-6.6914,-6.6758,-6.6172,-6.4414,-6.4023,-6.3594,-6.2031,-6.1719,-6.1719,-6.1719,-6.1719,-6.1719,-6.1719,-6.1719,-6.1719,-6.1719,-6.1719,-6.1719,-6.1719,-6.1719,-6.1719,-6.1719,-6.1719,-6.1719,-6.1719,-6.1719,-6.1719,-6.1719,-6.1719,-6.1719,-6.1719,-6.2538,-6.2889,-6.2734,-6.3423,-6.3333,-6.2464,-6.3531,-6.4243,-6.4628,-6.532,-6.5705,-6.5897,-6.5897,-6.5897,-6.5897,-6.5897,-6.5897,-6.5897,-6.5897,-6.5897,-6.5897,-6.5897,-6.5897,-6.5897,-6.1143,-6.1301,-6.1413,-6.1498,-6.198,-6.2383,-6.2383,-6.2383,-6.2383,-6.2383,-6.3086,-6.3789,-6.4258,-6.5469,-6.6406,-6.6875,-6.6914,-6.6914,-6.6914,-6.6914,-6.6914,-6.6914,-6.6914,-6.6914,-6.6914,-6.8125,-6.8789,-6.8828,-7.0078,-7.0898,-7.1328,-7.1797,-7.1992,-7.1992,-7.1523,-7.0859,-7.0039,-6.9648,-6.9492,-6.9531,-6.9922,-7.0586,-7.1445,-7.1836,-7.1992,-7.1992,-7.1992,-7.1719,-7.1133,-6.9453,-6.8594,-6.8047,-6.7187,-6.6914,-6.6914,-6.6914,-6.6914,-6.6914,-6.6914,-6.6914,-6.6914,-6.6914,-6.6601,-6.5937,-6.4609,-6.4297,-6.3828,-6.207,-6.1719,-6.1719,-6.1719,-6.1719,-6.1719,-6.1719,-6.1719,-6.1719,-6.1719,-6.1719,-6.1719,-6.1719,-6.1719,-6.1719,-6.1719,-6.1719,-6.1719,-6.1719,-6.1719,-6.1719,-6.1719,-6.1719,-6.1719,-6.1719,-6.2969,-6.3437,-6.3008,-6.4341,-6.4591,-6.3767,-6.4335,-6.482,-6.5243,-6.5705,-6.5897,-6.5897,-6.5897,-6.5897,-6.5897,-6.5897,-6.5897,-6.5897,-6.5897,-6.5897,-6.5897,-6.5897,-6.5897,-6.5897,-6.0935,-6.1143,-6.1328,-6.1467,-6.1585,-6.1719,-6.1719,-6.1719,-6.1758,-6.1914,-6.332,-6.4375,-6.4492,-6.5937,-6.6914,-6.6914,-6.6914,-6.6914,-6.6914,-6.6914,-6.6914,-6.6914,-6.6914,-6.6953,-6.7109,-6.8633,-6.9453,-6.9492,-7.0469,-7.1289,-7.1992,-7.1992,-7.1992,-7.1992,-7.1836,-7.0898,-6.9414,-6.9492,-6.9062,-6.8476,-6.9297,-7.0156,-7.1015,-7.1719,-7.1992,-7.1992,-7.1992,-7.1367,-7.0273,-6.8711,-6.8086,-6.7851,-6.7148,-6.6914,-6.6914,-6.6914,-6.6914,-6.6914,-6.6914,-6.6914,-6.6914,-6.6914,-6.625,-6.539,-6.4687,-6.4297,-6.3633,-6.2031,-6.1719,-6.1719,-6.1719,-6.1719,-6.1719,-6.1719,-6.1719,-6.1719,-6.1719,-6.1719,-6.1719,-6.1719,-6.1719,-6.1719,-6.1719,-6.1719,-6.1719,-6.1719,-6.1719,-6.1719,-6.1719,-6.1719,-6.1758,-6.1914,-6.3476,-6.4023,-6.3437,-6.5414,-6.6061,-6.5324,-6.5005,-6.5228,-6.5897,-6.5897,-6.5897,-6.5897,-6.5897,-6.5897,-6.5897,-6.5897,-6.5897,-6.5897,-6.5897,-6.5897,-6.5897,-6.5897,-6.5897,-6.5897,-6.0839,-6.1079,-6.1295,-6.1312,-6.1522,-6.1719,-6.1719,-6.1719,-6.1953,-6.2734,-6.3672,-6.4609,-6.5351,-6.6328,-6.6914,-6.6914,-6.6914,-6.6914,-6.6914,-6.6914,-6.6914,-6.6914,-6.6914,-6.7265,-6.8008,-6.8984,-6.9453,-6.9414,-7.1015,-7.1875,-7.1992,-7.1992,-7.1992,-7.1953,-7.1211,-7.0351,-6.9492,-6.9492,-6.9414,-6.9375,-7.0195,-7.1055,-7.1836,-7.1953,-7.1992,-7.1992,-7.1992,-7.0976,-6.9492,-6.8515,-6.7695,-6.707,-6.6953,-6.6914,-6.6914,-6.6914,-6.6914,-6.6914,-6.6914,-6.6914,-6.6914,-6.6914,-6.625,-6.5586,-6.5469,-6.4258,-6.289,-6.1914,-6.1719,-6.1719,-6.1719,-6.1719,-6.1719,-6.1719,-6.1719,-6.1719,-6.1719,-6.1719,-6.1719,-6.1719,-6.1719,-6.1719,-6.1719,-6.1719,-6.1719,-6.1719,-6.1719,-6.1719,-6.1719,-6.1719,-6.2031,-6.2812,-6.3789,-6.4609,-6.5234,-6.6136,-6.6473,-6.6231,-6.5997,-6.5898,-6.5897,-6.5897,-6.5897,-6.5897,-6.5897,-6.5897,-6.5897,-6.5897,-6.5897,-6.5897,-6.5897,-6.5897,-6.5897,-6.5897,-6.5897,-6.5897,-6.0781,-6.1062,-6.1283,-6.1283,-6.1515,-6.1875,-6.2344,-6.2422,-6.2734,-6.3594,-6.4492,-6.5156,-6.5547,-6.6367,-6.6914,-6.6914,-6.6914,-6.6914,-6.6914,-6.6914,-6.6914,-6.6914,-6.6914,-6.7305,-6.8164,-6.9023,-6.9687,-7.0117,-7.1367,-7.1992,-7.1992,-7.1992,-7.1992,-7.1992,-7.1601,-7.0976,-7.0156,-7.0156,-7.0156,-7.0195,-7.0547,-7.1211,-7.1992,-7.1992,-7.1992,-7.1875,-7.0898,-7.0078,-6.9258,-6.793,-6.7539,-6.7539,-6.7031,-6.6914,-6.6914,-6.6914,-6.6914,-6.6914,-6.6914,-6.6914,-6.6797,-6.6289,-6.5508,-6.4883,-6.4883,-6.3515,-6.2305,-6.2422,-6.2031,-6.1719,-6.1719,-6.1719,-6.1719,-6.1719,-6.1719,-6.1719,-6.1719,-6.1719,-6.1719,-6.1719,-6.1719,-6.1719,-6.1719,-6.1719,-6.1719,-6.1719,-6.1719,-6.1719,-6.1719,-6.2148,-6.2617,-6.3008,-6.4336,-6.5195,-6.5586,-6.626,-6.6529,-6.6387,-6.6187,-6.6046,-6.5897,-6.5897,-6.5897,-6.5897,-6.5897,-6.5897,-6.5897,-6.5897,-6.5897,-6.5897,-6.5897,-6.5897,-6.5897,-6.5897,-6.5897,-6.5897]},{"header":{"parameterUnit":"m.s-1","parameterCategory":1,"la1":30.6,"la2":28.766,"lo1":-90.7593,"lo2":-88.6598,"dx":0.0162,"dy":0.0183,"nx":116,"ny":114,"refTime":"2022-12-06T06:00:00:Z","depth":0,"parameterNumber":3,"parameterNumberName":"V-component_of_WINDS"},"data":[0.0,0.0,0.0,0.0,0.0,0.0,0.0,0.0,0.0,0.0,0.0,0.0,0.0,0.0,0.0,0.0,0.0,0.0,0.0,0.0,0.0,0.0,0.0,0.0,0.0,0.0,0.0,0.0,0.0,0.0,0.0,0.0,0.0,0.0,0.0,0.0,0.0,0.0,0.0,0.0,0.0,0.0,0.0,0.0,0.0,0.0,0.0,0.0,0.0,0.0,0.0,0.0,0.0,0.0,0.0,0.0,0.0,0.0,0.0,0.0,0.0,0.0,0.0,0.0,0.0,0.0,0.0,0.0,0.0,0.0,0.0,0.0,0.0,0.0,0.0,0.0,0.0,0.0,0.0,0.0,0.0,0.0,0.0,0.0,0.0,0.0,0.0,0.0,0.0,0.0,0.0,0.0,0.0,0.0,0.0,0.0,0.0,0.0,0.0,0.0,0.0,0.0,0.0,0.0,0.0,0.0,0.0,0.0,0.0,0.0,0.0,0.0,0.0,0.0,0.0,0.0,0.0,0.0,0.0,0.0,0.0,0.0,0.0,0.0,0.0,0.0,0.0,0.0,0.0,0.0,0.0,0.0,0.0,0.0,0.0,0.0,0.0,0.0,0.0,0.0,0.0,0.0,0.0,0.0,0.0,0.0,0.0,0.0,0.0,0.0,0.0,0.0,0.0,0.0,0.0,0.0,0.0,0.0,0.0,0.0,0.0,0.0,0.0,0.0,0.0,0.0,0.0,0.0,0.0,0.0,0.0,0.0,0.0,0.0,0.0,0.0,0.0,0.0,0.0,0.0,0.0,0.0,0.0,0.0,0.0,0.0,0.0,0.0,0.0,0.0,0.0,0.0,0.0,0.0,0.0,0.0,0.0,0.0,0.0,0.0,0.0,0.0,0.0,0.0,0.0,0.0,0.0,0.0,0.0,0.0,0.0,0.0,0.0,0.0,0.0,0.0,0.0,0.0,0.0,0.0,0.0,0.0,0.0,0.0,0.0,0.0,0.0,0.0,0.0,0.0,0.0,0.0,0.0,0.0,0.0,0.0,0.0,0.0,0.0,0.0,0.0,0.0,0.0,0.0,0.0,0.0,0.0,0.0,0.0,0.0,0.0,0.0,0.0,0.0,0.0,0.0,0.0,0.0,0.0,0.0,0.0,0.0,0.0,0.0,0.0,0.0,0.0,0.0,0.0,0.0,0.0,0.0,0.0,0.0,0.0,0.0,0.0,0.0,0.0,0.0,0.0,0.0,0.0,0.0,0.0,0.0,0.0,0.0,0.0,0.0,0.0,0.0,0.0,0.0,0.0,0.0,0.0,0.0,0.0,0.0,0.0,0.0,0.0,0.0,0.0,0.0,0.0,0.0,0.0,0.0,0.0,0.0,0.0,0.0,0.0,0.0,0.0,0.0,0.0,0.0,0.0,0.0,0.0,0.0,0.0,0.0,0.0,0.0,0.0,0.0,0.0,0.0,0.0,0.0,0.0,0.0,0.0,0.0,0.0,0.0,0.0,0.0,0.0,0.0,0.0,0.0,0.0,0.0,0.0,0.0,0.0,0.0,0.0,0.0,0.0,0.0,0.0,0.0,0.0,0.0,0.0,0.0,0.0,0.0,0.0,0.0,0.0,0.0,0.0,0.0,0.0,0.0,0.0,0.0,0.0,0.0,0.0,0.0,0.0,0.0,0.0,0.0,0.0,0.0,0.0,0.0,0.0,0.0,0.0,0.0,0.0,0.0,0.0,0.0,0.0,0.0,0.0,0.0,0.0,0.0,0.0,0.0,0.0,0.0,0.0,0.0,0.0,0.0,0.0,0.0,0.0,0.0,0.0,0.0,0.0,0.0,0.0,0.0,0.0,0.0,0.0,0.0,0.0,0.0,0.0,0.0,0.0,0.0,0.0,0.0,0.0,0.0,0.0,0.0,0.0,0.0,0.0,0.0,0.0,0.0,0.0,0.0,0.0,0.0,0.0,0.0,0.0,0.0,0.0,0.0,0.0,0.0,0.0,0.0,0.0,0.0,0.0,0.0,0.0,0.0,0.0,0.0,0.0,0.0,0.0,0.0,0.0,0.0,0.0,0.0,0.0,0.0,0.0,0.0,0.0,0.0,0.0,0.0,0.0,0.0,0.0,0.0,0.0,0.0,0.0,0.0,0.0,0.0,0.0,0.0,0.0,0.0,0.0,0.0,0.0,0.0,0.0,0.0,0.0,0.0,0.0,0.0,0.0,0.0,0.0,0.0,0.0,0.0,0.0,0.0,0.0,0.0,0.0,0.0,0.0,0.0,0.0,0.0,0.0,0.0,0.0,0.0,0.0,0.0,0.0,0.0,0.0,0.0,0.0,0.0,0.0,0.0,0.0,0.0,0.0,0.0,0.0,0.0,0.0,0.0,0.0,0.0,0.0,0.0,0.0,0.0,0.0,0.0,0.0,0.0,0.0,0.0,0.0,0.0,0.0,0.0,0.0,0.0,0.0,0.0,0.0,0.0,0.0,0.0,0.0,0.0,0.0,0.0,0.0,0.0,0.0,0.0,0.0,0.0,0.0,0.0,0.0,0.0,0.0,0.0,0.0,0.0,0.0,0.0,0.0,0.0,0.0,0.0,0.0,0.0,0.0,0.0,0.0,0.0,0.0,0.0,0.0,0.0,0.0,0.0,0.0,0.0,0.0,0.0,0.0,0.0,0.0,0.0,0.0,0.0,0.0,0.0,0.0,0.0,0.0,0.0,0.0,0.0,0.0,0.0,0.0,0.0,0.0,0.0,0.0,0.0,0.0,0.0,0.0,0.0,0.0,0.0,0.0,0.0,0.0,0.0,0.0,0.0,0.0,0.0,0.0,0.0,0.0,0.0,0.0,0.0,0.0,0.0,0.0,0.0,0.0,0.0,0.0,0.0,0.0,0.0,0.0,0.0,0.0,0.0,0.0,0.0,0.0,0.0,0.0,0.0,0.0,0.0,0.0,0.0,0.0,0.0,0.0,0.0,0.0,0.0,0.0,0.0,0.0,0.0,0.0,0.0,0.0,0.0,0.0,0.0,0.0,0.0,0.0,0.0,0.0,0.0,0.0,0.0,0.0,0.0,0.0,0.0,0.0,0.0,0.0,0.0,0.0,0.0,0.0,0.0,0.0,0.0,0.0,0.0,0.0,0.0,0.0,0.0,0.0,0.0,0.0,0.0,0.0,0.0,0.0,0.0,0.0,0.0,0.0,0.0,0.0,0.0,0.0,0.0,0.0,0.0,0.0,0.0,0.0,0.0,0.0,0.0,0.0,0.0,0.0,0.0,0.0,0.0,0.0,0.0,0.0,0.0,0.0,0.0,0.0,0.0,0.0,0.0,0.0,0.0,0.0,0.0,0.0,0.0,0.0,0.0,0.0,0.0,0.0,0.0,0.0,0.0,0.0,0.0,0.0,0.0,0.0,0.0,0.0,0.0,0.0,0.0,0.0,0.0,0.0,0.0,0.0,0.0,0.0,0.0,0.0,0.0,0.0,0.0,0.0,0.0,0.0,0.0,0.0,0.0,0.0,0.0,0.0,0.0,0.0,0.0,0.0,0.0,0.0,0.0,0.0,0.0,0.0,0.0,0.0,0.0,0.0,0.0,0.0,0.0,0.0,0.0,0.0,0.0,0.0,0.0,0.0,0.0,0.0,0.0,0.0,0.0,0.0,0.0,0.0,0.0,0.0,0.0,0.0,0.0,0.0,0.0,0.0,0.0,0.0,0.0,0.0,0.0,0.0,0.0,0.0,0.0,0.0,0.0,0.0,0.0,0.0,0.0,0.0,0.0,0.0,0.0,0.0,0.0,0.0,0.0,0.0,0.0,0.0,0.0,0.0,0.0,0.0,0.0,0.0,0.0,0.0,0.0,0.0,0.0,0.0,0.0,0.0,0.0,0.0,0.0,0.0,0.0,0.0,0.0,0.0,0.0,0.0,0.0,0.0,0.0,0.0,0.0,0.0,0.0,0.0,0.0,0.0,0.0,0.0,0.0,0.0,0.0,0.0,0.0,0.0,0.0,0.0,0.0,0.0,0.0,0.0,0.0,0.0,0.0,0.0,0.0,0.0,0.0,0.0,0.0,0.0,0.0,0.0,0.0,0.0,0.0,0.0,0.0,0.0,0.0,0.0,0.0,0.0,0.0,0.0,0.0,0.0,0.0,0.0,0.0,0.0,0.0,0.0,0.0,0.0,0.0,0.0,0.0,0.0,0.0,0.0,0.0,0.0,0.0,0.0,0.0,0.0,0.0,0.0,0.0,0.0,0.0,0.0,0.0,0.0,0.0,0.0,0.0,0.0,0.0,0.0,0.0,0.0,0.0,0.0,0.0,0.0,0.0,0.0,0.0,0.0,0.0,0.0,0.0,0.0,0.0,0.0,0.0,0.0,0.0,0.0,0.0,0.0,0.0,0.0,0.0,0.0,0.0,0.0,0.0,0.0,0.0,0.0,0.0,0.0,0.0,0.0,0.0,0.0,0.0,0.0,0.0,0.0,0.0,0.0,0.0,0.0,0.0,0.0,0.0,0.0,0.0,0.0,0.0,0.0,0.0,0.0,0.0,0.0,0.0,0.0,0.0,0.0,0.0,0.0,0.0,0.0,0.0,0.0,0.0,0.0,0.0,0.0,0.0,0.0,0.0,0.0,0.0,0.0,0.0,0.0,0.0,0.0,0.0,0.0,0.0,0.0,0.0,0.0,0.0,0.0,0.0,0.0,0.0,0.0,0.0,0.0,0.0,0.0,0.0,0.0,0.0,0.0,0.0,0.0,0.0,0.0,0.0,0.0,0.0,0.0,0.0,0.0,0.0,0.0,0.0,0.0,0.0,0.0,0.0,0.0,0.0,0.0,0.0,0.0,0.0,0.0,0.0,0.0,0.0,0.0,0.0,0.0,0.0,0.0,0.0,0.0,0.0,0.0,0.0,0.0,0.0,0.0,0.0,0.0,0.0,0.0,0.0,0.0,0.0,0.0,0.0,0.0,0.0,0.0,0.0,0.0,0.0,0.0,0.0,0.0,0.0,0.0,0.0,0.0,0.0,0.0,0.0,0.0,0.0,0.0,0.0,0.0,0.0,0.0,0.0,0.0,0.0,0.0,0.0,0.0,0.0,0.0,0.0,0.0,0.0,0.0,0.0,0.0,0.0,0.0,0.0,0.0,0.0,0.0,0.0,0.0,0.0,0.0,0.0,0.0,0.0,0.0,0.0,0.0,0.0,0.0,0.0,0.0,0.0,0.0,0.0,0.0,0.0,0.0,0.0,0.0,0.0,0.0,0.0,0.0,0.0,0.0,0.0,0.0,0.0,0.0,0.0,0.0,0.0,0.0,0.0,0.0,0.0,0.0,0.0,0.0,0.0,0.0,0.0,0.0,0.0,0.0,0.0,0.0,0.0,0.0,0.0,0.0,0.0,0.0,0.0,0.0,0.0,0.0,0.0,0.0,0.0,0.0,0.0,0.0,0.0,0.0,0.0,0.0,0.0,0.0,0.0,0.0,0.0,0.0,0.0,0.0,0.0,0.0,0.0,0.0,0.0,0.0,0.0,0.0,0.0,0.0,0.0,0.0,0.0,0.0,0.0,0.0,0.0,0.0,0.0,0.0,0.0,0.0,0.0,0.0,0.0,0.0,0.0,0.0,0.0,0.0,0.0,0.0,0.0,0.0,0.0,0.0,0.0,0.0,0.0,0.0,0.0,0.0,0.0,0.0,0.0,0.0,0.0,0.0,0.0,0.0,0.0,0.0,0.0,0.0,0.0,0.0,0.0,0.0,0.0,0.0,0.0,0.0,0.0,0.0,0.0,0.0,0.0,0.0,0.0,0.0,0.0,0.0,0.0,0.0,0.0,0.0,0.0,0.0,0.0,0.0,0.0,0.0,0.0,0.0,0.0,0.0,0.0,0.0,0.0,0.0,0.0,0.0,0.0,0.0,0.0,0.0,0.0,0.0,0.0,0.0,0.0,0.0,0.0,0.0,0.0,0.0,0.0,0.0,0.0,0.0,0.0,0.0,0.0,0.0,0.0,0.0,0.0,0.0,0.0,0.0,0.0,0.0,0.0,0.0,0.0,0.0,0.0,0.0,0.0,0.0,0.0,0.0,0.0,0.0,0.0,0.4784,0.0,0.0,0.0,0.0,0.0,0.0,0.0,0.0,0.0,0.0,0.0,0.0,0.0,0.0,0.0,0.0,0.0,0.0,0.0,0.0,0.0,0.0,0.0,0.0,0.118,0.1158,0.129,0.13,0.0,0.0,0.0,0.0,0.0,0.0,0.0,0.0,0.0,0.006,0.0621,0.0646,0.0891,0.1323,0.1047,0.1494,0.2561,0.0,0.0,0.0,0.0,0.0,0.0,0.0,0.0,0.0,0.0,0.0,0.0,0.0,0.0,0.0,0.0,0.0,0.0,0.0,0.0,0.0,0.0,0.0,0.0,0.0,0.0,0.0,0.0,0.0,0.0,0.0,0.0,0.0,0.0,0.0,0.0,0.0,0.0,0.0,0.0,0.0,0.0,0.0,0.0,0.0,0.0,0.0,0.0,0.0,0.0,0.0,0.0,0.0,0.0,0.0,0.0,0.0,0.0,0.0,0.0,0.0,0.0,0.0,0.0,0.0,0.0,0.0,0.0,0.0,0.0,0.0,0.5694,0.0,0.0,0.0,0.0,0.0,0.0,0.0,0.0,0.0,0.0,0.0,0.0,0.0,0.0,0.0,0.0,0.0,0.0,0.0,0.0,0.0,0.1278,0.1235,0.0975,0.0901,0.1118,0.1216,0.1385,0.1693,0.1226,0.0,0.0,0.0,0.0,-0.0296,0.0023,0.0547,0.1257,0.0842,0.0664,0.0708,0.1036,0.1906,0.3238,0.298,0.0,0.0,0.0,0.0,0.0,0.0,0.0,0.0,0.0,0.0,0.0,0.0,0.0,0.0,0.0,0.0,0.0,0.0,0.0,0.0,0.0,0.0,0.0,0.0,0.0,0.0,0.0,0.0,0.0,0.0,0.0,0.0,0.0,0.0,0.0,0.0,0.0,0.0,0.0,0.0,0.0,0.0,0.0,0.0,0.0,0.0,0.0,0.0,0.0,0.0,0.0,0.0,0.0,0.0,0.0,0.0,0.0,0.0,0.0,0.0,0.0,0.0,0.0,0.9213,0.9558,0.9926,0.9904,1.0136,1.0605,0.9984,0.881,0.727,0.6502,0.0,0.0,0.0,0.0,0.0,0.0,0.0,0.0,0.0,0.0,0.0,0.0,0.0,0.0,0.0,0.0,0.0,0.0,0.0,0.1218,0.0982,0.0658,0.0486,0.0513,0.0887,0.1192,0.1358,0.1181,0.0,0.0,0.0,0.0,0.0124,0.0669,0.1013,0.1122,0.1455,0.1742,0.1972,0.2197,0.2411,0.262,0.2698,0.2569,0.2314,0.0,0.0,0.0,0.0,0.0,0.0,0.0,0.0,0.0,0.0,0.0,0.0,0.0,0.0,0.0,0.0,0.0,0.0,0.0,0.0,0.0,0.0,0.0,0.0,0.0,0.0,0.0,0.0,0.0,0.0,0.0,0.0,0.0,0.0,0.0,0.0,0.0,0.0,0.0,0.0,0.0,0.293,0.1553,0.0,0.0,0.0,0.0,0.0,0.0,0.0,0.0,0.0,0.0,0.0,0.0,0.0,0.7982,0.8897,0.9319,0.9713,1.016,1.1558,1.2331,1.2547,1.3668,1.4226,1.4318,1.4216,0.0,0.8864,0.7525,0.0,0.0,0.0,0.0,0.0,0.0,0.0,0.0,0.0,0.0,0.0,0.0,0.0,0.0,0.0,0.0,0.0,0.0,0.0,0.0,0.0,0.12,0.1335,0.197,0.2319,0.2356,0.1999,0.174,0.0,0.0,0.0,0.0095,0.0305,0.0567,0.0714,0.0712,0.1946,0.2013,0.0963,0.1755,0.174,0.1139,0.1844,0.2472,0.298,0.3001,0.0,0.0,0.0,0.0,0.0,0.0,0.0,0.0,0.0,0.0,0.0,0.0,0.0,0.0,0.0,0.0,0.0,0.0,0.0,0.0,0.0,0.0,0.0,0.0,0.0,0.0,0.0,0.0,0.0,0.0,0.0,0.0,0.0,0.0,0.0,0.0,0.0,0.0,0.0,0.3142,0.3125,0.096,0.2094,0.2251,0.0,0.0,0.0,0.0,0.0,0.0,0.0,0.0,0.0,0.8022,0.8065,0.9092,1.1236,1.1462,1.204,1.3007,1.3684,1.4135,1.4359,1.4797,1.5102,1.5204,1.5075,1.406,1.2345,1.055,0.9298,0.8432,0.0,0.0,0.0,0.0,0.6889,0.6568,0.0,0.0,0.0,0.0,0.0,0.0,0.0,0.0,0.0,0.0,0.0,0.0,0.1812,0.1942,0.233,0.3177,0.3255,0.2998,0.2408,0.1926,0.1206,0.0151,0.0148,0.0363,0.0757,0.0749,0.0698,0.0562,0.21,0.1852,0.0046,0.1273,0.1193,0.0048,0.0926,0.2142,0.3491,0.3205,0.347,0.4047,0.0,0.0,0.0,0.0,0.0,0.0,0.0,0.0,0.0,0.0,0.0,0.0,0.0,0.0,0.0,0.0,0.0,0.0,0.0,0.0,0.0,0.0,0.0,0.0,0.0,0.0,0.0,0.0,0.0,0.0,0.0,0.0,0.0,0.0,0.0,0.0,0.0,0.3544,0.3765,0.1309,0.3261,0.3749,0.0,0.0,0.0,0.0,0.0,0.0,0.6446,0.7021,0.7972,0.9509,0.9164,1.0102,1.2452,1.2553,1.3146,1.4205,1.4526,1.4825,1.5019,1.5146,1.516,1.5019,1.5133,1.5041,1.4572,1.2866,1.1557,1.049,0.9706,0.925,0.9002,0.8986,0.8826,0.8494,0.0,0.0,0.0,0.0,0.0,0.0,0.0,0.0,0.0,0.0,0.0,0.2447,0.2027,0.2597,0.3042,0.3111,0.2591,0.2209,0.2038,0.1234,0.0652,0.0383,0.0559,0.0993,0.172,0.1717,0.1518,0.105,0.1721,0.1336,0.0046,0.1368,0.1299,0.0,0.0049,0.1276,0.3341,0.3894,0.4646,0.5372,0.4088,0.0,0.0,0.0,0.0,0.0,0.0,0.0,0.0,0.0,0.0,0.0,0.0,0.0,0.0,0.0,0.0,0.0,0.0,0.0,0.0,0.0,0.0,0.0,0.0,0.0,0.0,0.0,0.0,0.0,0.0,0.0,0.0,0.0,0.0,0.0,0.0,0.0,0.0,0.4008,0.5385,0.0,0.0,0.0,0.0,0.4413,0.5562,0.6296,0.6318,0.7597,0.8563,0.9091,1.0303,1.1165,1.1546,1.1566,1.1735,1.2055,1.3358,1.3945,1.4004,1.521,1.5114,1.4052,1.5257,1.5054,1.3921,1.3204,1.3124,1.3251,1.2037,1.1173,1.0587,0.9781,0.8865,0.7923,0.0,0.0,0.0,0.0898,0.1402,0.1806,0.1806,0.1982,0.2004,0.1669,0.2327,0.2915,0.3144,0.3136,0.336,0.394,0.324,0.2476,0.1774,0.1603,0.1433,0.1177,0.1317,0.1433,0.1476,0.1321,0.1331,0.1558,0.2618,0.2924,0.2445,0.2915,0.2477,0.1247,0.0405,0.1397,0.3748,0.3723,0.4656,0.6122,0.5255,0.4341,0.0,0.0,0.0,0.0,0.0,0.0,0.0,0.0,0.0,0.0,0.0,0.0,0.0,0.0,0.0,0.0,0.0,0.0,0.0,0.0,0.0,0.0,0.0,0.0,0.0,0.0,0.0,0.0,0.0,0.0,0.0,0.0,0.0,0.0,0.0,0.0,0.0,0.6038,0.8084,0.0,0.5798,0.5776,0.5959,0.6036,0.6638,0.7291,0.7937,0.8626,0.9498,1.0612,0.9571,0.9888,1.1722,1.095,1.0997,1.1901,1.2377,1.2619,1.2619,1.3054,1.3054,1.2619,1.3113,1.3017,1.2608,1.2399,1.3273,1.4604,1.3112,1.2392,1.2085,1.0971,1.0279,0.9851,0.0,0.0,0.0,0.0736,0.1159,0.1491,0.1491,0.1689,0.184,0.1865,0.2652,0.3424,0.4043,0.3841,0.3896,0.4531,0.3368,0.2409,0.1983,0.179,0.1719,0.1801,0.1891,0.1677,0.1112,0.1027,0.124,0.1791,0.3169,0.3842,0.3799,0.3851,0.3218,0.1964,0.0613,0.1478,0.4007,0.3713,0.4899,0.6865,0.6166,0.5318,0.4409,0.0,0.0,0.0,0.0,0.0,0.0,0.0,0.0,0.0,0.0,0.0,0.0,0.0,0.0,0.0,0.0,0.0,0.0,0.0,0.0,0.0,0.0,0.0,0.0,0.0,0.0,0.0,0.0,0.0,0.0,0.0,0.0,0.0,0.0,0.0,0.8578,0.7931,1.0132,1.0589,0.7753,0.7799,0.7749,0.7162,0.7675,0.8159,0.8532,0.8706,0.9282,1.0272,0.8803,0.8844,1.0681,0.9904,0.9937,1.078,1.1179,1.1368,1.1428,1.1875,1.1776,1.1363,1.1806,1.1717,1.1317,1.1707,1.2822,1.4143,1.3531,1.3321,1.3228,1.2428,1.206,1.1733,0.0,0.0,0.0416,0.0406,0.068,0.0903,0.0903,0.1015,0.1328,0.1949,0.3061,0.4047,0.4678,0.4661,0.4647,0.4647,0.2738,0.1862,0.2599,0.1697,0.1436,0.2184,0.221,0.1726,0.0757,0.0995,0.1346,0.1834,0.3353,0.3989,0.3942,0.3995,0.3316,0.2012,0.0605,0.1511,0.4014,0.4014,0.5461,0.774,0.6865,0.624,0.5718,0.0,0.0,0.0,0.0,0.0,0.0,0.0,0.0,0.0,0.0,0.0,0.0,0.0,0.0,0.0,0.0,0.0,0.0,0.0,0.0,0.0,0.0,0.0,0.0,0.0,0.0,0.0,0.0,0.0,0.0,0.0,0.0,0.0,0.7043,0.9143,1.04,0.9695,1.1364,1.1525,0.8758,1.0058,1.0103,0.7818,0.866,0.8824,0.7849,0.7814,0.7889,0.7988,0.8194,0.8327,0.8327,0.8411,0.8479,0.8538,0.9779,1.0344,1.0387,1.169,1.1518,1.0222,1.1523,1.126,1.006,1.1277,1.1755,1.1901,1.3247,1.3776,1.3776,1.3884,1.3731,1.3112,0.0643,0.0633,0.0687,0.0446,0.068,0.0903,0.0903,0.1099,0.1577,0.2519,0.3398,0.429,0.5237,0.4278,0.3554,0.3554,0.1644,0.0766,0.1479,0.1495,0.1829,0.2683,0.211,0.1586,0.1144,0.1451,0.211,0.3126,0.4606,0.5737,0.6508,0.4786,0.3817,0.3366,0.1008,0.1511,0.4014,0.4014,0.5504,0.7894,0.759,0.7048,0.641,0.0,0.0,0.0,0.0,0.0,0.0,0.0,0.0,0.0,0.0,0.0,0.0,0.0,0.0,0.0,0.0,0.0,0.0,0.0,0.0,0.0,0.0,0.0,0.0,0.0,0.0,0.0,0.0,0.0,0.0,0.0,0.0,0.871,1.0191,1.1229,1.1817,1.1771,1.2438,1.2215,1.0518,1.004,0.9523,0.8885,0.8437,0.8103,0.7807,0.7916,0.8045,0.8201,0.8248,0.8374,0.8425,0.8465,0.8479,0.8486,0.8959,0.9111,0.9055,0.9489,0.9452,0.8983,0.9346,0.9256,0.8809,0.9155,0.918,0.9213,1.0534,1.1063,1.0965,1.0043,0.9624,0.9453,0.0911,0.0735,0.0591,0.029,0.0391,0.0521,0.0527,0.0658,0.1295,0.2796,0.335,0.4208,0.5734,0.4228,0.3083,0.3083,0.1203,0.0452,0.1483,0.2063,0.2306,0.2138,0.1649,0.1444,0.151,0.168,0.2638,0.4372,0.5347,0.6114,0.6744,0.488,0.4014,0.3917,0.1762,0.2314,0.4822,0.4822,0.6077,0.7982,0.7894,0.757,0.7054,0.6837,0.6349,0.573,0.5541,0.5359,0.5148,0.5087,0.0,0.0,0.0,0.0,0.0,0.0,0.0,0.0,0.0,0.0,0.0,0.0,0.0,0.0,0.0,0.0,0.0,0.0,0.0,0.0,0.0,0.0,0.0,0.0,0.7704,0.9426,1.1202,1.1645,1.1838,1.1947,1.2188,1.1868,1.0576,0.9905,0.9339,0.8821,0.8195,0.7936,0.7997,0.8085,0.8235,0.8445,0.8459,0.8526,0.8669,0.8676,0.8703,0.8818,0.8791,0.8825,0.8859,0.8818,0.8791,0.8811,0.8635,0.8533,0.8452,0.8384,0.8303,0.0,0.0,0.0,0.0,0.0,0.9472,0.8992,0.1405,0.087,0.0384,0.0101,0.0022,0.0,0.0,0.0,0.0747,0.2838,0.3095,0.3929,0.6065,0.4375,0.3083,0.3083,0.119,0.059,0.1983,0.2739,0.2541,0.117,0.1023,0.1224,0.1787,0.1925,0.3129,0.5403,0.5814,0.5879,0.5596,0.4634,0.4168,0.3967,0.2764,0.3616,0.5977,0.5977,0.6781,0.7988,0.7988,0.7833,0.7617,0.7301,0.7038,0.6797,0.6364,0.6121,0.601,0.5881,0.0,0.0,0.0,0.0,0.0,0.0,0.0,0.0,0.0,0.0,0.0,0.0,0.0,0.0,0.0,0.0,0.0,0.0,0.0,0.0,0.0,0.0,0.0,0.0,0.848,0.9249,1.0564,1.0723,1.0779,1.0898,1.1177,1.0782,0.946,0.9608,0.927,0.8115,0.8015,0.8133,0.8289,0.0,0.0,0.0,0.0,0.8784,0.8885,0.8885,0.9001,0.9187,0.9035,0.9117,0.9347,0.9117,0.9076,0.9221,0.8879,0.875,0.8723,0.8574,0.8486,0.8588,0.9461,0.9921,1.0289,1.1494,1.1143,1.0096,0.1648,0.1225,0.0831,0.0395,0.0146,0.0,0.0,0.0,0.0747,0.2838,0.3095,0.3929,0.6065,0.4375,0.3083,0.3083,0.1208,0.0384,0.1259,0.1452,0.142,0.1095,0.0514,0.0709,0.1789,0.2769,0.3972,0.5403,0.6657,0.6691,0.5596,0.5625,0.5022,0.3964,0.3717,0.4518,0.5977,0.5977,0.6781,0.7988,0.7988,0.7955,0.7901,0.784,0.7779,0.7719,0.7631,0.751,0.7421,0.7394,0.6966,0.6424,0.6342,0.5711,0.0,0.0,0.0,0.0,0.0,0.0,0.0,0.0,0.0,0.0,0.0,0.0,0.0,0.0,0.0,0.0,0.0,0.0,0.0,0.6914,0.765,0.8229,0.839,0.8542,0.8919,0.9728,1.0066,0.9747,0.8435,0.8365,0.8335,0.8265,0.8228,0.8289,0.8431,0.8438,0.8526,0.8703,0.871,0.8784,0.8885,0.8885,0.8898,0.8981,0.0,0.0,0.9262,0.9395,0.9429,0.9327,0.92,0.9001,0.8824,0.873,0.8526,0.8354,0.8547,0.8564,0.8478,0.877,0.867,0.8471,0.1821,0.1378,0.0907,0.0299,0.0084,0.0,0.0,0.0,0.0556,0.2145,0.2352,0.2939,0.4542,0.3307,0.2362,0.2362,0.1248,0.0537,0.0565,0.09,0.0937,0.0555,0.0177,0.0852,0.268,0.3304,0.4461,0.6251,0.7093,0.6485,0.46,0.4789,0.4579,0.4014,0.4014,0.5122,0.6986,0.6986,0.7385,0.7988,0.7988,0.7988,0.7988,0.7988,0.7988,0.7988,0.7988,0.7941,0.7874,0.7874,0.7678,0.7333,0.7109,0.662,0.5939,0.0,0.0,0.0,0.0,0.0,0.0,0.0,0.0,0.0,0.0,0.0,0.0,0.0,0.0,0.5634,0.0,0.0,0.7061,0.7136,0.7719,0.8099,0.7943,0.7941,0.8209,0.8713,0.892,0.8763,0.8197,0.8153,0.8248,0.8472,0.8418,0.8472,0.8696,0.8635,0.8696,0.8927,0.8859,0.8893,0.9042,0.9049,0.9083,0.9164,0.9313,0.9415,0.949,0.949,0.9496,0.9483,0.9309,0.9166,0.9035,0.8886,0.8696,0.8486,0.8404,0.8235,0.7988,0.7988,0.7988,0.7988,0.172,0.1279,0.0821,0.019,0.0038,0.0,0.0,0.0,0.0393,0.1461,0.1603,0.1977,0.2978,0.2194,0.1514,0.1308,0.1049,0.0636,0.0038,0.0551,0.0623,0.0045,0.0225,0.1388,0.3571,0.3838,0.4994,0.7098,0.7292,0.6091,0.3607,0.4019,0.3998,0.3616,0.4168,0.5572,0.764,0.7889,0.7988,0.7988,0.7988,0.7988,0.7988,0.7988,0.7988,0.7988,0.7955,0.7928,0.7907,0.7934,0.7928,0.7853,0.7597,0.7373,0.6964,0.5818,0.5642,0.0,0.0,0.0,0.0,0.0,0.0,0.0,0.0,0.5555,0.5897,0.645,0.6586,0.6661,0.7,0.7299,0.7529,0.7624,0.797,0.8194,0.8099,0.7779,0.7635,0.7667,0.7899,0.8133,0.8306,0.8347,0.8425,0.8689,0.8594,0.8648,0.8871,0.8818,0.8866,0.9159,0.9001,0.8994,0.9166,0.9193,0.9268,0.934,0.9395,0.9551,0.9774,0.9564,0.9517,0.9591,0.9344,0.9193,0.9103,0.8988,0.8797,0.8696,0.8574,0.8343,0.8029,0.8002,0.7988,0.7988,0.0986,0.0788,0.0668,0.0399,0.0164,0.0,0.0,0.0,0.0394,0.1449,0.1589,0.1983,0.2997,0.2215,0.1224,0.0276,0.0132,0.0072,0.0,0.0083,0.0087,0.0,0.1031,0.2236,0.3568,0.4643,0.5802,0.7098,0.7292,0.6091,0.3607,0.4936,0.4388,0.2314,0.4722,0.5927,0.6282,0.7484,0.7988,0.7988,0.7988,0.7988,0.7988,0.7988,0.7988,0.7975,0.7882,0.7753,0.7665,0.7794,0.7753,0.7685,0.7847,0.7773,0.7468,0.6997,0.6445,0.5858,0.5412,0.5209,0.5204,0.546,0.5863,0.634,0.0,0.0,0.6997,0.738,0.755,0.7611,0.7536,0.7767,0.7874,0.7807,0.7943,0.8106,0.8228,0.7106,0.6267,0.6469,0.7537,0.8248,0.832,0.8384,0.8526,0.8696,0.8696,0.8757,0.8871,0.8865,0.8871,0.8905,0.8892,0.8892,0.8905,0.9089,0.9221,0.9234,0.9456,0.9598,0.9639,0.9727,0.9713,0.9591,0.9344,0.9083,0.8905,0.8892,0.8797,0.871,0.8689,0.8506,0.8228,0.8092,0.7988,0.7988,0.0873,0.0692,0.059,0.0229,0.0071,0.0,0.0,0.0,0.0152,0.061,0.0675,0.0828,0.1242,0.0917,0.0497,0.0052,0.0,0.0,0.0,0.0,0.0,0.0,0.0494,0.1299,0.2549,0.3749,0.491,0.6118,0.6847,0.5986,0.3592,0.4231,0.3626,0.2097,0.3988,0.529,0.6082,0.7453,0.7988,0.7988,0.7988,0.7988,0.7982,0.7894,0.7909,0.7889,0.774,0.7536,0.0,0.7502,0.7516,0.7516,0.7814,0.7645,0.7247,0.7038,0.6694,0.6458,0.662,0.6424,0.6209,0.6552,0.6898,0.7224,0.7455,0.7584,0.7725,0.8167,0.8296,0.8289,0.814,0.8214,0.8221,0.0,0.814,0.8289,0.8327,0.7084,0.6203,0.63,0.6061,0.6246,0.7146,0.8096,0.871,0.8947,0.8893,0.8906,0.9055,0.8981,0.8885,0.8885,0.9022,0.9062,0.9062,0.93,0.9415,0.9422,0.9632,0.9734,0.9734,0.9795,0.9741,0.9598,0.9381,0.9252,0.9198,0.9198,0.9157,0.9089,0.9001,0.8948,0.8791,0.8323,0.8174,0.8174,0.0683,0.0504,0.0394,0.0063,0.0,0.0,0.0,0.0,0.0,0.0,0.0,0.0,0.0,0.0,0.0,0.0,0.0,0.0,0.0,0.0,0.0,0.0,0.0313,0.0896,0.1791,0.3304,0.451,0.5403,0.6561,0.5908,0.3592,0.3592,0.2841,0.1524,0.3184,0.4461,0.548,0.7217,0.7901,0.7874,0.7914,0.7901,0.7853,0.7794,0.7651,0.7489,0.7387,0.7183,0.6953,0.6939,0.6966,0.7041,0.7251,0.7156,0.6946,0.6885,0.6702,0.6614,0.7048,0.7021,0.6959,0.7339,0.7746,0.8031,0.7929,0.8106,0.8325,0.871,0.8771,0.8716,0.852,0.8479,0.8397,0.8147,0.8282,0.8418,0.8397,0.6832,0.5732,0.5786,0.4543,0.4086,0.5194,0.7007,0.8232,0.8507,0.8772,0.8981,0.9089,0.8994,0.8885,0.8885,0.9076,0.9207,0.9207,0.9456,0.9612,0.9612,0.9754,0.9822,0.9822,0.9781,0.9707,0.9598,0.9449,0.9381,0.9381,0.9381,0.9381,0.9367,0.9316,0.9248,0.9159,0.8722,0.8518,0.8384,0.0184,0.0017,0.0017,0.0,0.0,0.0,0.0,0.0,0.0,0.0,0.0,0.0,0.0,0.0,0.0,0.0,0.0,0.0,0.0,0.0,0.0,0.0,0.1108,0.1746,0.1791,0.4109,0.5359,0.5403,0.6561,0.5908,0.3592,0.3592,0.233,0.0191,0.2709,0.3847,0.4043,0.6684,0.774,0.7624,0.7767,0.7733,0.7611,0.7611,0.7244,0.6736,0.6729,0.6627,0.6463,0.5996,0.5949,0.6033,0.604,0.6274,0.6559,0.6668,0.6396,0.602,0.6033,0.6383,0.6851,0.7448,0.814,0.8682,0.8676,0.8798,0.8858,0.8871,0.8878,0.8838,0.854,0.8479,0.8431,0.834,0.832,0.8377,0.8655,0.6143,0.4351,0.4548,0.32,0.229,0.0,0.5024,0.675,0.6771,0.8103,0.8885,0.8892,0.8885,0.8885,0.8885,0.9076,0.9207,0.9207,0.9456,0.9612,0.9612,0.9754,0.9822,0.9815,0.968,0.9612,0.9598,0.9449,0.9381,0.9381,0.9381,0.9381,0.9381,0.9374,0.9344,0.9207,0.9187,0.8947,0.8676,0.0203,0.0,0.0,0.0,0.0252,0.047,0.047,0.047,0.0457,0.0466,0.0467,0.0,0.0,0.0,0.0,0.0,0.0,0.0,0.0,0.0,0.0,0.0,0.0388,0.0619,0.0628,0.295,0.4194,0.4194,0.5403,0.5151,0.3564,0.2798,0.1544,0.0092,0.2685,0.3814,0.396,0.6555,0.7645,0.7604,0.7651,0.7645,0.7597,0.7597,0.7163,0.6512,0.0,0.5881,0.5576,0.5528,0.5576,0.5623,0.582,0.5813,0.576,0.5671,0.5908,0.6268,0.662,0.7051,0.7584,0.8187,0.8601,0.8804,0.8804,0.8844,0.8602,0.7648,0.8064,0.8255,0.7067,0.7584,0.8174,0.8126,0.8282,0.8164,0.7379,0.5608,0.4061,0.3094,0.1652,0.0,0.0,0.0,0.0,0.6715,0.8177,0.9042,0.8892,0.8885,0.8885,0.8885,0.9178,0.9364,0.9364,0.9598,0.9747,0.9747,0.9795,0.9822,0.9822,0.9774,0.9747,0.9747,0.9693,0.9673,0.9673,0.9673,0.9673,0.9673,0.9673,0.9639,0.9585,0.949,0.9327,0.9117,0.0215,0.0,0.0,0.0,0.0249,0.0,0.0,0.0,0.0,0.0,0.0,0.0,0.0,0.0,0.0,0.0,0.0,0.0,0.0,0.0188,0.0348,0.038,0.0507,0.0601,0.0703,0.2554,0.3575,0.3748,0.4657,0.4496,0.3409,0.2301,0.1161,0.0089,0.262,0.3734,0.3877,0.6426,0.7489,0.7428,0.7319,0.7217,0.7102,0.6939,0.6444,0.0,0.5447,0.5033,0.4667,0.4798,0.4935,0.5085,0.5142,0.5216,0.5284,0.5291,0.5752,0.6463,0.7177,0.759,0.797,0.8628,0.8811,0.8885,0.8885,0.8491,0.782,0.6866,0.7155,0.7204,0.6149,0.6927,0.7834,0.7894,0.8167,0.789,0.6662,0.5799,0.4704,0.3209,0.2233,0.1667,0.0,0.0,0.0,0.5991,0.7933,0.9089,0.8892,0.8885,0.8885,0.8885,0.9225,0.9381,0.9381,0.9673,0.9822,0.9822,0.9822,0.9822,0.9822,0.9822,0.9822,0.9822,0.9822,0.9822,0.9822,0.9822,0.9822,0.9822,0.9822,0.9822,0.9808,0.972,0.9557,0.9347,0.0216,0.0,0.0,0.0,0.0,0.0,0.0,0.0,0.0,0.0,0.0,0.0,0.0,0.0,0.0,0.0,0.0,0.0,0.0,0.056,0.0941,0.1094,0.143,0.1714,0.199,0.2847,0.3518,0.3948,0.4251,0.3929,0.3017,0.2108,0.1098,0.0173,0.25,0.3581,0.3761,0.6278,0.7204,0.6991,0.6756,0.6471,0.6204,0.5788,0.5209,0.466,0.4552,0.4204,0.3792,0.3812,0.415,0.4491,0.4212,0.4591,0.5218,0.5555,0.6013,0.66,0.755,0.7841,0.8038,0.8703,0.8885,0.8885,0.8885,0.7765,0.6695,0.6664,0.615,0.5743,0.0,0.0,0.7369,0.7596,0.7753,0.7457,0.6437,0.6413,0.5958,0.0,0.0,0.0,0.0,0.0,0.0,0.4704,0.0,0.9096,0.8898,0.8885,0.8885,0.8885,0.9225,0.9381,0.9381,0.9673,0.9822,0.9822,0.9822,0.9822,0.9822,0.9822,0.9822,0.9822,0.9822,0.9822,0.9822,0.9822,0.9822,0.9822,0.9822,0.9822,0.9822,0.9822,0.9639,0.9374,0.0,0.0,0.0,0.0,0.0,0.0,0.0,0.0,0.0,0.0,0.0,0.0,0.0,0.0,0.0,0.0,0.0,0.0,0.0,0.0469,0.0812,0.0937,0.1372,0.1713,0.199,0.3006,0.3419,0.3174,0.3177,0.2815,0.2109,0.0984,0.0576,0.0878,0.2414,0.3381,0.3997,0.5567,0.6118,0.5976,0.5901,0.5794,0.5624,0.5624,0.5173,0.4559,0.4634,0.4293,0.3826,0.4031,0.4579,0.5228,0.5603,0.5856,0.6067,0.6329,0.6892,0.7502,0.7826,0.8258,0.8642,0.8838,0.8885,0.8885,0.8885,0.7765,0.6528,0.6006,0.5557,0.511,0.4558,0.0,0.0,0.5737,0.5463,0.0,0.349,0.3321,0.0,0.2813,0.2796,0.3265,0.4392,0.593,0.0,0.0,0.8045,0.9193,0.9096,0.8994,0.8885,0.8885,0.9225,0.9381,0.9381,0.9673,0.9822,0.9822,0.9822,0.9822,0.9822,0.9822,0.9822,0.9822,0.9822,0.9822,0.9822,0.9822,0.9822,0.9822,0.9822,0.9822,0.9822,0.9822,0.9707,0.9544,0.0,0.0,0.0,0.0,0.0,0.0,0.0,0.0,0.0,0.0,0.0,0.0,0.0,0.0,0.0,0.0,0.0,0.0,0.0,0.0797,0.1252,0.1583,0.1959,0.2318,0.2613,0.2857,0.2947,0.2908,0.2219,0.18,0.1563,0.0775,0.0618,0.1085,0.2536,0.3438,0.3893,0.5117,0.5597,0.0,0.0,0.5132,0.4982,0.4873,0.4525,0.4122,0.4272,0.4402,0.4566,0.4874,0.5278,0.5725,0.617,0.6388,0.6539,0.6966,0.7482,0.7934,0.8285,0.8629,0.8885,0.8885,0.8885,0.8797,0.8467,0.7282,0.6016,0.5278,0.4754,0.4313,0.3964,0.4283,0.4665,0.0,0.0,0.0,0.2314,0.2752,0.3222,0.3223,0.3836,0.4815,0.627,0.7308,0.7862,0.0,0.8652,0.918,0.9062,0.8981,0.8967,0.9028,0.9259,0.9442,0.9571,0.9741,0.9822,0.9822,0.9822,0.9822,0.9822,0.9822,0.9822,0.9822,0.0,0.9822,0.9822,0.9822,0.9822,0.9761,0.9019,0.8775,0.8653,0.7917,0.7538,0.7562,0.0,0.0,0.0,0.0,0.0,0.0,0.0,0.0,0.0,0.062,0.0603,0.046,0.0,0.0,0.0,0.0,0.0,0.0,0.0,0.0,0.1894,0.2442,0.2744,0.3046,0.3385,0.2629,0.2411,0.2753,0.1499,0.0968,0.1111,0.0984,0.095,0.1106,0.2782,0.3563,0.3729,0.4759,0.5201,0.5153,0.4757,0.4511,0.4334,0.0,0.374,0.3651,0.3792,0.449,0.544,0.5895,0.6087,0.624,0.6437,0.6702,0.7041,0.7563,0.7929,0.8224,0.8743,0.8885,0.8885,0.8885,0.8885,0.8689,0.8011,0.6651,0.5445,0.4806,0.4074,0.3619,0.3867,0.4042,0.4214,0.4383,0.0,0.3091,0.1891,0.2973,0.3975,0.4198,0.5644,0.7138,0.8487,0.8984,0.9221,0.9187,0.92,0.9096,0.8974,0.8892,0.9015,0.9234,0.9334,0.9544,0.9815,0.9822,0.9822,0.9822,0.9822,0.9822,0.9822,0.9822,0.9822,0.9822,0.9822,0.0,0.9822,0.9822,0.97,0.9329,0.7972,0.724,0.6869,0.5406,0.4814,0.4938,0.0,0.0,0.0,0.0,0.0,0.0,0.0,0.0,0.0,0.0,0.013,0.0097,0.0,0.0,0.0,0.0,0.0,0.0,0.0,0.0,0.0,0.2247,0.2676,0.3027,0.3303,0.2742,0.2297,0.199,0.1252,0.0679,0.0245,0.068,0.1231,0.1849,0.2659,0.3345,0.3931,0.4148,0.4178,0.4056,0.3975,0.3883,0.3761,0.3802,0.0,0.0,0.4045,0.457,0.5277,0.5983,0.6668,0.721,0.7604,0.7936,0.8194,0.8296,0.8547,0.875,0.8858,0.8885,0.8885,0.8885,0.8885,0.8716,0.8096,0.6715,0.5593,0.5591,0.4406,0.3598,0.4379,0.4161,0.366,0.2999,0.236,0.1609,0.0524,0.0594,0.1252,0.246,0.4086,0.5609,0.6966,0.8495,0.0,0.0,0.0,0.92,0.9173,0.9001,0.9062,0.9334,0.949,0.9652,0.9822,0.9822,0.9822,0.9822,0.9822,0.9822,0.9822,0.9822,0.9822,0.9822,0.9822,0.0,0.9822,0.9822,0.9019,0.7789,0.7484,0.6564,0.5284,0.4977,0.4909,0.4896,0.0,0.0,0.0,0.0,0.0,0.0,0.0,0.059,0.0265,0.003,0.0,0.0,0.0,0.0,0.0,0.0,0.0,0.0,0.0,0.0,0.0,0.2651,0.2816,0.2842,0.2722,0.2171,0.1658,0.1231,0.0,0.0288,0.0021,0.0941,0.1558,0.194,0.2858,0.3457,0.3792,0.3792,0.3751,0.3713,0.3765,0.3751,0.3726,0.0,0.0,0.0,0.414,0.4705,0.5413,0.5733,0.6538,0.7448,0.7847,0.8241,0.8479,0.8479,0.8696,0.8885,0.8885,0.8885,0.8885,0.8885,0.8885,0.8602,0.7584,0.6737,0.5972,0.5266,0.4478,0.4053,0.4512,0.4102,0.3597,0.3227,0.2202,0.1325,0.0914,0.0357,0.0849,0.3215,0.4184,0.557,0.78,0.8826,0.9259,0.8905,0.0,0.918,0.9049,0.9123,0.9273,0.9496,0.9646,0.9754,0.9822,0.9822,0.9822,0.9822,0.9822,0.9822,0.9822,0.9822,0.9822,0.9822,0.9822,0.0,0.9822,0.9822,0.8836,0.7296,0.6446,0.51,0.3566,0.2647,0.2339,0.2462,0.0,0.0,0.0,0.0,0.0,0.0,0.0,0.0478,0.0,0.0,0.0,0.0,0.0,0.0,0.0,0.0,0.0,0.0,0.0,0.0,0.0,0.0,0.0,0.0,0.0,0.0,0.0,0.0,0.0235,0.0,0.0,0.0,0.0,0.0,0.3066,0.3604,0.3604,0.3604,0.3617,0.0,0.0,0.3812,0.0,0.0,0.0,0.0,0.0,0.4748,0.5385,0.5433,0.6149,0.7082,0.759,0.8024,0.8343,0.8377,0.8581,0.8818,0.8858,0.8885,0.8885,0.8885,0.8885,0.8501,0.7082,0.6722,0.6281,0.4846,0.4511,0.4498,0.4532,0.417,0.3871,0.3865,0.2792,0.1909,0.1614,0.0881,0.1213,0.3442,0.4286,0.5657,0.7955,0.8929,0.0,0.0,0.0,0.0,0.8994,0.9266,0.9483,0.9605,0.9379,0.9268,0.9268,0.8958,0.8958,0.9268,0.9268,0.9451,0.9822,0.9822,0.9822,0.9822,0.9822,0.0,0.0,0.9822,0.8653,0.6747,0.5406,0.3689,0.1787,0.0494,0.0,0.0185,0.0,0.0,0.0,0.0,0.0,0.0,0.0,0.0754,0.0,0.0,0.0,0.0,0.0,0.0,0.0,0.0,0.0,0.0,0.0,0.0,0.0,0.0,0.0,0.0,0.0,0.0,0.0,0.0,0.0,0.0,0.0,0.0,0.0,0.0,0.0,0.0,0.3604,0.3604,0.0,0.0,0.0,0.0,0.0,0.0,0.0,0.0,0.0,0.4525,0.4696,0.5371,0.565,0.5881,0.66,0.7305,0.7902,0.7988,0.8201,0.8418,0.8825,0.8885,0.8885,0.8885,0.8885,0.8528,0.7173,0.6803,0.6315,0.4952,0.4586,0.4532,0.4675,0.4743,0.4599,0.4051,0.4126,0.3574,0.1866,0.1596,0.135,0.0551,0.3071,0.4908,0.4925,0.7772,0.0,0.0,0.0,0.0,0.92,0.9422,0.9598,0.9612,0.834,0.7606,0.7606,0.6141,0.6141,0.7606,0.7606,0.8404,0.9822,0.9822,0.9822,0.9822,0.9822,0.0,0.0,0.9822,0.7978,0.51,0.4977,0.3016,0.0185,0.0062,0.0,0.0,0.0,0.0,0.0,0.0,0.0,0.0,0.1769,0.1162,0.0487,0.0042,0.0,0.0,0.0,0.0,0.0,0.0,0.0,0.0,0.0,0.0,0.0,0.0,0.0,0.0,0.0,0.0,0.1165,0.0286,0.0086,0.0,0.0,0.0,0.0,0.0,0.0,0.0,0.0,0.3692,0.0,0.0,0.0,0.0,0.0,0.0,0.0,0.0,0.0,0.0,0.4662,0.4873,0.5248,0.5596,0.5616,0.6139,0.6849,0.7672,0.8079,0.837,0.8818,0.8885,0.8885,0.8885,0.8737,0.8228,0.7061,0.6532,0.5962,0.4825,0.4532,0.4539,0.466,0.4741,0.4622,0.4102,0.3608,0.3123,0.2569,0.2079,0.1926,0.2372,0.3661,0.489,0.0,0.0,0.0,0.0,0.0,0.0,0.6498,0.8484,0.8743,0.6817,0.7155,0.693,0.5896,0.5223,0.5223,0.5896,0.5896,0.6752,0.8343,0.8343,0.8897,0.9822,0.9822,0.0,0.0,0.8775,0.6996,0.4794,0.3812,0.2033,0.0,0.0,0.0,0.0,0.0,0.0,0.0,0.0,0.0,0.2229,0.2136,0.1545,0.0916,0.0373,0.0125,0.0,0.0,0.0,0.0095,0.0294,0.124,0.0,0.0,0.0,0.0,0.0,0.0,0.0,0.0,0.0,0.1047,0.0328,0.0329,0.0703,0.0,0.0,0.0,0.0,0.0,0.0,0.0,0.0,0.0,0.0,0.0,0.0,0.0,0.0,0.0,0.0,0.0,0.0,0.0,0.0,0.0,0.5277,0.5006,0.5338,0.6051,0.7156,0.7733,0.8119,0.8655,0.8817,0.8774,0.838,0.8275,0.7892,0.6374,0.6035,0.5732,0.4709,0.4491,0.4525,0.4634,0.4452,0.42,0.3963,0.3194,0.2765,0.312,0.2699,0.2736,0.3772,0.0,0.5322,0.0,0.0,0.0,0.0,0.0,0.0,0.0,0.6724,0.7195,0.4977,0.5586,0.5403,0.418,0.3689,0.3689,0.418,0.418,0.5039,0.6691,0.7179,0.8033,0.9079,0.9079,0.0,0.0,0.7545,0.5953,0.4732,0.3139,0.1479,0.0,0.0,0.0,0.0,0.0,0.0,0.0,0.0,0.0,0.0,0.2891,0.1855,0.108,0.1088,0.0471,0.0,0.0,0.0,0.0302,0.1022,0.1514,0.0,0.0,0.0,0.0,0.0,0.0,0.0,0.0,0.0,0.0975,0.1093,0.1089,0.146,0.2188,0.2062,0.2388,0.0,0.0,0.0,0.0,0.0,0.0,0.0,0.0,0.0,0.0,0.0,0.0,0.0,0.0,0.0,0.0,0.0,0.0,0.0,0.0,0.5128,0.5576,0.6451,0.7027,0.7589,0.8282,0.871,0.8546,0.7093,0.7523,0.7644,0.5114,0.528,0.5732,0.4709,0.4491,0.4491,0.4491,0.384,0.341,0.3765,0.3299,0.2976,0.3255,0.3471,0.357,0.3584,0.5173,0.6354,0.6468,0.0,0.0,0.0,0.0,0.0,0.0,0.405,0.4958,0.4913,0.3384,0.2524,0.2524,0.0863,0.0863,0.2524,0.2524,0.3384,0.4977,0.6625,0.7423,0.0,0.0,0.0,0.0,0.6263,0.4916,0.4732,0.3139,0.1479,0.0,0.0,0.0,0.0,0.0,0.0,0.0,0.0,0.0,0.0,0.0,0.2304,0.1677,0.1181,0.0458,0.0,0.0,0.0,0.0306,0.1029,0.1608,0.0,0.0,0.0,0.0,0.0,0.0,0.0,0.0,0.0,0.1672,0.144,0.2029,0.2719,0.341,0.2781,0.2739,0.3238,0.3109,0.0,0.0,0.0,0.0,0.0,0.0,0.0,0.0,0.0,0.0,0.0,0.0,0.0,0.0,0.0,0.0,0.0,0.0,0.0,0.0,0.5644,0.6396,0.7163,0.7604,0.7868,0.7822,0.7129,0.7002,0.6786,0.5648,0.5377,0.523,0.4621,0.4491,0.4525,0.4627,0.4339,0.4148,0.4252,0.323,0.267,0.3389,0.2847,0.2766,0.373,0.4687,0.5199,0.0,0.0,0.0,0.0,0.0,0.0,0.0,0.1292,0.1551,0.1576,0.2144,0.1971,0.0802,0.0247,0.0247,0.0802,0.0802,0.1663,0.3259,0.3812,0.4668,0.0,0.0,0.0,0.0,0.4119,0.3262,0.3077,0.1417,0.0494,0.0,0.0,0.0,0.0,0.0,0.0,0.0,0.0,0.0,0.0,0.0,0.283,0.2286,0.1533,0.0855,0.0324,0.0036,0.0,0.03,0.1046,0.1705,0.0,0.0,0.0,0.0,0.0,0.0,0.0,0.1802,0.1802,0.1913,0.2153,0.2977,0.387,0.4731,0.3434,0.3102,0.3528,0.3003,0.2883,0.0,0.0,0.0,0.0,0.0,0.0,0.4436,0.0,0.0,0.0,0.0,0.0,0.0,0.0,0.0,0.0,0.0,0.0,0.0,0.0,0.5739,0.6451,0.6973,0.7272,0.7243,0.6465,0.6338,0.6171,0.5188,0.5004,0.4846,0.4201,0.407,0.4067,0.4153,0.3653,0.3297,0.3583,0.2711,0.2183,0.2844,0.2617,0.2762,0.3795,0.0,0.0,0.0,0.0,0.0,0.0,0.0,0.0,0.0,0.0,0.0,0.0,0.1039,0.1045,0.0,0.0,0.0,0.0,0.0,0.0555,0.1602,0.2216,0.3077,0.0,0.0,0.0,0.0,0.2462,0.191,0.2339,0.0679,0.0,0.0,0.0,0.0,0.0,0.0,0.0,0.0,0.0,0.0,0.0,0.0,0.3399,0.2824,0.2081,0.1457,0.0794,0.0068,0.0,0.0313,0.1112,0.0,0.0,0.0,0.0,0.0,0.0,0.0,0.0,0.174,0.1389,0.1826,0.3099,0.3936,0.4938,0.6002,0.4067,0.3418,0.3902,0.2738,0.2661,0.0,0.0,0.0,0.0,0.0,0.4491,0.0,0.0,0.0,0.0,0.0,0.0,0.0,0.0,0.0,0.0,0.0,0.0,0.0,0.0,0.0,0.0,0.0,0.679,0.6653,0.5236,0.5543,0.5745,0.4051,0.4301,0.0,0.3671,0.3428,0.3405,0.3431,0.2244,0.1533,0.2362,0.2052,0.1768,0.1898,0.2766,0.3547,0.3836,0.5375,0.0,0.0,0.0,0.0,0.0,0.0,0.0,0.0,0.0,0.0,0.0,0.0,0.0,0.0,0.0,0.0,0.0,0.0,0.0,0.0062,0.1602,0.2339,0.0,0.0,0.0,0.0,0.1233,0.0925,0.2156,0.0617,0.0,0.0,0.0,0.0,0.0,0.0,0.0,0.0,0.0,0.0,0.0,0.0,0.0,0.0,0.0,0.1381,0.0718,0.0057,0.0,0.0529,0.0,0.0,0.0,0.0,0.0,0.0,0.0,0.0,0.0,0.1117,0.1916,0.2624,0.3253,0.4983,0.606,0.6498,0.4458,0.3469,0.3423,0.2582,0.2966,0.0,0.0,0.0,0.0,0.4491,0.4491,0.0,0.0,0.0,0.0,0.4491,0.4586,0.0,0.0,0.0,0.0,0.0,0.0,0.0,0.0,0.4796,0.4918,0.525,0.0,0.5654,0.5052,0.5067,0.5086,0.0,0.4603,0.4658,0.4302,0.4236,0.4311,0.4631,0.364,0.3379,0.521,0.396,0.2843,0.3155,0.3972,0.4606,0.4757,0.5067,0.5042,0.0,0.0,0.0,0.0,0.0,0.0,0.0,0.0,0.0,0.0,0.0,0.0,0.0,0.0,0.0,0.0,0.0,0.0,0.0,0.0432,0.0617,0.0,0.0,0.0,0.111,0.0308,0.0247,0.0555,0.0123,0.0,0.0,0.0,0.0,0.0,0.0,0.0,0.0,0.0,0.0,0.0,0.0,0.0,0.0,0.0,0.0,0.1177,0.0571,0.0194,0.0,0.0,0.0,0.0,0.0,0.0,0.0,0.0,0.0,0.1391,0.1394,0.2194,0.3061,0.4051,0.5569,0.6593,0.7065,0.4752,0.3617,0.3494,0.2601,0.3066,0.0,0.0,0.0,0.0,0.4491,0.0,0.0,0.0,0.0,0.0,0.4491,0.4586,0.0,0.4748,0.4823,0.4877,0.0,0.0,0.0,0.0,0.4614,0.4634,0.4687,0.5057,0.5358,0.5162,0.5067,0.4961,0.4911,0.4735,0.4474,0.4027,0.3987,0.4072,0.4351,0.3753,0.374,0.5314,0.4308,0.3415,0.3648,0.4223,0.4643,0.4916,0.4774,0.0,0.0,0.0,0.0,0.0,0.0,0.0,0.0,0.0,0.0,0.0,0.0,0.0,0.0,0.0,0.0,0.0,0.0,0.0,0.0,0.0,0.0,0.0,0.0,0.0,0.0,0.0,0.0,0.0,0.0,0.0,0.0,0.0,0.0,0.0,0.0,0.0,0.0,0.0,0.0,0.0,0.0,0.0,0.0,0.0,0.0,0.0,0.0,0.0,0.0,0.0,0.0,0.0,0.0,0.0,0.0,0.0,0.0,0.1339,0.1958,0.2441,0.3412,0.4897,0.5899,0.6763,0.7483,0.5209,0.4019,0.3647,0.2865,0.318,0.0,0.0,0.0,0.0,0.4491,0.0,0.0,0.0,0.0,0.0,0.0,0.0,0.0,0.4952,0.5029,0.5056,0.5009,0.0,0.0,0.0,0.0,0.0,0.46,0.5051,0.546,0.5296,0.5079,0.4925,0.5011,0.47,0.4216,0.3649,0.3593,0.372,0.3964,0.3475,0.3444,0.4763,0.4198,0.3674,0.3862,0.3917,0.4139,0.4674,0.4432,0.0,0.0,0.0,0.0,0.0,0.0,0.0,0.0,0.0,0.0,0.0,0.0,0.0,0.0,0.0,0.0,0.0,0.0,0.0,0.0,0.0,0.0,0.0,0.0,0.0,0.0,0.0,0.0,0.0,0.0,0.0,0.0,0.0,0.0,0.0,0.0,0.0,0.0,0.0,0.0,0.0,0.0,0.0,0.0,0.0,0.0,0.0,0.0,0.0,0.0,0.0,0.0,0.0,0.0,0.0,0.0,0.2323,0.2024,0.1826,0.1831,0.3006,0.4044,0.4897,0.6194,0.6916,0.7179,0.6311,0.4926,0.3245,0.3689,0.3732,0.3539,0.4208,0.0,0.4491,0.4491,0.0,0.0,0.0,0.0,0.0,0.0,0.0,0.0,0.4621,0.4735,0.4874,0.4675,0.0,0.0,0.0,0.0,0.0,0.5119,0.5569,0.5711,0.4853,0.4315,0.4144,0.4631,0.4231,0.3906,0.4513,0.467,0.493,0.5729,0.4067,0.3575,0.6612,0.525,0.3912,0.0,0.0,0.3357,0.4841,0.0,0.0,0.0,0.0,0.0,0.0,0.0,0.0,0.0,0.0,0.0,0.0,0.0,0.0,0.0,0.0,0.0,0.0,0.0,0.0,0.0,0.0,0.0,0.0,0.0,0.0,0.0,0.0,0.0,0.0,0.0,0.0,0.0,0.0,0.0,0.0,0.0,0.0,0.0,0.0,0.0,0.0,0.0,0.0,0.0,0.0,0.0,0.0,0.0,0.0,0.0,0.0,0.0,0.0,0.0,0.0,0.0,0.2684,0.2553,0.2651,0.2982,0.3853,0.486,0.5981,0.6781,0.7326,0.757,0.6264,0.49,0.3585,0.3711,0.3831,0.3987,0.4346,0.4491,0.4491,0.0,0.0,0.0,0.0,0.0,0.0,0.0,0.0,0.0,0.0,0.4857,0.4961,0.4775,0.0,0.0,0.0,0.0,0.0,0.4832,0.5203,0.5454,0.5243,0.548,0.5611,0.5051,0.4558,0.4044,0.3555,0.3454,0.3589,0.414,0.348,0.3216,0.4383,0.4179,0.3781,0.3297,0.3349,0.3768,0.0,0.0,0.0,0.0,0.0,0.0,0.0,0.0,0.0,0.0,0.0,0.0,0.0,0.0,0.0,0.0,0.0,0.0,0.0,0.0,0.0,0.0,0.0,0.0,0.0,0.0,0.0,0.0,0.0,0.0,0.0,0.0,0.0,0.0,0.0,0.0,0.0,0.0,0.0,0.0,0.0,0.0,0.0,0.0,0.0,0.0,0.0,0.0,0.0,0.0,0.0,0.0,0.0,0.0,0.0,0.0,0.0,0.2255,0.2914,0.2954,0.3412,0.4402,0.4842,0.5724,0.7034,0.7326,0.7685,0.8022,0.6362,0.5074,0.4184,0.3955,0.3989,0.4236,0.4408,0.4491,0.4491,0.0,0.0,0.0,0.0,0.0,0.0,0.0,0.0,0.0,0.0,0.0,0.0,0.0,0.0,0.0,0.4655,0.4545,0.4573,0.4716,0.4844,0.5132,0.5851,0.6324,0.648,0.5773,0.521,0.442,0.3131,0.3202,0.3315,0.2778,0.3377,0.3393,0.1776,0.3028,0.3562,0.1939,0.2571,0.0,0.0,0.0,0.0,0.0,0.0,0.0,0.0,0.0,0.0,0.0,0.0,0.0,0.0,0.0,0.0,0.0,0.0,0.0,0.0,0.0,0.0,0.0,0.0,0.0,0.0,0.0,0.0,0.0,0.0,0.0,0.0,0.0,0.0,0.0,0.0,0.0,0.0,0.0,0.0,0.0,0.0,0.0,0.0,0.0,0.0,0.0,0.0,0.0,0.0,0.0,0.0,0.0,0.0,0.0,0.0,0.0,0.0,0.1593,0.2514,0.2883,0.3912,0.563,0.6019,0.6593,0.7385,0.7638,0.7943,0.8235,0.7356,0.6191,0.4864,0.5133,0.4547,0.3428,0.4181,0.4491,0.4491,0.4491,0.0,0.0,0.0,0.0,0.0,0.0,0.0,0.0,0.0,0.0,0.0,0.0,0.0,0.4867,0.4728,0.4674,0.4796,0.5359,0.5025,0.4896,0.6284,0.5516,0.4918,0.682,0.611,0.5027,0.4931,0.6153,0.642,0.3745,0.4971,0.505,0.0805,0.2662,0.3592,0.0,0.0,0.0,0.0,0.0,0.0,0.0,0.0,0.0,0.0,0.0,0.0,0.0,0.0,0.0,0.0,0.0,0.0,0.0,0.0,0.0,0.0,0.0,0.0,0.0,0.0,0.0,0.0,0.0,0.0,0.0,0.0,0.0,0.0,0.0,0.0,0.0,0.0,0.0,0.0,0.0,0.0,0.0,0.0,0.0,0.0,0.0,0.0,0.0,0.0,0.0,0.0,0.0,0.0,0.0,0.0,0.0,0.0,0.0,0.1506,0.1631,0.2828,0.3151,0.4184,0.6089,0.6577,0.7177,0.7979,0.8045,0.7707,0.6846,0.6544,0.5656,0.4359,0.4703,0.4634,0.4318,0.4426,0.46,0.4728,0.4566,0.4491,0.0,0.0,0.0,0.0,0.0,0.0,0.0,0.0,0.4674,0.4802,0.4634,0.4782,0.4975,0.4762,0.4694,0.4741,0.4972,0.4512,0.4363,0.6028,0.5416,0.4777,0.6193,0.6221,0.5775,0.5092,0.5461,0.5541,0.4302,0.3214,0.2241,0.1373,0.1563,0.0,0.0,0.0,0.0,0.0,0.0,0.0,0.0,0.0,0.0,0.0,0.0,0.0,0.0,0.0,0.0,0.0,0.0,0.0,0.0,0.0,0.0,0.0,0.0,0.0,0.0,0.0,0.0,0.0,0.0,0.0,0.0,0.0,0.0,0.0,0.0,0.0,0.0,0.0,0.0,0.0,0.0,0.0,0.0,0.0,0.0,0.0,0.0,0.0,0.0,0.0,0.0,0.0,0.0,0.0,0.0,0.0,0.0,0.0,0.1868,0.1174,0.1402,0.2851,0.3135,0.4167,0.6105,0.6742,0.7373,0.8033,0.8126,0.7592,0.6357,0.62,0.5657,0.4717,0.4772,0.4921,0.5108,0.4755,0.4701,0.4823,0.4593,0.4491,0.0,0.0,0.0,0.0,0.0,0.0,0.0,0.0,0.4668,0.4755,0.4668,0.4816,0.4995,0.4823,0.4586,0.4504,0.488,0.4131,0.3655,0.5246,0.5218,0.4994,0.5811,0.61,0.5987,0.5099,0.4473,0.4113,0.3923,0.2155,0.0889,0.0,0.1065,0.0,0.0,0.0,0.0,0.0,0.0,0.0,0.0,0.0,0.0,0.0,0.0,0.0,0.0,0.0,0.0,0.0,0.0,0.0,0.0,0.0,0.0,0.0,0.0,0.0,0.0,0.0,0.0,0.0,0.0,0.0,0.0,0.0,0.0,0.0,0.0,0.0,0.0,0.0,0.0,0.0,0.0,0.0,0.0,0.0,0.0,0.0,0.0,0.0,0.0,0.0,0.0,0.0,0.0,0.0,0.0,0.0,0.0,0.0,0.1146,0.042,0.0766,0.243,0.2764,0.3799,0.5743,0.6532,0.7068,0.7419,0.7814,0.7678,0.7078,0.6675,0.6436,0.6272,0.5665,0.5481,0.5555,0.5108,0.483,0.468,0.4552,0.4491,0.4491,0.0,0.0,0.0,0.0,0.0,0.0,0.0,0.4614,0.4545,0.4823,0.4887,0.4894,0.4887,0.4381,0.4077,0.5265,0.4082,0.2776,0.3903,0.4777,0.549,0.5899,0.5774,0.55,0.5033,0.366,0.25,0.253,0.2493,0.0,0.0275,0.0,0.0,0.0,0.0,0.0,0.0,0.0,0.0,0.0,0.0,0.0,0.0,0.0,0.0,0.0,0.0,0.0,0.0,0.0,0.0,0.0,0.0,0.0,0.0,0.0,0.0,0.0,0.0,0.0,0.0,0.0,0.0,0.0,0.0,0.0,0.0,0.0,0.0,0.0,0.0,0.0,0.0,0.0,0.0,0.0,0.0,0.0,0.0,0.0,0.0,0.0,0.0,0.0,0.0,0.0,0.0,0.0,0.0,0.0,0.0,0.1118,0.0894,0.1235,0.2236,0.3101,0.399,0.4988,0.5657,0.6444,0.7419,0.7502,0.6898,0.5546,0.6112,0.5797,0.4856,0.5425,0.5617,0.544,0.5067,0.4921,0.4948,0.4721,0.4648,0.4648,0.0,0.0,0.0,0.0,0.0,0.0,0.0,0.0,0.0,0.4728,0.4979,0.5189,0.4979,0.4829,0.4758,0.492,0.3664,0.2532,0.3658,0.422,0.4567,0.4589,0.633,0.7694,0.6852,0.4463,0.2791,0.3712,0.2191,0.0,0.0,0.0,0.0,0.0,0.0,0.0,0.0,0.0,0.0,0.0,0.0,0.0,0.0,0.0,0.0,0.0,0.0,0.0,0.0,0.0,0.0,0.0,0.0,0.0,0.0,0.0,0.0,0.0,0.0,0.0,0.0,0.0,0.0,0.0,0.0,0.0,0.0,0.0,0.0,0.0,0.0,0.0,0.0,0.0,0.0,0.0,0.0,0.0,0.0,0.0,0.0,0.0,0.0,0.3876,0.3849,0.0,0.0,0.0,0.0,0.0,0.0,0.0672,0.095,0.1459,0.2274,0.322,0.4133,0.5047,0.5521,0.6057,0.6702,0.6783,0.6163,0.4853,0.5905,0.5996,0.5318,0.5996,0.6139,0.5822,0.5488,0.5304,0.5209,0.5026,0.4989,0.4982,0.0,0.0,0.0,0.0,0.0,0.0,0.0,0.0,0.0,0.4674,0.4907,0.5126,0.5094,0.4989,0.5007,0.5612,0.4728,0.386,0.4804,0.5047,0.4905,0.4472,0.5864,0.6944,0.5684,0.3897,0.2564,0.2668,0.1251,0.0,0.0,0.0,0.0,0.0,0.0,0.0,0.0,0.0,0.0,0.0,0.0,0.0,0.0,0.0,0.0,0.0,0.0,0.0,0.0,0.0,0.0,0.0,0.0,0.0,0.0,0.0,0.0,0.0,0.0,0.0,0.0,0.0,0.0,0.0,0.0,0.0,0.0,0.0,0.0,0.0,0.0,0.0,0.0,0.0,0.0,0.0,0.0,0.0,0.0,0.0,0.0,0.0,0.34,0.3821,0.3959,0.0,0.0,0.0,0.2147,0.1478,0.081,0.014,0.0866,0.1699,0.2576,0.3338,0.4348,0.5555,0.582,0.5777,0.5426,0.5804,0.5549,0.4812,0.5983,0.6627,0.6869,0.7011,0.6858,0.6429,0.6078,0.5705,0.5351,0.5351,0.5351,0.5337,0.5162,0.0,0.0,0.0,0.0,0.0,0.0,0.0,0.0,0.4582,0.4643,0.4789,0.5214,0.492,0.4832,0.6742,0.6467,0.5797,0.6593,0.65,0.5986,0.5286,0.4867,0.4246,0.2827,0.2408,0.1813,0.0289,0.0,0.0,0.0,0.0,0.0,0.0,0.0,0.0,0.0,0.0,0.0,0.0,0.0,0.0,0.0,0.0,0.0,0.0,0.0,0.0,0.0,0.0,0.0,0.0,0.0,0.0,0.0,0.0,0.0,0.0,0.0,0.0,0.0,0.0,0.0,0.0,0.0,0.0,0.0,0.0,0.0,0.0,0.0,0.0,0.0,0.0,0.0,0.0,0.0,0.0,0.0,0.0,0.0,0.2869,0.3317,0.248,0.198,0.2425,0.1924,0.0,0.1341,0.1202,0.1034,0.0866,0.2091,0.3001,0.3333,0.4428,0.5147,0.544,0.5352,0.4945,0.4176,0.5203,0.5594,0.5434,0.6168,0.6573,0.6756,0.6862,0.6593,0.5915,0.5467,0.517,0.5013,0.5013,0.5013,0.5013,0.4948,0.4775,0.0,0.0,0.0,0.0,0.0,0.0,0.0,0.3972,0.4296,0.4863,0.4843,0.4438,0.4288,0.5733,0.5126,0.4441,0.5862,0.5707,0.547,0.6635,0.4845,0.2932,0.2592,0.147,0.0412,0.0,0.0,0.0,0.0,0.0,0.0,0.0,0.0,0.0,0.0,0.0,0.0,0.0,0.0,0.0,0.0,0.0,0.0,0.0,0.0,0.0,0.0,0.0,0.0,0.0,0.0,0.0,0.0,0.0,0.0,0.0,0.0,0.0,0.0,0.0,0.0,0.0,0.0,0.0,0.0,0.0,0.0,0.0,0.0,0.0,0.0,0.0,0.0,0.0,0.0,0.0,0.0,0.0,0.0,0.3178,0.2869,0.2452,0.2063,0.1701,0.1646,0.0,0.0,0.1618,0.1618,0.1618,0.2702,0.362,0.4189,0.5036,0.5405,0.5155,0.5103,0.477,0.4141,0.4779,0.5035,0.4937,0.5824,0.6417,0.6702,0.6783,0.6444,0.5786,0.5549,0.5325,0.5142,0.5284,0.5298,0.523,0.5162,0.4897,0.4593,0.4518,0.0,0.0,0.0,0.0,0.0,0.0,0.0,0.4728,0.4863,0.4785,0.4806,0.5454,0.5143,0.4782,0.5342,0.5773,0.6137,0.6194,0.4261,0.2497,0.2496,0.1183,0.0,0.0,0.0,0.0,0.0,0.0,0.0,0.0,0.0,0.0,0.0,0.0,0.0,0.0,0.0,0.0,0.0,0.0,0.0,0.0,0.0,0.0,0.0,0.0,0.0,0.0,0.0,0.0,0.0,0.0,0.0,0.0,0.0,0.0,0.0,0.0,0.0,0.0,0.0,0.0,0.0,0.0,0.0,0.0,0.0,0.0,0.0,0.0,0.0,0.0,0.0,0.0,0.0,0.0,0.0,0.0,0.2397,0.2674,0.248,0.1062,0.1453,0.1868,0.0,0.0,0.0,0.2369,0.3165,0.3961,0.4692,0.5101,0.5147,0.4783,0.4841,0.4789,0.4566,0.4545,0.4505,0.4462,0.5476,0.6227,0.6661,0.6607,0.6281,0.5759,0.565,0.5467,0.5303,0.5508,0.5542,0.542,0.5324,0.503,0.4662,0.4539,0.4491,0.4491,0.4346,0.0,0.0,0.0,0.0,0.4559,0.4904,0.5107,0.5261,0.5411,0.563,0.5748,0.5379,0.5964,0.633,0.5546,0.3641,0.2141,0.2469,0.0,0.0,0.0,0.0,0.0,0.0,0.0,0.0,0.0,0.0,0.0,0.0,0.0,0.0,0.0,0.0,0.0,0.0,0.0,0.0,0.0,0.0,0.0,0.0,0.0,0.0,0.0,0.0,0.0,0.0,0.0,0.0,0.0,0.0,0.0,0.0,0.0,0.0,0.0,0.0,0.0,0.0,0.0,0.0,0.0,0.0,0.0,0.0,0.0,0.0,0.0,0.0,0.0,0.0,0.0,0.0,0.0,0.0,0.1729,0.109,0.0252,0.0224,0.056,0.1202,0.184,0.248,0.3123,0.0,0.0,0.3956,0.4103,0.4246,0.4301,0.4087,0.4272,0.4857,0.4728,0.4935,0.5424,0.571,0.6071,0.6532,0.6234,0.5935,0.5583,0.506,0.4816,0.4782,0.4823,0.483,0.4809,0.4789,0.4689,0.4518,0.4498,0.4491,0.4408,0.3766,0.3959,0.0,0.0,0.0,0.4505,0.4559,0.4168,0.3979,0.5237,0.5681,0.6013,0.6867,0.5089,0.3863,0.6485,0.3549,0.0736,0.0,0.0,0.0,0.0,0.0,0.0,0.0,0.0,0.0,0.0,0.0,0.0,0.0,0.0,0.0,0.0,0.0,0.0,0.0,0.0,0.0,0.0,0.0,0.0,0.0,0.0,0.0,0.0,0.0,0.0,0.0,0.0,0.0,0.0,0.0,0.0,0.0,0.0,0.0,0.0,0.0,0.0,0.0,0.0,0.0,0.0,0.0,0.0,0.0,0.0,0.0,0.0,0.0,0.0,0.0,0.0,0.0,0.0,0.0,0.0,0.1285,0.0112,0.0364,0.0755,0.1062,0.2147,0.3151,0.3932,0.4428,0.4393,0.3708,0.3819,0.369,0.3272,0.355,0.3795,0.399,0.4393,0.4948,0.5589,0.565,0.5962,0.6491,0.5901,0.5583,0.546,0.4911,0.4694,0.4701,0.4782,0.4527,0.4138,0.4545,0.4351,0.3887,0.3886,0.3849,0.3705,0.298,0.3206,0.376,0.34,0.0,0.0,0.0,0.432,0.4105,0.3916,0.42,0.4582,0.4614,0.4242,0.4242,0.5647,0.3628,0.1602,0.0,0.0,0.0,0.0,0.0,0.0,0.0,0.0,0.0,0.0,0.0,0.0,0.0,0.0,0.0,0.0,0.0,0.0,0.0,0.0,0.0,0.0,0.0,0.0,0.0,0.0,0.0,0.0,0.0,0.0,0.0,0.0,0.0,0.0,0.0,0.0,0.0,0.0,0.0,0.0,0.0,0.0,0.0,0.0,0.0,0.0,0.0,0.0,0.0,0.0,0.0,0.0,0.0,0.0,0.0,0.0,0.0,0.0,0.0,0.0,0.1646,0.0168,0.0,0.0,0.0,0.2286,0.3428,0.4436,0.4424,0.4024,0.3271,0.3171,0.2909,0.2434,0.2954,0.3375,0.3594,0.4247,0.4935,0.5644,0.5644,0.5983,0.6559,0.5883,0.5521,0.5426,0.4938,0.4769,0.4793,0.4578,0.4104,0.3622,0.4317,0.4155,0.3618,0.382,0.3751,0.344,0.296,0.2896,0.3095,0.3483,0.3853,0.0,0.0,0.0,0.4153,0.275,0.2749,0.3015,0.2591,0.3098,0.3902,0.4713,0.0,0.1971,0.0,0.0,0.0,0.0,0.0,0.0,0.0,0.0,0.0,0.0,0.0,0.0,0.0,0.0,0.0,0.0,0.0,0.0,0.0,0.0,0.0,0.0,0.0,0.0,0.0,0.0,0.0,0.0,0.0,0.0,0.0,0.0,0.0,0.0,0.0,0.0,0.0,0.0,0.0,0.0,0.0,0.0,-0.0062,-0.0494,-0.0617,-0.0679,-0.111,-0.0986,-0.0617,0.0,0.0,0.0,0.0,0.0,0.0,0.0,0.0,0.0,0.0,0.0,0.1646,0.0168,0.0028,0.0336,0.1034,0.1813,0.2896,0.4408,0.3855,0.31,0.232,0.1597,0.0,0.2209,0.2265,0.2989,0.4436,0.4606,0.506,0.5793,0.5793,0.6186,0.6836,0.6229,0.584,0.5549,0.5094,0.4955,0.4982,0.3834,0.3391,0.3483,0.4033,0.4216,0.4245,0.5037,0.4811,0.4181,0.433,0.3428,0.2508,0.3987,0.3848,0.3298,0.0,0.0,0.0,0.2373,0.1963,0.1977,0.238,0.1359,0.1068,0.4174,0.0,0.0,0.0,0.0,0.0,0.0,0.0,0.0,0.0,0.0,0.0,0.0,0.0,0.0,0.0,0.0,0.0,0.0,0.0,0.0,0.0,0.0,0.0,0.0,0.0,0.0,0.0,0.0,0.0,0.0,0.0,0.0,0.0,0.0,0.0,0.0,0.0,0.0,0.0,0.0,0.0,0.0,0.0,0.0,-0.0185,-0.1725,-0.2339,-0.2585,-0.4057,-0.3689,-0.2339,0.0,0.0,0.0,0.0,0.0,0.0,0.0,0.0,0.0,0.0,0.0,0.0,0.0,0.0,0.0112,0.0364,0.1506,0.2841,0.4408,0.4263,0.3539,0.2258,0.1952,0.1701,0.1506,0.1952,0.2702,0.3732,0.4287,0.483,0.5339,0.5576,0.5861,0.6193,0.5881,0.5739,0.5677,0.4938,0.4714,0.4752,0.3703,0.3036,0.2754,0.3802,0.4036,0.3806,0.3882,0.3878,0.3644,0.2663,0.1945,0.1673,0.2702,0.2803,0.2584,0.2838,0.2836,0.2564,0.1657,0.1397,0.1279,0.0993,0.0454,0.0325,0.1508,0.0827,0.0,0.0,0.0,0.0,0.0,0.0,0.0,0.0,0.0,0.0,0.0,0.0,0.0,0.0,0.0,0.0,0.0,0.0,0.0,0.0,0.0,0.0,0.0,0.0,0.0,0.0,0.0,0.0,0.0,0.0,0.0,0.0,0.0,0.0,0.0,0.0,0.0,0.0,0.0,0.0,0.0,0.0,-0.0617,-0.1663,-0.2279,-0.3139,-0.4119,-0.4671,-0.4548,-0.4057,0.0,0.0,0.0,0.0,0.0,0.0,0.0,0.0,0.3566,0.2035,0.0,0.0,0.0,0.0,0.0196,0.07,0.1868,0.3123,0.4408,0.4263,0.3566,0.2258,0.1952,0.159,0.1118,0.1768,0.2509,0.3289,0.4098,0.4723,0.5103,0.5393,0.5616,0.5793,0.5549,0.5603,0.5833,0.5167,0.4928,0.4879,0.3577,0.2723,0.2419,0.3594,0.3871,0.3672,0.4381,0.4193,0.3478,0.265,0.1632,0.0941,0.2141,0.2611,0.2686,0.2445,0.2533,0.2567,0.1821,0.1519,0.1239,0.0482,0.0134,0.0,0.0,0.0,0.0,0.0,0.0,0.0,0.0,0.0,0.0,0.0,0.0,0.0,0.0,0.0,0.0,0.0,0.0,0.0,0.0,0.0,0.0,0.0,0.0,0.0,0.0,0.0,0.0,0.0,0.0,0.0,0.0,0.0,0.0,0.0,0.0,0.0,0.0,0.0,0.0,0.0,0.0,0.0,0.0,0.0,-0.0986,-0.2524,-0.3077,-0.4303,-0.5835,-0.6324,-0.6202,-0.5712,0.0,0.0,0.0,0.0,0.0,0.0,0.0,0.0,0.2817,0.1313,0.0,0.0,0.0,0.0,0.0,0.2041,0.2822,0.3572,0.4408,0.3788,0.304,0.223,0.1506,0.1146,0.1146,0.1706,0.2431,0.3345,0.4119,0.468,0.5083,0.5303,0.5528,0.5759,0.5292,0.5427,0.5946,0.5684,0.5569,0.5403,0.3346,0.2576,0.2672,0.354,0.3819,0.4034,0.6595,0.5847,0.375,0.4535,0.2675,0.0402,0.2445,0.3377,0.3601,0.2887,0.3192,0.358,0.0,0.0,0.0,0.1101,0.0479,0.004,0.0,0.0,0.0,0.0,0.0,0.0,0.0,0.0,0.0,0.0,0.0,0.0,0.0,0.0,0.0,0.0,0.0,0.0,0.0,0.0,0.0,0.0,0.0,0.0,0.0,0.0,0.0,0.0,0.0,0.0,0.0,0.0,0.0,0.0,0.0,0.0,0.0,0.0,0.0,0.0,0.0,0.0,0.0,-0.0062,-0.1048,-0.2708,-0.4364,-0.6018,-0.7667,-0.9207,-0.8836,-0.7484,0.0,0.0,0.0,0.0,0.0,0.2452,0.223,0.2397,0.2174,0.0,0.0,0.0,0.0112,0.0,0.0391,0.1319,0.1589,0.2291,0.3605,0.3456,0.298,0.223,0.2007,0.1896,0.1896,0.2047,0.2819,0.4181,0.4247,0.4423,0.4682,0.4832,0.4979,0.5169,0.5257,0.5332,0.5319,0.4945,0.5057,0.5358,0.4095,0.4038,0.4791,0.5378,0.0,0.0,0.0,0.5068,0.4401,0.0,0.1608,0.1112,0.2136,0.2477,0.2441,0.2143,0.225,0.2458,0.2247,0.0,0.0,0.0,0.0,0.0,0.0,0.0,0.0,0.0,0.0,0.0,0.0,0.0,0.0,0.0,0.0,0.0,0.0,0.0,0.0,0.0,0.0,0.0,0.0,0.0,0.0,0.0,0.0,0.0,0.0,0.0,0.0,0.0,0.0,0.0,0.0,0.0,0.0,0.0,0.0,0.0,0.0,0.0,0.0,0.0,0.0,0.0,-0.0123,-0.1295,-0.277,-0.4426,-0.6075,-0.7728,-0.9201,-0.9633,-0.9511,-0.914,0.0,0.0,0.3132,0.2497,0.2391,0.2267,0.189,0.2412,0.247,0.0,0.0,0.0,0.0119,0.0283,0.0645,0.1069,0.1393,0.1926,0.2829,0.3147,0.2841,0.1785,0.2035,0.2063,0.1757,0.1983,0.2724,0.3987,0.4127,0.4294,0.4491,0.458,0.4613,0.4618,0.4823,0.4809,0.4618,0.4389,0.466,0.5233,0.4788,0.4958,0.0,0.627,0.6446,0.0,0.0,0.0,0.3457,0.2211,0.1744,0.0,0.0,0.227,0.2847,0.2466,0.2625,0.2907,0.2849,0.269,0.2434,0.2038,0.0,0.0,0.054,0.0497,0.0,0.0,0.0,0.0,0.0,0.0,0.0,0.0,0.0,0.0,0.0,0.0,0.0,0.0,0.0,0.0,0.0,0.0,0.0,0.0,0.0,0.0,0.0,0.0,0.0,0.0,0.0,0.0,0.0,0.0,0.0,0.0,0.0,0.0,0.0,0.0,0.0,0.0,0.0,-0.0369,-0.1039,-0.2762,-0.4057,-0.5039,-0.6747,-0.8404,-0.9822,-0.9822,-0.9822,-0.9822,0.0,0.0,0.2819,0.1465,0.1998,0.2324,0.1499,0.2613,0.3047,0.0,0.1715,0.1451,0.0132,0.0586,0.097,0.0989,0.1586,0.199,0.2068,0.2703,0.248,0.1146,0.1737,0.1765,0.1118,0.1717,0.2447,0.3289,0.3913,0.4294,0.4491,0.447,0.4368,0.4194,0.4194,0.4139,0.3998,0.4045,0.4503,0.5206,0.5426,0.5624,0.0,0.0,0.5969,0.4771,0.5969,0.4408,0.1829,0.2375,0.2312,0.0,0.0,0.255,0.3868,0.3357,0.3606,0.4064,0.4034,0.3734,0.3372,0.3185,0.226,0.0,0.1163,0.0658,0.0,0.0,0.0,0.0,0.0,0.0,0.0,0.0,0.0,0.0,0.0,0.0,0.0,0.0,0.0,0.0,0.0,0.0,0.0,0.0,0.0,0.0,0.0,0.0,0.0,0.0,0.0,0.0,0.0,0.0,0.0,0.0,0.0,0.0,0.0,0.0,0.0,0.0,-0.0185,-0.0976,-0.2347,-0.4319,-0.5136,-0.5319,-0.6987,-0.852,-0.9802,-0.9815,-0.9822,-0.9822,0.385,0.3066,0.2331,0.205,0.1966,0.1909,0.1729,0.1975,0.2078,0.1753,0.0948,0.0324,0.0039,0.0114,0.0223,0.0221,0.0345,0.0679,0.1285,0.1444,0.1397,0.1118,0.1233,0.1234,0.109,0.1794,0.2533,0.3289,0.3913,0.4294,0.4491,0.4341,0.4247,0.4194,0.4194,0.4139,0.4018,0.4409,0.506,0.5872,0.617,0.6853,0.7686,0.7113,0.6955,0.6746,0.4238,0.2983,0.2393,0.1772,0.1444,0.1492,0.0,0.0,0.2604,0.3563,0.3573,0.3454,0.3996,0.4201,0.4104,0.3438,0.3268,0.0,0.1433,0.1582,0.0,0.0,0.0,0.0,0.0,0.0,0.0,0.0,0.0,0.0,0.0,0.0,0.0,0.0,0.0,0.0,0.0,0.0,0.0,0.0,0.0,0.0,0.0,0.0,0.0,0.0,0.0,0.0,0.0,0.0,0.0,0.0,0.0,0.0,0.0,0.0,0.0,-0.0062,-0.1277,-0.193,-0.2402,-0.5345,-0.6504,-0.67,-0.857,-0.9446,-0.9666,-0.9781,-0.9822,-0.9822,0.3334,0.2655,0.1957,0.1246,0.1436,0.1835,0.2264,0.2281,0.2267,0.2326,0.1492,0.087,0.081,0.0875,0.0888,0.0818,0.0315,0.0164,0.0526,0.0883,0.0939,0.056,0.0909,0.1089,0.1089,0.146,0.2002,0.2744,0.3344,0.3558,0.3366,0.3568,0.3462,0.3105,0.3427,0.3505,0.3478,0.4034,0.4721,0.5548,0.6776,0.0,0.8741,0.772,0.7054,0.6215,0.3461,0.2011,0.1256,0.0823,0.1236,0.0,0.2153,0.2568,0.3089,0.352,0.3436,0.3378,0.4145,0.4436,0.4436,0.4159,0.3855,0.0,0.0,0.0,0.0,0.0,0.0,0.0,0.0,0.0,0.0,0.0,0.0,0.0,0.0,0.0,0.0,0.0,0.0,0.0,0.0,0.0,0.0,0.0,0.0,0.0,0.0,0.0,0.0,0.0,0.0,0.0,0.0,0.0,0.0,0.0,0.0,0.0,0.0,-0.0783,-0.1154,-0.1354,-0.2784,-0.3885,-0.4687,-0.6455,-0.7509,-0.8129,-0.9295,-0.9713,-0.9727,-0.9795,-0.9822,-0.9822,0.2635,0.2309,0.1778,0.0443,0.1005,0.1893,0.2566,0.2586,0.2556,0.2658,0.2192,0.1775,0.167,0.1768,0.1701,0.1335,0.0489,0.0,0.0,0.0568,0.0637,0.0029,0.0573,0.0894,0.0875,0.104,0.1392,0.1986,0.2617,0.2667,0.2202,0.2699,0.2675,0.2212,0.2572,0.288,0.3175,0.356,0.4163,0.5058,0.0,0.791,0.8482,0.7269,0.5989,0.4585,0.2721,0.118,0.0,0.0261,0.1375,0.2524,0.1904,0.2567,0.3537,0.3657,0.3454,0.3385,0.4399,0.4709,0.4784,0.4884,0.437,0.3844,0.0,0.0,0.0,0.0,0.0,0.0,0.0,0.0,0.0,0.0,0.0,0.0,0.0,0.0,0.0,0.0,0.0,0.0,0.0,0.0,0.0,0.0,0.0,0.0,0.0,0.0,0.0,0.0,0.0,0.0,0.0,0.0,0.0,0.0,0.0,-0.0177,-0.0478,-0.1652,-0.2442,-0.2986,-0.4447,-0.581,-0.6925,-0.7524,-0.8402,-0.9323,-0.9544,-0.97,-0.9781,-0.9808,-0.9822,-0.9822,0.3284,0.2683,0.1948,0.1132,0.1428,0.1817,0.1912,0.1896,0.1894,0.194,0.194,0.1923,0.1773,0.191,0.1474,0.0293,0.0048,0.0,0.0,0.0075,0.007,0.0,0.0093,0.0122,0.0133,0.0765,0.1136,0.1234,0.1942,0.2269,0.2202,0.2267,0.2539,0.296,0.2374,0.2825,0.4023,0.3549,0.3973,0.0,0.5288,0.5603,0.0,0.3927,0.312,0.2636,0.0916,0.0135,0.0135,0.0,0.1579,0.1994,0.0,0.2954,0.2308,0.4524,0.4018,0.3118,0.4826,0.5487,0.5528,0.504,0.5212,0.5151,0.3758,0.0,0.3306,0.2293,0.0,0.0,0.0,0.0,0.0,0.0,0.0,0.0,0.0,0.0,0.0,0.0,0.0,0.0,0.0,0.0,0.0,0.0,0.0,0.0,0.0,0.0,0.0,0.0,0.0,0.0,0.0,0.0,0.0,0.0,0.0,-0.0692,-0.1961,-0.2103,-0.2939,-0.4362,-0.5936,-0.6749,-0.7031,-0.8528,-0.93,-0.9571,-0.9734,-0.9727,-0.9646,-0.9774,-0.9822,-0.9822,0.2777,0.2098,0.1342,0.0581,0.0638,0.0969,0.1587,0.2347,0.2575,0.1898,0.314,0.3744,0.2808,0.2864,0.2383,0.1054,0.0,0.0,0.0,0.0,0.0,0.0,0.0,0.0,0.0,0.0301,0.0451,0.0466,0.1132,0.1262,0.0928,0.1285,0.1619,0.1968,0.2513,0.2859,0.3121,0.4347,0.4624,0.0,0.0,0.0,0.0,0.2997,0.1992,0.0982,0.0272,0.0,0.0069,0.0,0.1493,0.0,0.0,0.0,0.0,0.3737,0.3695,0.3857,0.5086,0.5009,0.4694,0.4938,0.4613,0.42,0.4068,0.0,0.3685,0.0,0.0,0.0,0.0,0.0,0.0,0.0,0.0,0.0,0.0,0.0,0.0,0.0,0.0,0.0,0.0,0.0,0.0,0.0,0.0,0.0,0.0,0.0,0.0,0.0,0.0,0.0,0.0,0.0,0.0,0.0,0.0,-0.0808,-0.2384,-0.3274,-0.4536,-0.6118,-0.7724,-0.8395,-0.8393,-0.9262,-0.9625,-0.9632,-0.9863,-0.9863,-0.9741,-0.9802,-0.9822,-0.9822,0.2025,0.147,0.0875,0.012,0.0,0.0354,0.1438,0.2409,0.2858,0.2293,0.3879,0.4513,0.3106,0.308,0.2609,0.1277,0.0447,0.0,0.0,0.0,0.0241,0.0,0.0235,0.0259,0.0,0.0,0.0,0.0,0.043,0.0436,0.0,0.0442,0.0933,0.1457,0.24,0.2725,0.2695,0.4399,0.4342,0.3055,0.2474,0.2127,0.1949,0.1984,0.1144,0.0,0.0,0.0,0.007,0.0343,0.1455,0.0,0.1222,0.0,0.3713,0.0,0.3128,0.3728,0.4913,0.0,0.0,0.0,0.0,0.0,0.0,0.0,0.0,0.0,0.0,0.0,0.0,0.0,0.0,0.0,0.0,0.0,0.0,0.0,0.0,0.0,0.0,0.0,0.0,0.0,0.0,0.0,0.0,0.0,0.0,0.0,0.0,0.0,0.0,0.0,0.0,0.0,0.0,0.0,-0.0458,-0.1562,-0.3169,-0.4691,-0.6251,-0.7816,-0.9089,-0.9605,-0.9523,-0.9822,-0.989,-0.9815,-1.0032,-1.0046,-0.9944,-0.9897,-0.9856,-0.9822,0.1249,0.1121,0.0869,0.0141,0.0,0.0366,0.1425,0.1619,0.2078,0.0,0.0,0.0,0.0,0.0,0.0,0.0,0.0,0.0,0.0,0.0,0.0888,0.0049,0.0799,0.088,0.0,0.0,0.0,0.0,0.0026,0.0025,0.0,0.0024,0.0793,0.2155,0.1817,0.2368,0.3525,0.3029,0.2249,0.1396,0.1203,0.0717,0.0064,0.0,0.0066,0.0,0.0,0.0,0.0,0.1171,0.1589,0.0,0.0,0.0,0.0,0.0,0.0,0.0,0.0,0.0,0.0,0.5049,0.0,0.0,0.0,0.0,0.482,0.0,0.0,0.0,0.0,0.0,0.0,0.0,0.0,0.0,0.0,0.0,0.0,0.0,0.0,0.0,0.0,0.0,0.0,0.0,0.0,0.0,0.0,0.0,0.0,0.0,0.0,0.0,0.0,0.0,0.0,0.0,-0.1618,-0.3176,-0.4688,-0.6268,-0.7857,-0.9343,-0.9633,-0.9815,-0.9829,-1.0141,-1.0263,-1.0256,-1.027,-1.027,-1.0249,-1.01,-0.9883,-0.9822,0.101,0.0656,0.028,0.0056,0.0,0.0356,0.1452,0.2226,0.0,0.0,0.0,0.0,0.0,0.1822,0.1365,0.0,0.0,0.041,0.1415,0.1577,0.0,0.0,0.0,0.1116,0.0,0.0495,0.0486,0.0,0.0986,0.1208,0.073,0.0722,0.1545,0.2999,0.3032,0.2924,0.2746,0.3981,0.0,0.0,0.0,0.0651,0.0,0.0,0.0,0.0,0.0,0.0,0.0,0.0421,0.1009,0.1553,0.1132,0.1767,0.2522,0.2178,0.2321,0.0,0.0,0.0,0.2955,0.4079,0.0,0.0,0.0,0.0,0.0,0.0,0.0,0.0,0.0,0.0,0.0,0.0,0.0,0.0,0.0,0.0,0.0,0.0,0.0,0.0,0.0,0.0,0.0,0.0,0.0,0.0,0.0,0.0,0.0,0.0,0.0,0.0,0.0,0.0,0.0,0.0,-0.1714,-0.3322,-0.4885,-0.6557,-0.811,-0.9551,-0.9842,-0.9856,-0.9842,-1.0154,-1.0222,-1.0148,-1.0344,-1.0304,-1.0134,-1.0181,-1.0107,-0.9896,0.0613,0.0274,0.0,0.0,0.0,0.036,0.0,0.0,0.0,0.0,0.34,0.0,0.1364,0.0,0.0869,0.0,0.0,0.0584,0.1974,0.2324,0.0,0.2092,0.2367,0.0,0.0,0.0,0.0486,0.0,0.1214,0.1563,0.11,0.1368,0.2169,0.3425,0.3729,0.324,0.2302,0.3864,0.3045,0.0,0.0,0.0422,0.0,0.0,0.0,0.0,0.0,0.0,0.0,0.0,0.0494,0.0885,0.0215,0.0951,0.1879,0.1253,0.148,0.2074,0.2476,0.2122,0.0,0.3139,0.2799,0.0,0.3817,0.0,0.4664,0.0,0.0,0.0,0.0,0.0,0.0,0.0,0.0,0.0,0.0,0.0,0.0,0.0,0.0,0.0,0.0,0.0,0.0,0.0,0.0,0.0,0.0,0.0,0.0,0.0,0.0,0.0,0.0,0.0,-0.0295,-0.0898,-0.2535,-0.424,-0.5871,-0.7514,-0.8787,-0.97,-0.9998,-1.0073,-1.0005,-1.031,-1.0344,-1.0229,-1.0419,-1.0378,-1.0222,-1.0317,-1.0263,-1.0114,0.0107,0.0027,0.0056,0.0056,0.0059,0.0,0.0,0.0,0.1646,0.0,0.1583,0.1155,0.0115,0.0,0.0,0.0,0.0,0.0539,0.1714,0.3067,0.0,0.0,0.321,0.2719,0.0056,0.0,0.0,0.0,0.087,0.1244,0.1179,0.1919,0.2674,0.3471,0.3844,0.3362,0.2347,0.2787,0.1873,0.0069,0.0,0.0,0.0,0.0,0.0,0.0,0.0,0.0,0.0,0.0,0.0,0.0,0.0,0.0,0.0,0.0,0.0,0.0211,0.1234,0.1522,0.1663,0.2274,0.0,0.0,0.0,0.0,0.4316,0.0,0.0,0.0,0.0,0.0,0.0,0.0,0.0,0.0,0.0,0.0,0.0,0.0,0.0,0.0,0.0,0.0,0.0,0.0,0.0,0.0,0.0,0.0,0.0,0.0,0.0,0.0,0.0,-0.0061,-0.0911,-0.2524,-0.4244,-0.5839,-0.7484,-0.9079,-0.9822,-0.9836,-1.0148,-1.0283,-1.0304,-1.0602,-1.0622,-1.048,-1.0493,-1.05,-1.05,-1.0493,-1.0405,-1.029,0.0028,0.0512,0.0957,0.0,0.0883,0.1242,0.0,0.0,0.0,0.0,0.1477,0.1015,0.0128,0.0,0.0,0.0,0.0,0.0,0.0,0.0,0.0,0.2172,0.4743,0.4273,0.0116,0.2514,0.0,0.0,0.0,0.3132,0.1948,0.2715,0.3484,0.4193,0.3974,0.3875,0.3932,0.4271,0.3343,0.1553,0.0445,0.0,0.0,0.0,0.0,0.0,0.0,0.0,0.0,0.0,0.0,0.0,0.0,0.0,0.0,0.0,0.0,0.0072,0.0354,0.0419,0.0611,0.1602,0.1633,0.1705,0.0,0.0,0.0,0.0,0.0,0.0,0.0,0.0,0.0,0.0,0.0,0.0,0.0,0.0,0.0,0.0,0.0,0.0,0.0,0.0,0.0,0.0,0.0,0.0,0.0,0.0,0.0,0.0,0.0,0.0,0.0,-0.1351,-0.2147,-0.2524,-0.5466,-0.7074,-0.7484,-0.9079,-0.9822,-0.9836,-1.0148,-1.0283,-1.0304,-1.0602,-1.0568,-1.0358,-1.0575,-1.0663,-1.0649,-1.0534,-1.0466,-1.0426,0.0,0.0811,0.1753,0.2568,0.0,0.0,0.2264,0.0,0.0,0.0934,0.0816,0.0,0.0064,0.0,0.0,0.0,0.0,0.0,0.196,0.0,0.0,0.2082,0.3974,0.3466,0.0063,0.186,0.0,0.0489,0.0,0.329,0.2738,0.3519,0.4066,0.4355,0.4307,0.4162,0.3952,0.3519,0.2719,0.1703,0.0514,0.0,0.0,0.0,0.0,0.0,0.0,0.0,0.0,0.0,0.0,0.0,0.0,0.0,0.0,0.0,0.0,0.0,0.0,0.0,0.0142,0.0743,0.0779,0.0863,0.1846,0.2135,0.2337,0.0,0.0,0.0,0.0,0.0,0.0,0.0,0.0,0.0,0.0,0.0,0.0,0.0,0.0,0.0,0.0,0.0,0.0,0.0,0.0,0.0,0.0,0.0,0.0,0.0,0.0,-0.0357,-0.1109,-0.2187,-0.3338,-0.4668,-0.6652,-0.7894,-0.8465,-0.939,-0.9856,-0.993,-1.0175,-1.0317,-1.0392,-1.0622,-1.0582,-1.0392,-1.0555,-1.0622,-1.0616,-1.0602,-1.0595,-1.0582,0.0149,0.1152,0.2452,0.3983,0.0,0.0,0.0,0.0641,0.0,0.0,0.0,0.0,0.0,0.0,0.0,0.0,0.0,0.0444,0.1504,0.2198,0.2234,0.1622,0.2389,0.199,0.0067,0.0375,0.073,0.0,0.0,0.2697,0.3365,0.41,0.4348,0.4214,0.4645,0.4349,0.3412,0.2112,0.151,0.1355,0.0396,0.0,0.0,0.0,0.0,0.0,0.0,0.0,0.0,0.0,0.0,0.0,0.0,0.0,0.0,0.0,0.0,0.0,0.0,0.0,0.0,0.0,0.0,0.0202,0.0934,0.115,0.1492,0.2827,0.2717,0.2281,0.0,0.0,0.0,0.0,0.0,0.0,0.0,0.0,0.0,0.0,0.0,0.0,0.0,0.0,0.0,0.0,0.0,0.0,0.0,0.0,0.0,-0.0296,-0.0346,0.0,-0.2499,0.0,-0.4611,-0.7054,-0.7697,-0.8591,-0.9822,-0.9842,-0.9862,-0.9997,-1.0229,-1.0378,-1.0507,-1.0656,-1.0643,-1.0521,-1.05,-1.0507,-1.0534,-1.067,-1.0717,-1.0717,0.0924,0.2036,0.29,0.2988,0.0,0.1521,0.1333,0.1063,0.0689,0.0058,0.0,0.0,0.0,0.0,0.0,0.0,0.0,0.0,0.0,0.0,0.0,0.0398,0.3264,0.3345,0.0067,0.2163,0.2574,0.0,0.0,0.3116,0.3155,0.3785,0.4126,0.4207,0.4457,0.4538,0.44,0.3401,0.0,0.1904,0.0538,0.0,0.0,0.0,0.0,0.0,0.0,0.0,0.0,0.0,0.0,0.0,0.0,0.0,0.0,0.0,0.0,0.0,0.0,0.0,0.0,0.0,0.0,0.0067,0.0199,0.0198,0.033,0.0599,0.0524,0.0633,0.1198,0.0,0.0,0.0,0.0,0.0,0.0,0.0,0.0,0.0,0.0,0.0,0.0,0.0,0.0,0.0,0.0,0.0,0.0,0.0,0.0,0.0,0.0,0.0,0.0,0.0,-0.639,-0.5392,-0.8397,-0.9801,-0.9822,-0.9889,-0.9963,-1.0004,-1.0337,-1.0466,-1.0507,-1.0656,-1.0704,-1.067,-1.0541,-1.0568,-1.0683,-1.0711,-1.0717,-1.0717,0.2075,0.2397,0.2717,0.3576,0.0,0.0,0.0,0.0875,0.0,0.0061,0.0,0.0,0.0,0.0,0.0,0.0,0.0,0.0,0.0,0.0799,0.0935,0.0067,0.168,0.0,0.0068,0.1296,0.182,0.1687,0.0,0.3047,0.3671,0.3971,0.4112,0.4088,0.3944,0.381,0.0,0.0,0.0,0.1603,0.0483,0.0,0.0,0.0,0.0,0.0,0.0,0.0,0.0,0.0,0.0,0.0,0.0,0.0,0.0,0.0,0.0,0.0,0.0,0.0,0.0,0.0,0.0,0.0,0.0,0.0,0.0,0.0,0.0,0.02,0.0961,0.2213,0.0,0.0,0.0,0.0,0.0,0.0,0.0,0.0,0.0,0.0,0.0,0.0,0.0,0.0,0.0,0.0,0.0,0.0,0.0,0.0,0.0,0.0,0.0,0.0,0.0,-0.6248,-0.8859,-1.0039,-0.9822,-0.9897,-1.0019,-1.0175,-1.0324,-1.0466,-1.0616,-1.069,-1.0717,-1.0711,-1.0636,-1.0656,-1.0717,-1.0717,-1.0717,-1.0717,0.2621,0.2346,0.2258,0.3714,0.254,0.0,0.1055,0.0448,0.0,0.0,0.0,0.0,0.0,0.0,0.0,0.0,0.0,0.0,0.0,0.0,0.0,0.0,0.0,0.0,0.0,0.0,0.0623,0.0,0.0,0.0,0.393,0.4087,0.4021,0.3794,0.0,0.0,0.0,0.0,0.1147,0.0985,0.0284,0.0,0.0,0.0,0.0,0.0,0.0,0.0,0.0,0.0,0.0,0.0,0.0,0.0,0.0,0.0,0.0,0.0,0.0,0.0,0.0,0.0,0.0,0.0,0.0,0.0,0.0,0.0,0.0,0.0204,0.0964,0.1697,0.0,0.0,0.0,0.0,0.0,0.0,0.0,0.0,0.0,0.0,0.0,0.0,0.0,0.0,0.0,0.0,0.0,0.0,0.0,0.0,0.0,-0.1328,-0.3011,0.0,-0.621,0.0,-0.9187,-0.9909,-0.9822,-0.9856,-1.0019,-1.0283,-1.031,-1.0493,-1.0772,-1.0772,-1.0785,-1.0812,-1.0778,-1.0772,-1.0772,-1.0772,-1.0751,-1.0724,0.1528,0.1658,0.0,0.0,0.0,0.0,0.0119,0.0065,0.0,0.0,0.0,0.0,0.0,0.0,0.0,0.0,0.0,0.0,0.0,0.0,0.0,0.0,0.0,0.0,0.0,0.0,0.0396,0.0,0.0,0.2359,0.3025,0.3699,0.3717,0.0,0.0,0.0,0.0,0.1163,0.0723,0.0144,0.0,0.0,0.0,0.0,0.0,0.0,0.0,0.0,0.0,0.0,0.0,0.0,0.0,0.0,0.0,0.0,0.0,0.0,0.0,0.0,0.0,0.0,0.0,0.0,0.0,0.0,0.0,0.0,0.0,0.0207,0.0966,0.1727,0.2175,0.0,0.0,0.0,0.0,0.0,0.0357,0.0,0.0,0.0,0.0,0.0,0.0,0.0,0.0,0.0,0.0,0.0,0.0,-0.2192,0.0,-0.312,-0.4838,-0.6516,0.0,-0.7615,-0.9239,-0.9909,-0.9829,-0.9903,-1.012,-1.029,-1.0419,-1.0643,-1.086,-1.086,-1.1002,-1.1111,-1.0975,-1.086,-1.086,-1.086,-1.0772,-1.0738,0.0,0.0,0.0,0.0,0.0,0.0,0.0,0.0,0.0,0.0,0.0,0.0,0.0,0.0,0.0,0.0,0.0,0.0,0.0,0.0,0.0,0.0,0.0,0.0,0.0,0.0,0.0335,0.0,0.0,0.0,0.3135,0.347,0.2993,0.0,0.0,0.14,0.0434,0.0466,0.0281,0.0,0.0,0.0,0.0,0.0,0.0,0.0,0.0,0.0,0.0,0.0,0.0,0.0,0.0,0.0,0.0,0.0,0.0,0.0,0.0,0.0,0.0,0.0,0.0,0.0,0.0,0.0,0.0,0.0,0.0,0.0071,0.0402,0.1021,0.141,0.0,0.0,0.0,0.0,0.0,0.0,0.0,0.0,0.0,0.0,0.0,0.0,0.0,0.0,0.0,0.0,0.0,0.0,-0.0991,0.0,-0.2851,-0.354,-0.6178,-0.7464,-0.7519,-0.913,-0.9883,-0.9822,-0.9883,-1.0046,-1.029,-1.0432,-1.0663,-1.088,-1.088,-1.1029,-1.1158,-1.1097,-1.1077,-1.1077,-1.1077,-1.1036,-1.0995,0.109,0.0,0.0282,0.0,0.0556,0.0,0.0,0.0,0.0,0.0,0.0,0.0,0.0,0.0,0.0,0.0,0.0,0.0,0.0,0.0,0.0,0.0,0.0,0.0,0.0,0.0,0.0275,0.077,0.1656,0.0,0.2598,0.2872,0.2243,0.0,0.1061,0.0692,0.0,0.0,0.0,0.0,0.0,0.0,0.0,0.0,0.0,0.0,0.0,0.0,0.0,0.0,0.0,0.0,0.0,0.0,0.0,0.0,0.0,0.0,0.0,0.0,0.0,0.0,0.0,0.0,0.0,0.0,0.0,0.0,0.0,0.0,0.0,0.0398,0.0692,0.0392,0.0,0.0,0.0,0.0,0.0,0.0,0.0,0.0,0.0,0.0,0.0,0.0,0.0,0.0,0.0,0.0,0.0,0.0,0.0,0.0,0.0,-0.6026,-0.7687,-0.8154,-0.9271,-0.9842,-0.989,-0.9978,-1.0134,-1.0351,-1.0541,-1.0772,-1.1016,-1.1063,-1.1165,-1.1294,-1.1246,-1.1226,-1.1226,-1.1226,-1.1199,-1.1241,0.0,0.0,0.0,0.0,0.0,0.0,0.0,0.0,0.0,0.0,0.0,0.0,0.0,0.0,0.0,0.0,0.0,0.0,0.0,0.0,0.0,0.0,0.0,0.0,0.0,0.0,0.0,0.0,0.0,0.0,0.0935,0.1659,0.1707,0.1107,0.1109,0.0658,0.0,0.0,0.0,0.0,0.0,0.0,0.0,0.0,0.0,0.0,0.0,0.0,0.0,0.0,0.0,0.0,0.0,0.0,0.0,0.0,0.0,0.0,0.0,0.0,0.0,0.0,0.0,0.0,0.0,0.0,0.0,0.0,0.0,0.0,0.0,0.0,0.027,0.0962,0.0,0.0,0.0,0.0,0.0,0.0,0.0,0.0,0.0,0.0,0.0,0.0,0.0,0.0,0.0,0.0,0.0,0.0,-0.1623,0.0,-0.506,-0.6608,-0.8284,-0.9984,-0.9835,-0.9835,-0.9997,-1.0351,-1.0487,-1.0507,-1.0812,-1.1023,-1.1241,-1.1321,-1.1477,-1.1599,-1.145,-1.1389,-1.1389,-1.1389,-1.1294,-1.1255,0.0,0.0,0.0,0.0,0.0,0.0,0.0,0.0,0.0,0.0,0.0,0.0,0.0,0.0,0.0,0.0,0.0,0.0,0.0,0.0,0.0,0.0,0.0,0.0,0.0,0.0,0.0,0.0,0.0,0.0,0.0,0.1428,0.1124,0.0347,0.0347,0.0212,0.0,0.0,0.0,0.0,0.0,0.0,0.0,0.0,0.0,0.0,0.0,0.0,0.0,0.0,0.0,0.0,0.0,0.0,0.0,0.0,0.0,0.0,0.0,0.0,0.0,0.0,0.0,0.0,0.0,0.0,0.0,0.0,0.0,0.0,0.0,0.0,0.007,0.0335,0.0135,0.0,0.0,0.0,0.0,0.0,0.0,0.0,0.0,0.0,0.0,0.0,0.0,0.0,0.0,0.0,0.0,0.0,-0.2703,0.0,-0.4973,-0.7688,-0.9339,-0.9984,-0.9936,-1.0059,-1.0209,-1.0304,-1.0399,-1.05,-1.0704,-1.0934,-1.1241,-1.1328,-1.1484,-1.1613,-1.1565,-1.1545,-1.1545,-1.1545,-1.1518,-1.1484,0.0,0.0,0.0,0.0,0.0,0.0,0.0,0.0,0.0,0.0,0.0,0.0,0.0,0.0,0.0,0.0,0.0,0.0,0.0,0.0,0.0,0.0,0.0,0.0,0.0,0.0,0.0,0.0,0.0549,0.0801,0.0801,0.0801,0.0552,0.0,0.0,0.0,0.0,0.0,0.0,0.0,0.0,0.0,0.0,0.0,0.0,0.0,0.0,0.0,0.0,0.0,0.0,0.0,0.0,0.0,0.0,0.0,0.0,0.0,0.0,0.0,0.0,0.0,0.0,0.0,0.0,0.0,0.0,0.0,0.0,0.0,0.0,0.0,0.0,0.0,0.0,0.0,0.0,0.0,0.0,0.0,0.0,0.0,0.0,0.0,0.0,0.0,0.0,0.0,0.0,0.0,0.0,0.0,-0.3209,0.0,-0.489,-0.8212,-0.9896,-0.999,-1.0098,-1.0263,-1.0365,-1.0419,-1.0493,-1.0588,-1.0799,-1.0989,-1.1179,-1.1389,-1.1531,-1.1619,-1.1619,-1.1619,-1.1619,-1.1619,-1.1619,-1.1613,0.0,0.0,0.0,0.0,0.0,0.0,0.0,0.0,0.0,0.0,0.0,0.0,0.0,0.0,0.0,0.0,0.0,0.0,0.0,0.0,0.0,0.0,0.0,0.0,0.0,0.0,0.0,0.0,0.0,0.0,0.0,0.0,0.0,0.0,0.0,0.0,0.0,0.0,0.0,0.0,0.0,0.0,0.0,0.0,0.0,0.0,0.0,0.0,0.0,0.0,0.0,0.0,0.0,0.0,0.0,0.0,0.0,0.0,0.0,0.0,0.0,0.0,0.0,0.0,0.0,0.0,0.0,0.0,0.0,0.0,0.0,0.0,0.0,0.0,0.0,0.0,0.0,0.0,0.0,0.0,0.0,0.0,0.0,0.0,0.0,0.0,0.0,0.0,0.0,0.0,0.0,0.0,-0.3212,-0.4936,-0.4933,-0.8307,-1.0011,-1.0017,-1.0371,-1.0507,-1.0514,-1.0656,-1.0717,-1.0738,-1.1036,-1.1234,-1.1185,-1.1491,-1.1619,-1.1619,-1.1619,-1.1619,-1.1619,-1.1619,-1.1619,-1.1599,0.0,0.0,0.0,0.0,0.0,0.0,0.0,0.0,0.0,0.0,0.0,0.0,0.0,0.0,0.0,0.0,0.0,0.0,0.0,0.0,0.0,0.0,0.0,0.0,0.0,0.0,0.0,0.0,0.0,0.0,0.0,0.0,0.0,0.0,0.0,0.0,0.0,0.0,0.0,0.0,0.0,0.0,0.0,0.0,0.0,0.0,0.0,0.0,0.0,0.0,0.0,0.0,0.0,0.0,0.0,0.0,0.0,0.0,0.0,0.0,0.0,0.0,0.0,0.0,0.0,0.0,0.0,0.0,0.0,0.0,0.0,0.0,0.0,0.0,0.0,0.0,0.0,0.0,0.0,0.0,0.0,0.0,0.0,0.0,0.0,0.0,0.0,0.0,0.0,0.0,0.0,0.0,-0.3262,-0.5036,-0.5083,-0.8477,-1.0283,-1.0392,-1.0575,-1.0663,-1.067,-1.0704,-1.0717,-1.0738,-1.1036,-1.1234,-1.1185,-1.1491,-1.1619,-1.1619,-1.1619,-1.1619,-1.1619,-1.1619,-1.1619,-1.1599,0.0,0.0,0.0,0.0,0.0,0.0,0.0,-0.0729,-0.102,-0.0146,-0.0802,-0.102,-0.0073,0.0,0.0,0.0,0.0,0.0,0.0,0.0,0.0,0.0,0.0,0.0,0.0,0.0,0.0,0.0,0.0,0.0,0.0,0.0,0.0,0.0,0.0,0.0,0.0,0.0,0.0,0.0,0.0,0.0,0.0,0.0,0.0,0.0,0.0,0.0,0.0,0.0,0.0,0.0,0.0,0.0,0.0,0.0,0.0,0.0,0.0,0.0,0.0,0.0,0.0,0.0,0.0,0.0,0.0,0.0,0.0,0.0,0.0,0.0,0.0,0.0,0.0,0.0,0.0,0.0,0.0,0.0,0.0,0.0,0.0,0.0,0.0,0.0,0.0,0.0,0.0,0.0,0.0,0.0,-0.2573,-0.3917,-0.3917,-0.7429,-0.9701,-1.0704,-1.0711,-1.0758,-1.0819,-1.0751,-1.0758,-1.0839,-1.1063,-1.1206,-1.1287,-1.1525,-1.1619,-1.1619,-1.1619,-1.1619,-1.1619,-1.1619,-1.1572,-1.1491,0.0,0.0,0.0,0.0,0.0,-0.0072,-0.0363,-0.1817,-0.2328,-0.0656,-0.1892,-0.2183,-0.0219,0.0,0.0,0.0,0.0,0.0,0.0,0.0,0.0,0.0,0.0,0.0,0.0,0.0,0.0,0.0,0.0,0.0,0.0,0.0,0.0,0.0,0.0,0.0,0.0,0.0,0.0,0.0,0.0,0.0,0.0,0.0,0.0,0.0,0.0,0.0,0.0,0.0,0.0,0.0,0.0,0.0,0.0,0.0,0.0,0.0,0.0,0.0,0.0,0.0,0.0,0.0,0.0,0.0,0.0,0.0,0.0,0.0,0.0,0.0,0.0,0.0,0.0,0.0,0.0,0.0,0.0,0.0,0.0,0.0,0.0,0.0,0.0,0.0,0.0,0.0,0.0,0.0,0.0,0.0,-0.1618,-0.2782,-0.3297,-0.6345,-0.8861,-1.0847,-1.0778,-1.0785,-1.084,-1.0778,-1.0792,-1.0853,-1.109,-1.124,-1.1369,-1.1545,-1.1619,-1.1619,-1.1619,-1.1606,-1.1586,-1.1613,-1.1525,-1.1369,0.0,0.0,0.0,0.0,0.0,-0.0572,-0.2217,-0.2672,-0.2763,-0.2472,-0.2691,-0.2183,-0.0219,0.0,0.0,0.0,0.0,0.0,0.0,0.0,0.0,0.0,0.0,0.0,0.0,0.0,0.0,0.0,0.0,0.0,0.0,0.0,0.0,0.0,0.0,0.0,0.0,0.0,0.0,0.0,0.0,0.0,0.0,0.0,0.0,0.0,0.0,0.0,0.0,0.0,0.0,0.0,0.0,0.0,0.0,0.0,0.0,0.0,0.0,0.0,0.0,0.0,0.0,0.0,0.0,0.0,0.0,0.0,0.0,0.0,0.0,0.0,0.0,0.0,0.0,0.0,0.0,0.0,0.0,0.0,0.0,0.0,0.0,0.0,0.0,0.0,0.0,0.0,0.0,0.0,0.0,0.0,-0.1725,-0.4129,-0.7115,-0.7663,-0.8895,-1.0758,-1.0731,-1.0731,-1.0758,-1.0731,-1.0731,-1.0772,-1.1043,-1.1179,-1.1219,-1.1504,-1.1619,-1.1619,-1.1619,-1.1538,-1.1443,-1.1572,-1.1525,-1.1389,0.0,0.0,0.0,0.0,-0.0833,-0.1752,-0.2679,-0.4559,-0.517,-0.3095,-0.3763,-0.3344,-0.0292,0.0,0.0,0.0,0.0,0.0,0.0,0.0,0.0,0.0,0.0,0.0,0.0,0.0,0.0,0.0,0.0,0.0,0.0,0.0,0.0,0.0,0.0,0.0,0.0,0.0,0.0,0.0,0.0,0.0,0.0,0.0,0.0,0.0,0.0,0.0,0.0,0.0,0.0,0.0,0.0,0.0,0.0,0.0,0.0,0.0,0.0,0.0,0.0,0.0,0.0,0.0,0.0,0.0,0.0,0.0,0.0,0.0,0.0,0.0,0.0,0.0,0.0,0.0,0.0,0.0,0.0,0.0,0.0,0.0,0.0,0.0,0.0,0.0,0.0,0.0,0.0,0.0,0.0,0.0,-0.0804,-0.2952,-0.6564,-0.6631,-0.7999,-1.0839,-1.0758,-1.0765,-1.0839,-1.0758,-1.0765,-1.0853,-1.0989,-1.109,-1.1248,-1.1402,-1.1497,-1.1504,-1.1586,-1.1572,-1.1525,-1.1592,-1.1525,-1.1389,0.0,0.0,0.0,0.0,-0.1506,-0.2821,-0.3334,-0.5915,-0.6756,-0.3778,-0.4397,-0.3853,-0.0365,0.0,0.0,0.0,0.0,0.0,0.0,0.0,0.0,0.0,0.0,0.0,0.0,0.0,0.0,0.0,0.0,0.0,0.0,0.0,0.0,0.0,0.0,0.0,0.0,0.0,0.0,0.0,0.0,0.0,0.0,0.0,0.0,0.0,0.0,0.0,0.0,0.0,0.0,0.0,0.0,0.0,0.0,0.0,0.0,0.0,0.0,0.0,0.0,0.0,0.0,0.0,0.0,0.0,0.0,0.0,0.0,0.0,0.0,0.0,0.0,0.0,0.0,0.0,0.0,0.0,0.0,0.0,0.0,0.0,0.0,0.0,0.0,0.0,0.0,0.0,0.0,0.0,0.0,0.0,0.0,-0.1747,-0.5362,-0.5429,-0.7206,-1.0826,-1.0778,-1.0778,-1.0826,-1.0772,-1.0785,-1.0833,-1.0867,-1.1029,-1.1241,-1.1328,-1.143,-1.1504,-1.1586,-1.1619,-1.1619,-1.1619,-1.1525,-1.1396,0.0,0.0,0.0,0.0,-0.1497,-0.3289,-0.5136,-0.56,-0.5696,-0.5412,-0.4035,-0.2328,-0.0219,0.0,0.0,0.0,0.0,0.0,0.0,0.0,0.0,0.0,0.0,0.0,0.0,0.0,0.0,0.0,0.0,0.0,0.0,0.0,0.0,0.0,0.0,0.0,0.0,0.0,0.0,0.0,0.0,0.0,0.0,0.0,0.0,0.0,0.0,0.0,0.0,0.0,0.0,0.0,0.0,0.0,0.0,0.0,0.0,0.0,0.0,0.0,0.0,0.0,0.0,0.0,0.0,0.0,0.0,0.0,0.0,0.0,0.0,0.0,0.0,0.0,0.0,0.0,0.0,0.0,0.0,0.0,0.0,0.0,0.0,0.0,0.0,0.0,0.0,0.0,0.0,0.0,0.0,0.0,0.0,-0.1747,-0.5362,-0.5429,-0.7169,-1.0738,-1.0724,-1.0724,-1.0738,-1.0724,-1.0724,-1.0744,-1.082,-1.1029,-1.1241,-1.1328,-1.1552,-1.1789,-1.1667,-1.1619,-1.1619,-1.1619,-1.1525,-1.1409,0.0,0.0,0.0,0.0,-0.1485,-0.3322,-0.5325,-0.5625,-0.5571,-0.5618,-0.4035,-0.2177,-0.0216,0.0,0.0,0.0,0.0,0.0,0.0,0.0,0.0,0.0,0.0,0.0,0.0,0.0,0.0,0.0,0.0,0.0,0.0,0.0,0.0,0.0,0.0,0.0,0.0,0.0,0.0,0.0,0.0,0.0,0.0,0.0,0.0,0.0,0.0,0.0,0.0,0.0,0.0,0.0,0.0,0.0,0.0,0.0,0.0,0.0,0.0,0.0,0.0,0.0,0.0,0.0,0.0,0.0,0.0,0.0,0.0,0.0,0.0,0.0,0.0,0.0,0.0,0.0,0.0,0.0,0.0,0.0,0.0,0.0,0.0,0.0,0.0,0.0,0.0,0.0,0.0,0.0,0.0,0.0,-0.1076,-0.2887,-0.5362,-0.5429,-0.7169,-1.0717,-1.0717,-1.0717,-1.0717,-1.0717,-1.0717,-1.0731,-1.0813,-1.0914,-1.105,-1.1287,-1.1457,-1.1558,-1.1606,-1.1619,-1.1619,-1.1619,-1.1586,-1.1538,0.0,0.0,0.0,0.0,-0.1484,-0.3117,-0.451,-0.4655,-0.4724,-0.4695,-0.309,-0.1515,-0.0143,0.0,0.0,0.0,0.0,0.0,0.0,0.0,0.0,0.0,0.0,0.0,0.0,0.0,0.0,0.0,0.0,0.0,0.0,0.0,0.0,0.0,0.0,0.0,0.0,0.0,0.0,0.0,0.0,0.0,0.0,0.0,0.0,0.0,0.0,0.0,0.0,0.0,0.0,0.0,0.0,0.0,0.0,0.0,0.0,0.0,0.0,0.0,0.0,0.0,0.0,0.0,0.0,0.0,0.0,0.0,0.0,0.0,0.0,0.0,0.0,0.0,0.0,0.0,0.0,0.0,0.0,0.0,0.0,0.0,0.0,0.0,0.0,0.0,0.0,0.0,0.0,0.0,0.0,0.0,-0.1747,-0.3289,-0.4559,-0.5629,-0.7702,-1.0717,-1.0717,-1.0744,-1.0792,-1.0792,-1.0819,-1.0867,-1.0968,-1.1043,-1.1104,-1.1307,-1.1443,-1.1538,-1.1599,-1.1647,-1.1681,-1.1633,-1.1619,-1.1619,0.0,0.0,0.0,0.0,-0.1496,-0.2673,-0.2673,-0.2666,-0.2711,-0.2713,-0.1143,0.0,0.0,0.0,0.0,0.0,0.0,0.0,0.0,0.0,0.0,0.0,0.0,0.0,0.0,0.0,0.0,0.0,0.0,0.0,0.0,0.0,0.0,0.0,0.0,0.0,0.0,0.0,0.0,0.0,0.0,0.0,0.0,0.0,0.0,0.0,0.0,0.0,0.0,0.0,0.0,0.0,0.0,0.0,0.0,0.0,0.0,0.0,0.0,0.0,0.0,0.0,0.0,0.0,0.0,0.0,0.0,0.0,0.0,0.0,0.0,0.0,0.0,0.0,0.0,0.0,0.0,0.0,0.0,0.0,0.0,0.0,0.0,0.0,0.0,0.0,0.0,0.0,0.0,0.0,0.0,0.0,-0.1747,-0.2685,-0.2685,-0.6227,-0.89,-1.0651,-1.0724,-1.0799,-1.088,-1.088,-1.1029,-1.1234,-1.1234,-1.1253,-1.1389,-1.1396,-1.1565,-1.1816,-1.1674,-1.1708,-1.1809,-1.1674,-1.1619,-1.1619,0.0,0.0,0.0,0.0,-0.0476,-0.1239,-0.2639,-0.1682,-0.1272,-0.2635,-0.1205,0.0,0.0,0.0,0.0,0.0,0.0,0.0,0.0,0.0,0.0,0.0,0.0,0.0,0.0,0.0,0.0,0.0,0.0,0.0,0.0,0.0,0.0,0.0,0.0,0.0,0.0,0.0,0.0,0.0,0.0,0.0,0.0,0.0,0.0,0.0,0.0,0.0,0.0,0.0,0.0,0.0,0.0,0.0,0.0,0.0,0.0,0.0,0.0,0.0,0.0,0.0,0.0,0.0,0.0,0.0,0.0,0.0,0.0,0.0,0.0,0.0,0.0,0.0,0.0,0.0,0.0,0.0,0.0,0.0,0.0,0.0,0.0,0.0,0.0,0.0,0.0,0.0,0.0,0.0,0.0,0.0,-0.1747,-0.2685,-0.2685,-0.6227,-0.8296,-0.8839,-1.0216,-1.084,-1.0887,-1.105,-1.1124,-1.1234,-1.1274,-1.1348,-1.1402,-1.1504,-1.1606,-1.1681,-1.1633,-1.1647,-1.1681,-1.1633,-1.1619,-1.1619,-0.121,-0.1076,-0.0874,-0.0135,0.0,-0.0413,-0.1596,-0.0768,-0.0422,-0.1628,-0.0704,0.0,0.0,0.0,0.0,0.0,0.0,0.0,0.0,0.0,0.0,0.0,0.0,0.0,0.0,0.0,0.0,0.0,0.0,0.0,0.0,0.0,0.0,0.0,0.0,0.0,0.0,0.0,0.0,0.0,0.0,0.0,0.0,0.0,0.0,0.0,0.0,0.0,0.0,0.0,0.0,0.0,0.0,0.0,0.0,0.0,0.0,0.0,0.0,0.0,0.0,0.0,0.0,0.0,0.0,0.0,0.0,0.0,0.0,0.0,0.0,0.0,0.0,0.0,0.0,0.0,0.0,0.0,0.0,0.0,0.0,0.0,0.0,0.0,0.0,0.0,0.0,0.0,0.0,0.0,0.0,0.0,-0.1756,-0.2363,-0.1613,-0.5957,-0.8143,-0.8169,-1.001,-1.0941,-1.1124,-1.1212,-1.1287,-1.1348,-1.1443,-1.1484,-1.1491,-1.1579,-1.1619,-1.1619,-1.1619,-1.1619,-1.1619,-1.1619,-1.1619,-1.1619,-0.3289,-0.2819,-0.2148,-0.0538,-0.0136,0.0,0.0,0.0,0.0,0.0,0.0,0.0,0.0,0.0,0.0,0.0,0.0,0.0,0.0,0.0,0.0,0.0,0.0,0.0,0.0,0.0,0.0,0.0,0.0,0.0,0.0,0.0,0.0,0.0,0.0,0.0,0.0,0.0,0.0,0.0,0.0,0.0,0.0,0.0,0.0,0.0,0.0,0.0,0.0,0.0,0.0,0.0,0.0,0.0,0.0,0.0,0.0,0.0,0.0,0.0,0.0,0.0,0.0,0.0,0.0,0.0,0.0,0.0,0.0,0.0,0.0,0.0,0.0,0.0,0.0,0.0,0.0,0.0,0.0,0.0,0.0,0.0,0.0,0.0,0.0,0.0,0.0,0.0,0.0,0.0,0.0,0.0,-0.1567,-0.1637,0.0,-0.5374,-0.804,-0.8068,-1.0011,-1.1131,-1.1389,-1.1402,-1.1491,-1.1619,-1.1619,-1.1619,-1.1619,-1.1619,-1.1619,-1.1619,-1.1619,-1.1619,-1.1619,-1.1619,-1.1619,-1.1619,-0.4894,-0.3689,-0.2551,-0.2216,-0.0952,0.0,0.0,0.0,0.0,0.0,0.0,0.0,0.0,0.0,0.0,0.0,0.0,0.0,0.0,0.0,0.0,0.0,0.0,0.0,0.0,0.0,0.0,0.0,0.0,0.0,0.0,0.0,0.0,0.0,0.0,0.0,0.0,0.0,0.0,0.0,0.0,0.0,0.0,0.0,0.0,0.0,0.0,0.0,0.0,0.0,0.0,0.0,0.0,0.0,0.0,0.0,0.0,0.0,0.0,0.0,0.0,0.0,0.0,0.0,0.0,0.0,0.0,0.0,0.0,0.0,0.0,0.0,0.0,0.0,0.0,0.0,0.0,0.0,0.0,0.0,0.0,0.0,0.0,0.0,0.0,0.0,0.0,0.0,0.0,0.0,0.0,0.0,-0.0409,-0.0412,0.0,-0.4087,-0.6168,-0.6221,-0.9637,-1.1328,-1.1396,-1.1518,-1.1586,-1.1619,-1.1619,-1.1619,-1.1619,-1.1619,-1.1619,-1.1619,-1.1619,-1.1619,-1.1619,-1.1619,-1.1619,-1.1619,-0.6831,-0.5228,-0.3689,-0.2819,-0.1217,0.0,0.0,0.0,0.0,0.0,0.0,0.0,0.0,0.0,0.0,0.0,0.0,0.0,0.0,0.0,0.0,0.0,0.0,0.0,0.0,0.0,0.0,0.0,0.0,0.0,0.0,0.0,0.0,0.0,0.0,0.0,0.0,0.0,0.0,0.0,0.0,0.0,0.0,0.0,0.0,0.0,0.0,0.0,0.0,0.0,0.0,0.0,0.0,0.0,0.0,0.0,0.0,0.0,0.0,0.0,0.0,0.0,0.0,0.0,0.0,0.0,0.0,0.0,0.0,0.0,0.0,0.0,0.0,0.0,0.0,0.0,0.0,0.0,0.0,0.0,0.0,0.0,0.0,0.0,0.0,0.0,0.0,0.0,0.0,0.0,0.0,0.0,0.0,0.0,0.0,-0.3794,-0.5722,-0.5719,-0.9543,-1.143,-1.1504,-1.1586,-1.1619,-1.1619,-1.1619,-1.1619,-1.1619,-1.1619,-1.1619,-1.1619,-1.1619,-1.1619,-1.1619,-1.1619,-1.1619,-1.1619,-0.8767,-0.6831,-0.4894,-0.3423,-0.1411,0.0,0.0,0.0,0.0,0.0,0.0,0.0,0.0,0.0,0.0,0.0,0.0,0.0,0.0,0.0,0.0,0.0,0.0,0.0,0.0,0.0,0.0,0.0,0.0,0.0,0.0,0.0,0.0,0.0,0.0,0.0,0.0,0.0,0.0,0.0,0.0,0.0,0.0,0.0,0.0,0.0,0.0,0.0,0.0,0.0,0.0,0.0,0.0,0.0,0.0,0.0,0.0,0.0,0.0,0.0,0.0,0.0,0.0,0.0,0.0,0.0,0.0,0.0,0.0,0.0,0.0,0.0,0.0,0.0,0.0,0.0,0.0,0.0,0.0,0.0,0.0,0.0,0.0,0.0,0.0,0.0,0.0,0.0,0.0,0.0,0.0,0.0,0.0,0.0,0.0,-0.35,-0.5489,-0.5859,-0.928,-1.1135,-1.1619,-1.1619,-1.1619,-1.1619,-1.1619,-1.1619,-1.1619,-1.1619,-1.1619,-1.1619,-1.1619,-1.1619,-1.1619,-1.1619,-1.1619,-1.1619,-1.0386,-0.7702,-0.5295,-0.5095,-0.2216,0.0,0.0,0.0,0.0,0.0,0.0,0.0,0.0,0.0,0.0,0.0,0.0,0.0,0.0,0.0,0.0,0.0,0.0,0.0,0.0,0.0,0.0,0.0,0.0,0.0,0.0,0.0,0.0,0.0,0.0,0.0,0.0,0.0,0.0,0.0,0.0,0.0,0.0,0.0,0.0,0.0,0.0,0.0,0.0,0.0,0.0,0.0,0.0,0.0,0.0,0.0,0.0,0.0,0.0,0.0,0.0,0.0,0.0,0.0,0.0,0.0,0.0,0.0,0.0,0.0,0.0,0.0,0.0,0.0,0.0,0.0,0.0,0.0,0.0,0.0,0.0,0.0,0.0,0.0,0.0,0.0,0.0,0.0,0.0,0.0,0.0,0.0,0.0,0.0,0.0,-0.2165,-0.4138,-0.5794,-0.803,-0.9922,-1.1619,-1.1619,-1.1619,-1.1619,-1.1619,-1.1619,-1.1619,-1.1619,-1.1619,-1.1619,-1.1619,-1.1619,-1.1619,-1.1619,-1.1619,-1.1619,-1.0717,-0.7836,-0.5429,-0.5429,-0.2417,0.0,0.0,0.0,0.0,0.0,0.0,0.0,0.0,0.0,0.0,0.0,0.0,0.0,0.0,0.0,0.0,0.0,0.0,0.0,0.0,0.0,0.0,0.0,0.0,0.0,0.0,0.0,0.0,0.0,0.0,0.0,0.0,0.0,0.0,0.0,0.0,0.0,0.0,0.0,0.0,0.0,0.0,0.0,0.0,0.0,0.0,0.0,0.0,0.0,0.0,0.0,0.0,0.0,0.0,0.0,0.0,0.0,0.0,0.0,0.0,0.0,0.0,0.0,0.0,0.0,0.0,0.0,0.0,0.0,0.0,0.0,0.0,0.0,0.0,0.0,0.0,0.0,0.0,0.0,0.0,0.0,0.0,0.0,0.0,0.0,0.0,0.0,0.0,0.0,0.0,-0.1952,-0.3851,-0.5808,-0.7761,-0.9723,-1.1619,-1.1619,-1.1619,-1.1619,-1.1619,-1.1619,-1.1619,-1.1619,-1.1619,-1.1619,-1.1619,-1.1619,-1.1619,-1.1619,-1.1619,-1.1619]}]]